[[{"header":{"parameterUnit":"m.s-1","parameterCategory":1,"la1":31.0,"la2":29.5877,"lo1":-88.7671,"lo2":-86.6584,"dx":0.0162,"dy":0.0185,"nx":115,"ny":88,"refTime":"2023-01-20T06:00:00:Z","depth":0,"parameterNumber":2,"parameterNumberName":"U-component_of_WINDS"},"data":[0.0,0.0,0.0,0.0,0.0,0.0,0.0,0.0,0.0,0.0,0.0,0.0,0.0,0.0,0.0,0.0,0.0,0.0,0.0,0.0,0.0,0.0,0.0,0.0,0.0,0.0,0.0,0.0,0.0,0.0,0.0,0.0,0.0,0.0,0.0,0.0,0.0,0.0,0.0,0.0,0.0,0.0,0.0,0.0,0.0,0.0,0.0,0.0,0.0,0.0,0.0,0.0,0.0,0.0,0.0,0.0,0.0,0.0,0.0,0.0,0.0,0.0,0.0,0.0,0.0,0.0,0.0,0.0,0.0,0.0,0.0,0.0,0.0,0.0,0.0,0.0,0.0,0.0,0.0,0.0,0.0,0.0,0.0,0.0,0.0,0.0,0.0,0.0,0.0,0.0,0.0,0.0,0.0,0.0,0.0,0.0,0.0,0.0,0.0,0.0,0.0,0.0,0.0,0.0,0.0,0.0,0.0,0.0,0.0,0.0,0.0,0.0,0.0,0.0,0.0,0.0,0.0,0.0,0.0,0.0,0.0,0.0,0.0,0.0,0.0,0.0,0.0,0.0,0.0,0.0,0.0,0.0,0.0,0.0,0.0,0.0,0.0,0.0,0.0,0.0,0.0,0.0,0.0,0.0,0.0,0.0,0.0,0.0,0.0,0.0,0.0,0.0,0.0,0.0,0.0,0.0,0.0,0.0,0.0,0.0,0.0,0.0,0.0,0.0,0.0,0.0,0.0,0.0,0.0,0.0,0.0,0.0,0.0,0.0,0.0,0.0,0.0,0.0,0.0,0.0,0.0,0.0,0.0,0.0,0.0,0.0,0.0,0.0,0.0,0.0,0.0,0.0,0.0,0.0,0.0,0.0,0.0,0.0,0.0,0.0,0.0,0.0,0.0,0.0,0.0,0.0,0.0,0.0,0.0,0.0,0.0,0.0,0.0,0.0,0.0,0.0,0.0,0.0,0.0,0.0,0.0,0.0,0.0,0.0,0.0,0.0,0.0,0.0,0.0,0.0,0.0,0.0,0.0,0.0,0.0,0.0,0.0,0.0,0.0,0.0,0.0,0.0,0.0,0.0,0.0,0.0,0.0,0.0,0.0,0.0,0.0,0.0,0.0,0.0,0.0,0.0,0.0,0.0,0.0,0.0,0.0,0.0,0.0,0.0,0.0,0.0,0.0,0.0,0.0,0.0,0.0,0.0,0.0,0.0,0.0,0.0,0.0,0.0,0.0,0.0,0.0,0.0,0.0,0.0,0.0,0.0,0.0,0.0,0.0,0.0,0.0,0.0,0.0,0.0,0.0,0.0,0.0,0.0,0.0,0.0,0.0,0.0,0.0,0.0,0.0,0.0,0.0,0.0,0.0,0.0,0.0,0.0,0.0,0.0,0.0,0.0,0.0,0.0,0.0,0.0,0.0,0.0,0.0,0.0,0.0,0.0,0.0,0.0,0.0,0.0,0.0,0.0,0.0,0.0,0.0,0.0,0.0,0.0,0.0,0.0,0.0,0.0,0.0,0.0,0.0,0.0,0.0,0.0,0.0,0.0,0.0,0.0,0.0,0.0,0.0,0.0,0.0,0.0,0.0,0.0,0.0,0.0,0.0,0.0,0.0,0.0,0.0,0.0,0.0,0.0,0.0,0.0,0.0,0.0,0.0,0.0,0.0,0.0,0.0,0.0,0.0,0.0,0.0,0.0,0.0,0.0,0.0,0.0,0.0,0.0,0.0,0.0,0.0,0.0,0.0,0.0,0.0,0.0,0.0,0.0,0.0,0.0,0.0,0.0,0.0,0.0,0.0,0.0,0.0,0.0,0.0,0.0,0.0,0.0,0.0,0.0,0.0,0.0,0.0,0.0,0.0,0.0,0.0,0.0,0.0,0.0,0.0,0.0,0.0,0.0,0.0,0.0,0.0,0.0,0.0,0.0,0.0,0.0,0.0,0.0,0.0,0.0,0.0,0.0,0.0,0.0,0.0,0.0,0.0,0.0,0.0,0.0,0.0,0.0,0.0,0.0,0.0,0.0,0.0,0.0,0.0,0.0,0.0,0.0,0.0,0.0,0.0,0.0,0.0,0.0,0.0,0.0,0.0,0.0,0.0,0.0,0.0,0.0,0.0,0.0,0.0,0.0,0.0,0.0,0.0,0.0,0.0,0.0,0.0,0.0,0.0,0.0,0.0,0.0,0.0,0.0,0.0,0.0,0.0,0.0,0.0,0.0,0.0,0.0,0.0,0.0,0.0,0.0,0.0,0.0,0.0,0.0,0.0,0.0,0.0,0.0,0.0,0.0,0.0,0.0,0.0,0.0,0.0,0.0,0.0,0.0,0.0,0.0,0.0,0.0,0.0,0.0,0.0,0.0,0.0,0.0,0.0,0.0,0.0,0.0,0.0,0.0,0.0,0.0,0.0,0.0,0.0,0.0,0.0,0.0,0.0,0.0,0.0,0.0,0.0,0.0,0.0,0.0,0.0,0.0,0.0,0.0,0.0,0.0,0.0,0.0,0.0,0.0,0.0,0.0,0.0,0.0,0.0,0.0,0.0,0.0,0.0,0.0,0.0,0.0,0.0,0.0,0.0,0.0,0.0,0.0,0.0,0.0,0.0,0.0,0.0,0.0,0.0,0.0,0.0,0.0,0.0,0.0,0.0,0.0,0.0,0.0,0.0,0.0,0.0,0.0,0.0,0.0,0.0,0.0,0.0,0.0,0.0,0.0,0.0,0.0,0.0,0.0,0.0,0.0,0.0,0.0,0.0,0.0,0.0,0.0,0.0,0.0,0.0,0.0,0.0,0.0,0.0,0.0,0.0,0.0,0.0,0.0,0.0,0.0,0.0,0.0,0.0,0.0,0.0,0.0,0.0,0.0,0.0,0.0,0.0,0.0,0.0,0.0,0.0,0.0,0.0,0.0,0.0,0.0,0.0,0.0,0.0,0.0,0.0,0.0,0.0,0.0,0.0,0.0,0.0,0.0,0.0,0.0,0.0,0.0,0.0,0.0,0.0,0.0,0.0,0.0,0.0,0.0,0.0,0.0,0.0,0.0,0.0,0.0,0.0,0.0,0.0,0.0,0.0,0.0,0.0,0.0,0.0,0.0,0.0,0.0,0.0,0.0,0.0,0.0,0.0,0.0,0.0,0.0,0.0,0.0,0.0,0.0,0.0,0.0,0.0,0.0,0.0,0.0,0.0,0.0,0.0,0.0,0.0,0.0,0.0,0.0,0.0,0.0,0.0,0.0,0.0,0.0,0.0,0.0,0.0,0.0,0.0,0.0,0.0,0.0,0.0,0.0,0.0,0.0,0.0,0.0,0.0,0.0,0.0,0.0,0.0,0.0,0.0,0.0,0.0,0.0,0.0,0.0,0.0,0.0,0.0,0.0,0.0,0.0,0.0,0.0,0.0,0.0,0.0,0.0,0.0,0.0,0.0,0.0,0.0,0.0,0.0,0.0,0.0,0.0,0.0,0.0,0.0,0.0,0.0,0.0,0.0,0.0,0.0,0.0,0.0,0.0,0.0,0.0,0.0,0.0,0.0,0.0,0.0,0.0,0.0,0.0,0.0,0.0,0.0,0.0,0.0,0.0,0.0,0.0,0.0,0.0,0.0,0.0,0.0,0.0,0.0,0.0,0.0,0.0,0.0,0.0,0.0,0.0,0.0,0.0,0.0,0.0,0.0,0.0,0.0,0.0,0.0,0.0,0.0,0.0,0.0,0.0,0.0,0.0,0.0,0.0,0.0,0.0,0.0,0.0,0.0,0.0,0.0,0.0,0.0,0.0,0.0,0.0,0.0,0.0,0.0,0.0,0.0,0.0,0.0,0.0,0.0,0.0,0.0,0.0,0.0,0.0,0.0,0.0,0.0,0.0,0.0,0.0,0.0,0.0,0.0,0.0,0.0,0.0,0.0,0.0,0.0,0.0,0.0,0.0,0.0,0.0,0.0,0.0,0.0,0.0,0.0,0.0,0.0,0.0,0.0,0.0,0.0,0.0,0.0,0.0,0.0,0.0,0.0,0.0,0.0,0.0,0.0,0.0,0.0,0.0,0.0,0.0,0.0,0.0,0.0,0.0,0.0,0.0,0.0,0.0,0.0,0.0,0.0,0.0,0.0,0.0,0.0,0.0,0.0,0.0,0.0,0.0,0.0,0.0,0.0,0.0,0.0,0.0,0.0,0.0,0.0,0.0,0.0,0.0,0.0,0.0,0.0,0.0,0.0,0.0,0.0,0.0,0.0,0.0,0.0,0.0,0.0,0.0,0.0,0.0,0.0,0.0,-3.9819,0.0,0.0,0.0,0.0,0.0,0.0,0.0,0.0,0.0,0.0,0.0,0.0,0.0,0.0,0.0,0.0,0.0,0.0,0.0,0.0,0.0,0.0,0.0,0.0,0.0,0.0,0.0,0.0,0.0,0.0,0.0,0.0,0.0,0.0,0.0,0.0,0.0,0.0,0.0,0.0,0.0,0.0,0.0,0.0,0.0,0.0,0.0,0.0,0.0,0.0,0.0,0.0,0.0,0.0,0.0,0.0,0.0,0.0,0.0,0.0,0.0,0.0,0.0,0.0,0.0,0.0,0.0,0.0,0.0,0.0,0.0,0.0,0.0,0.0,0.0,0.0,0.0,0.0,0.0,0.0,0.0,0.0,0.0,0.0,0.0,0.0,0.0,0.0,0.0,0.0,0.0,0.0,0.0,0.0,0.0,0.0,0.0,0.0,0.0,0.0,0.0,0.0,0.0,0.0,0.0,0.0,0.0,0.0,0.0,0.0,-3.7655,-3.7187,-3.8435,-3.9131,-3.9117,0.0,0.0,0.0,0.0,0.0,0.0,0.0,0.0,0.0,0.0,0.0,0.0,0.0,0.0,0.0,0.0,0.0,0.0,0.0,0.0,0.0,0.0,0.0,0.0,0.0,0.0,0.0,0.0,0.0,0.0,0.0,0.0,0.0,0.0,0.0,0.0,0.0,0.0,0.0,0.0,0.0,0.0,0.0,0.0,0.0,0.0,0.0,0.0,0.0,0.0,0.0,0.0,0.0,0.0,0.0,0.0,0.0,0.0,0.0,0.0,0.0,0.0,0.0,0.0,0.0,0.0,0.0,0.0,0.0,0.0,0.0,0.0,0.0,0.0,0.0,0.0,0.0,0.0,0.0,0.0,0.0,0.0,0.0,0.0,0.0,0.0,0.0,0.0,0.0,0.0,0.0,0.0,0.0,0.0,0.0,0.0,0.0,0.0,0.0,0.0,0.0,0.0,0.0,0.0,0.0,0.0,0.0,0.0,0.0,0.0,0.0,0.0,-3.7772,-3.875,-3.9096,0.0,0.0,0.0,0.0,0.0,0.0,0.0,0.0,0.0,0.0,0.0,0.0,0.0,0.0,0.0,0.0,0.0,0.0,0.0,0.0,0.0,0.0,0.0,0.0,0.0,0.0,0.0,0.0,0.0,0.0,0.0,0.0,0.0,0.0,0.0,0.0,0.0,0.0,0.0,0.0,0.0,0.0,0.0,0.0,0.0,0.0,0.0,0.0,0.0,0.0,0.0,0.0,0.0,0.0,0.0,0.0,0.0,0.0,0.0,0.0,0.0,0.0,0.0,0.0,0.0,0.0,0.0,0.0,0.0,0.0,0.0,0.0,0.0,0.0,0.0,0.0,0.0,0.0,0.0,0.0,0.0,0.0,0.0,0.0,0.0,0.0,0.0,0.0,0.0,0.0,0.0,0.0,0.0,0.0,0.0,0.0,0.0,0.0,0.0,0.0,0.0,0.0,0.0,0.0,0.0,0.0,0.0,0.0,0.0,0.0,-3.6456,-3.7166,-3.8039,0.0,-4.0737,0.0,0.0,0.0,0.0,0.0,0.0,0.0,0.0,0.0,0.0,0.0,0.0,0.0,0.0,0.0,0.0,0.0,0.0,0.0,0.0,0.0,0.0,0.0,0.0,0.0,0.0,0.0,0.0,0.0,0.0,0.0,0.0,0.0,0.0,0.0,0.0,0.0,0.0,0.0,0.0,0.0,0.0,0.0,0.0,0.0,0.0,0.0,0.0,0.0,0.0,0.0,0.0,0.0,0.0,0.0,0.0,0.0,0.0,0.0,0.0,0.0,0.0,0.0,0.0,0.0,0.0,0.0,0.0,0.0,0.0,0.0,0.0,0.0,0.0,0.0,0.0,0.0,0.0,0.0,0.0,0.0,0.0,0.0,0.0,0.0,0.0,0.0,0.0,0.0,0.0,0.0,0.0,0.0,0.0,0.0,0.0,0.0,0.0,0.0,0.0,0.0,0.0,0.0,0.0,0.0,0.0,0.0,0.0,0.0,0.0,-3.6338,-3.7208,-3.8567,-3.9836,0.0,0.0,0.0,0.0,0.0,0.0,0.0,0.0,0.0,0.0,0.0,0.0,0.0,0.0,0.0,0.0,0.0,0.0,0.0,0.0,0.0,0.0,0.0,0.0,0.0,0.0,0.0,0.0,0.0,0.0,0.0,0.0,0.0,0.0,0.0,0.0,0.0,0.0,0.0,0.0,0.0,0.0,0.0,0.0,0.0,0.0,0.0,0.0,0.0,0.0,0.0,0.0,0.0,0.0,0.0,0.0,0.0,0.0,0.0,0.0,0.0,0.0,0.0,0.0,0.0,0.0,0.0,0.0,0.0,0.0,0.0,0.0,0.0,0.0,0.0,0.0,0.0,0.0,0.0,0.0,0.0,0.0,0.0,0.0,0.0,0.0,0.0,0.0,0.0,0.0,0.0,0.0,0.0,0.0,0.0,0.0,0.0,0.0,0.0,0.0,0.0,0.0,0.0,0.0,0.0,0.0,0.0,0.0,0.0,0.0,-3.6186,-3.6401,-3.7556,-3.9245,-4.0444,-4.1081,0.0,0.0,0.0,0.0,0.0,0.0,0.0,0.0,0.0,0.0,0.0,0.0,0.0,0.0,0.0,0.0,0.0,0.0,0.0,0.0,0.0,0.0,0.0,0.0,0.0,0.0,0.0,0.0,0.0,0.0,0.0,0.0,0.0,0.0,0.0,0.0,0.0,0.0,0.0,0.0,0.0,0.0,0.0,0.0,0.0,0.0,0.0,0.0,0.0,0.0,0.0,0.0,0.0,0.0,0.0,0.0,0.0,0.0,0.0,0.0,0.0,0.0,0.0,0.0,0.0,0.0,0.0,0.0,0.0,0.0,0.0,0.0,0.0,0.0,0.0,0.0,0.0,0.0,0.0,0.0,0.0,0.0,0.0,0.0,0.0,0.0,0.0,0.0,0.0,0.0,0.0,0.0,0.0,0.0,0.0,0.0,0.0,0.0,0.0,0.0,0.0,0.0,0.0,0.0,0.0,0.0,0.0,0.0,-3.5944,-3.5849,-3.662,-3.8337,-4.0115,-4.1081,0.0,0.0,0.0,0.0,0.0,0.0,0.0,0.0,0.0,0.0,0.0,0.0,0.0,0.0,0.0,0.0,0.0,0.0,0.0,0.0,0.0,0.0,0.0,0.0,0.0,0.0,0.0,0.0,0.0,0.0,0.0,0.0,0.0,0.0,0.0,0.0,0.0,0.0,0.0,0.0,0.0,0.0,0.0,0.0,0.0,0.0,0.0,0.0,0.0,0.0,0.0,0.0,0.0,0.0,0.0,0.0,0.0,0.0,0.0,0.0,0.0,0.0,0.0,0.0,0.0,0.0,0.0,0.0,0.0,0.0,0.0,0.0,0.0,0.0,0.0,0.0,0.0,0.0,0.0,0.0,0.0,0.0,0.0,0.0,0.0,0.0,0.0,0.0,0.0,0.0,0.0,0.0,0.0,0.0,0.0,0.0,0.0,0.0,0.0,0.0,0.0,0.0,0.0,0.0,0.0,0.0,0.0,0.0,0.0,-3.5829,-3.6799,-3.7967,-3.9142,-4.0408,-4.1029,0.0,0.0,0.0,0.0,0.0,0.0,0.0,0.0,0.0,0.0,0.0,0.0,0.0,0.0,0.0,0.0,0.0,0.0,0.0,0.0,0.0,0.0,0.0,0.0,0.0,0.0,0.0,0.0,0.0,0.0,0.0,0.0,0.0,0.0,0.0,0.0,0.0,0.0,0.0,0.0,0.0,0.0,0.0,0.0,0.0,0.0,0.0,0.0,0.0,0.0,0.0,0.0,0.0,0.0,0.0,0.0,0.0,0.0,0.0,0.0,0.0,0.0,0.0,0.0,0.0,0.0,0.0,0.0,0.0,0.0,0.0,0.0,0.0,0.0,0.0,0.0,0.0,0.0,0.0,0.0,0.0,0.0,0.0,0.0,0.0,0.0,0.0,0.0,0.0,0.0,0.0,0.0,0.0,0.0,0.0,0.0,0.0,0.0,0.0,0.0,0.0,0.0,0.0,0.0,0.0,0.0,0.0,0.0,0.0,-3.652,0.0,-3.8949,-3.9573,-4.0441,-4.0956,0.0,0.0,0.0,0.0,0.0,0.0,0.0,0.0,0.0,0.0,0.0,0.0,0.0,0.0,0.0,0.0,0.0,0.0,0.0,0.0,0.0,0.0,0.0,0.0,0.0,0.0,0.0,0.0,0.0,0.0,0.0,0.0,0.0,0.0,0.0,0.0,0.0,0.0,0.0,0.0,0.0,0.0,0.0,0.0,0.0,0.0,0.0,0.0,0.0,0.0,0.0,0.0,0.0,0.0,0.0,0.0,0.0,0.0,0.0,0.0,0.0,0.0,0.0,0.0,0.0,0.0,0.0,0.0,0.0,0.0,0.0,0.0,0.0,0.0,0.0,0.0,0.0,0.0,0.0,0.0,0.0,0.0,0.0,0.0,0.0,0.0,0.0,0.0,0.0,0.0,0.0,0.0,0.0,0.0,0.0,0.0,0.0,0.0,0.0,0.0,0.0,0.0,0.0,0.0,0.0,0.0,0.0,0.0,-3.8919,-3.8144,-3.8917,-3.9425,-3.9539,-4.0372,-4.0829,0.0,0.0,0.0,0.0,0.0,0.0,0.0,0.0,0.0,0.0,0.0,0.0,0.0,0.0,0.0,0.0,0.0,0.0,0.0,0.0,0.0,0.0,0.0,0.0,0.0,0.0,0.0,0.0,0.0,0.0,0.0,0.0,0.0,0.0,0.0,0.0,0.0,0.0,0.0,0.0,0.0,0.0,0.0,0.0,0.0,0.0,0.0,0.0,0.0,0.0,0.0,0.0,0.0,0.0,0.0,0.0,0.0,0.0,0.0,0.0,0.0,0.0,0.0,0.0,0.0,0.0,0.0,0.0,0.0,0.0,0.0,0.0,0.0,0.0,0.0,0.0,0.0,0.0,0.0,0.0,0.0,0.0,0.0,0.0,0.0,0.0,0.0,0.0,0.0,0.0,0.0,0.0,0.0,0.0,0.0,0.0,0.0,0.0,0.0,0.0,0.0,0.0,0.0,0.0,0.0,0.0,0.0,0.0,0.0,-3.8916,-3.916,-3.9634,-4.0243,-4.0578,-4.1042,0.0,0.0,0.0,0.0,0.0,0.0,0.0,0.0,0.0,0.0,0.0,0.0,0.0,0.0,0.0,0.0,0.0,0.0,0.0,0.0,0.0,0.0,0.0,0.0,0.0,0.0,0.0,0.0,0.0,0.0,0.0,0.0,0.0,0.0,0.0,0.0,0.0,0.0,0.0,0.0,0.0,0.0,0.0,0.0,0.0,0.0,0.0,0.0,0.0,0.0,0.0,0.0,0.0,0.0,0.0,0.0,0.0,0.0,0.0,0.0,0.0,0.0,0.0,0.0,0.0,0.0,0.0,0.0,0.0,0.0,0.0,0.0,0.0,0.0,0.0,0.0,0.0,0.0,0.0,0.0,0.0,0.0,0.0,0.0,0.0,0.0,0.0,0.0,0.0,0.0,0.0,0.0,0.0,0.0,0.0,0.0,0.0,0.0,0.0,0.0,0.0,0.0,0.0,0.0,0.0,0.0,0.0,0.0,0.0,-4.1011,-4.0765,-4.0923,-4.1508,-4.1514,-4.1873,-4.2521,0.0,0.0,0.0,0.0,0.0,0.0,0.0,0.0,0.0,0.0,0.0,0.0,0.0,0.0,0.0,0.0,0.0,0.0,0.0,0.0,0.0,0.0,0.0,0.0,0.0,0.0,0.0,0.0,0.0,0.0,0.0,0.0,0.0,0.0,0.0,0.0,0.0,0.0,0.0,0.0,0.0,0.0,0.0,0.0,0.0,0.0,0.0,0.0,0.0,0.0,0.0,0.0,0.0,0.0,0.0,0.0,0.0,0.0,0.0,0.0,0.0,0.0,0.0,0.0,0.0,0.0,0.0,0.0,0.0,0.0,0.0,0.0,0.0,0.0,0.0,0.0,0.0,0.0,0.0,0.0,0.0,0.0,0.0,0.0,0.0,0.0,0.0,0.0,0.0,0.0,0.0,0.0,0.0,0.0,0.0,0.0,0.0,0.0,0.0,0.0,0.0,0.0,0.0,0.0,0.0,0.0,0.0,0.0,-4.4034,-4.3484,-4.3165,-4.3099,-4.3077,-4.3196,0.0,0.0,0.0,0.0,0.0,0.0,0.0,0.0,0.0,0.0,0.0,0.0,0.0,0.0,0.0,0.0,0.0,0.0,0.0,0.0,0.0,0.0,0.0,0.0,0.0,0.0,0.0,0.0,0.0,0.0,0.0,0.0,0.0,0.0,0.0,0.0,0.0,0.0,0.0,0.0,0.0,0.0,0.0,0.0,0.0,0.0,0.0,0.0,0.0,0.0,0.0,0.0,0.0,0.0,0.0,0.0,0.0,0.0,0.0,0.0,0.0,0.0,0.0,0.0,0.0,0.0,0.0,0.0,0.0,0.0,0.0,0.0,0.0,0.0,0.0,0.0,0.0,0.0,0.0,0.0,0.0,0.0,0.0,0.0,0.0,0.0,0.0,0.0,0.0,0.0,0.0,0.0,0.0,0.0,0.0,0.0,0.0,0.0,0.0,0.0,0.0,0.0,0.0,0.0,0.0,0.0,0.0,0.0,0.0,-4.4832,-4.59,-4.591,-4.4796,-4.4246,-4.4303,0.0,0.0,0.0,0.0,0.0,0.0,0.0,0.0,0.0,0.0,0.0,0.0,0.0,0.0,0.0,0.0,0.0,0.0,0.0,0.0,0.0,0.0,0.0,0.0,0.0,0.0,0.0,0.0,0.0,0.0,0.0,0.0,0.0,0.0,0.0,0.0,0.0,0.0,0.0,0.0,0.0,0.0,0.0,0.0,0.0,0.0,0.0,0.0,0.0,0.0,0.0,0.0,0.0,0.0,0.0,0.0,0.0,0.0,0.0,0.0,0.0,0.0,0.0,0.0,0.0,0.0,0.0,0.0,0.0,0.0,0.0,0.0,0.0,0.0,0.0,0.0,0.0,0.0,0.0,0.0,0.0,0.0,0.0,0.0,0.0,0.0,0.0,0.0,0.0,0.0,0.0,0.0,0.0,0.0,0.0,0.0,0.0,0.0,0.0,0.0,0.0,0.0,0.0,0.0,0.0,0.0,0.0,0.0,-4.5814,-4.7184,-4.8172,-4.8612,-4.8442,-4.673,-4.6061,0.0,0.0,0.0,0.0,0.0,0.0,0.0,0.0,0.0,0.0,0.0,0.0,0.0,0.0,0.0,0.0,0.0,0.0,0.0,0.0,0.0,0.0,0.0,0.0,0.0,0.0,0.0,0.0,0.0,0.0,0.0,0.0,0.0,0.0,0.0,0.0,0.0,0.0,0.0,0.0,0.0,0.0,0.0,0.0,0.0,0.0,0.0,0.0,0.0,0.0,0.0,0.0,0.0,0.0,0.0,0.0,0.0,0.0,0.0,0.0,0.0,0.0,0.0,0.0,0.0,0.0,0.0,0.0,0.0,0.0,0.0,0.0,0.0,0.0,0.0,0.0,0.0,0.0,0.0,0.0,0.0,0.0,0.0,0.0,0.0,0.0,0.0,0.0,0.0,0.0,0.0,0.0,0.0,0.0,0.0,0.0,0.0,0.0,0.0,0.0,0.0,0.0,0.0,0.0,0.0,0.0,0.0,0.0,-4.6946,-4.9962,-5.0228,-5.1039,-5.2422,-4.9675,-4.8207,0.0,0.0,0.0,0.0,0.0,0.0,0.0,0.0,0.0,0.0,0.0,0.0,0.0,0.0,0.0,0.0,0.0,0.0,0.0,0.0,0.0,0.0,0.0,0.0,0.0,0.0,0.0,0.0,0.0,0.0,0.0,0.0,0.0,0.0,0.0,0.0,0.0,0.0,0.0,0.0,0.0,0.0,0.0,0.0,0.0,0.0,0.0,0.0,0.0,0.0,0.0,0.0,0.0,0.0,0.0,0.0,0.0,0.0,0.0,0.0,0.0,0.0,0.0,0.0,0.0,0.0,0.0,0.0,0.0,0.0,0.0,0.0,0.0,0.0,0.0,0.0,0.0,0.0,0.0,0.0,0.0,0.0,0.0,0.0,0.0,0.0,0.0,0.0,0.0,0.0,0.0,0.0,0.0,0.0,0.0,0.0,0.0,0.0,0.0,0.0,0.0,0.0,0.0,0.0,0.0,0.0,0.0,0.0,-4.838,-4.9764,-5.1121,-5.2011,-5.2423,-5.0723,-4.9798,0.0,0.0,0.0,0.0,0.0,0.0,0.0,0.0,0.0,0.0,0.0,0.0,0.0,0.0,0.0,0.0,0.0,0.0,0.0,0.0,0.0,0.0,0.0,0.0,0.0,0.0,0.0,0.0,0.0,0.0,0.0,0.0,0.0,0.0,0.0,0.0,0.0,0.0,0.0,0.0,0.0,0.0,0.0,0.0,0.0,0.0,0.0,0.0,-4.7564,0.0,0.0,0.0,0.0,0.0,0.0,0.0,0.0,0.0,0.0,0.0,0.0,0.0,0.0,0.0,0.0,0.0,0.0,0.0,0.0,0.0,0.0,0.0,0.0,0.0,0.0,0.0,0.0,0.0,0.0,0.0,0.0,0.0,0.0,0.0,0.0,0.0,0.0,0.0,0.0,0.0,0.0,0.0,0.0,0.0,0.0,0.0,0.0,0.0,0.0,0.0,0.0,0.0,0.0,0.0,0.0,0.0,0.0,0.0,-4.9085,-5.0688,-5.2422,-5.3368,-5.3392,-5.2793,-5.1967,0.0,0.0,0.0,0.0,0.0,0.0,0.0,0.0,0.0,0.0,0.0,0.0,0.0,0.0,0.0,0.0,0.0,0.0,0.0,0.0,0.0,0.0,0.0,0.0,0.0,0.0,0.0,0.0,0.0,0.0,0.0,0.0,0.0,0.0,0.0,0.0,0.0,0.0,0.0,0.0,0.0,0.0,0.0,0.0,0.0,0.0,0.0,0.0,0.0,0.0,0.0,0.0,0.0,0.0,0.0,0.0,0.0,0.0,0.0,0.0,0.0,0.0,0.0,0.0,0.0,0.0,0.0,0.0,0.0,0.0,0.0,0.0,0.0,0.0,0.0,0.0,0.0,0.0,0.0,0.0,0.0,0.0,0.0,0.0,0.0,0.0,0.0,0.0,0.0,0.0,0.0,0.0,0.0,0.0,0.0,0.0,0.0,0.0,0.0,0.0,0.0,0.0,0.0,0.0,0.0,0.0,0.0,-4.7673,-4.9706,-5.1994,-5.375,-5.4627,-5.466,-5.4909,-5.3978,-5.1789,0.0,0.0,0.0,0.0,0.0,0.0,0.0,0.0,0.0,0.0,0.0,0.0,0.0,0.0,0.0,0.0,0.0,0.0,0.0,0.0,0.0,0.0,0.0,0.0,0.0,0.0,0.0,0.0,0.0,0.0,0.0,0.0,0.0,0.0,0.0,0.0,0.0,0.0,-4.8877,-4.9149,0.0,0.0,0.0,0.0,0.0,0.0,0.0,0.0,-4.9918,0.0,0.0,0.0,0.0,0.0,0.0,0.0,0.0,0.0,0.0,0.0,0.0,0.0,0.0,0.0,0.0,0.0,0.0,0.0,0.0,0.0,0.0,0.0,0.0,0.0,0.0,0.0,0.0,0.0,0.0,0.0,0.0,0.0,0.0,0.0,0.0,0.0,0.0,0.0,0.0,0.0,0.0,0.0,0.0,0.0,0.0,0.0,0.0,0.0,0.0,0.0,0.0,0.0,0.0,0.0,0.0,-4.6554,-4.8872,-5.0929,-5.2706,-5.4332,-5.5209,-5.5355,-5.544,-5.4404,-5.221,0.0,0.0,0.0,0.0,0.0,0.0,0.0,0.0,0.0,0.0,0.0,0.0,0.0,0.0,0.0,0.0,0.0,0.0,0.0,0.0,0.0,0.0,0.0,0.0,0.0,0.0,0.0,0.0,0.0,0.0,0.0,0.0,0.0,0.0,0.0,0.0,0.0,0.0,0.0,-5.2024,-5.2935,0.0,0.0,0.0,0.0,0.0,0.0,0.0,0.0,-5.2996,0.0,0.0,0.0,0.0,0.0,0.0,0.0,0.0,0.0,0.0,0.0,0.0,0.0,0.0,0.0,0.0,0.0,0.0,0.0,0.0,0.0,0.0,0.0,0.0,0.0,0.0,0.0,0.0,0.0,0.0,0.0,0.0,0.0,0.0,0.0,0.0,0.0,0.0,0.0,0.0,0.0,0.0,0.0,0.0,0.0,0.0,0.0,0.0,0.0,0.0,0.0,0.0,0.0,0.0,0.0,-4.7206,-4.9093,-5.1101,-5.3181,-5.4893,-5.564,-5.5268,-5.5881,-5.4911,0.0,0.0,0.0,0.0,0.0,0.0,0.0,0.0,0.0,0.0,0.0,0.0,0.0,0.0,0.0,0.0,0.0,0.0,0.0,0.0,0.0,0.0,0.0,0.0,0.0,0.0,0.0,0.0,0.0,0.0,0.0,0.0,0.0,0.0,0.0,0.0,0.0,0.0,0.0,0.0,-5.3286,-5.3797,-5.3797,0.0,0.0,0.0,0.0,0.0,0.0,-5.5054,-5.5191,0.0,0.0,0.0,0.0,0.0,0.0,0.0,0.0,0.0,0.0,0.0,0.0,0.0,0.0,0.0,0.0,0.0,0.0,0.0,0.0,0.0,0.0,0.0,0.0,0.0,0.0,0.0,0.0,0.0,0.0,0.0,0.0,0.0,0.0,0.0,0.0,0.0,0.0,0.0,0.0,0.0,0.0,0.0,0.0,0.0,0.0,0.0,0.0,0.0,0.0,0.0,0.0,0.0,0.0,0.0,-4.7616,-4.9141,-5.1172,-5.3645,-5.5475,-5.5983,-5.5278,-5.6183,-5.5185,0.0,0.0,0.0,0.0,0.0,0.0,0.0,0.0,0.0,0.0,0.0,0.0,0.0,0.0,0.0,0.0,0.0,0.0,0.0,0.0,0.0,0.0,0.0,0.0,0.0,0.0,0.0,0.0,0.0,0.0,0.0,0.0,0.0,0.0,0.0,0.0,0.0,0.0,0.0,0.0,0.0,-5.465,-5.4811,-5.485,0.0,0.0,0.0,0.0,-5.6708,-5.6813,0.0,0.0,0.0,0.0,0.0,0.0,0.0,0.0,0.0,0.0,0.0,0.0,0.0,0.0,0.0,0.0,0.0,0.0,0.0,0.0,0.0,0.0,0.0,0.0,0.0,0.0,0.0,0.0,0.0,0.0,0.0,0.0,0.0,0.0,0.0,0.0,0.0,0.0,0.0,0.0,0.0,0.0,0.0,0.0,0.0,0.0,0.0,0.0,0.0,0.0,0.0,0.0,0.0,0.0,0.0,0.0,-4.7459,-4.9344,-5.1686,-5.4458,-5.587,-5.6376,-5.5973,-5.6152,-5.4857,0.0,0.0,0.0,0.0,0.0,0.0,0.0,0.0,0.0,0.0,0.0,0.0,0.0,0.0,0.0,0.0,0.0,0.0,0.0,0.0,0.0,0.0,0.0,0.0,0.0,0.0,0.0,0.0,0.0,0.0,0.0,0.0,0.0,0.0,0.0,0.0,0.0,0.0,0.0,0.0,0.0,-5.7511,-5.8291,-5.8407,-5.8446,0.0,0.0,-5.8493,-5.8565,-5.8581,0.0,0.0,0.0,0.0,0.0,0.0,0.0,0.0,0.0,0.0,0.0,0.0,0.0,0.0,0.0,0.0,0.0,0.0,0.0,0.0,0.0,0.0,0.0,0.0,0.0,0.0,0.0,0.0,0.0,0.0,0.0,0.0,0.0,0.0,0.0,0.0,0.0,0.0,0.0,0.0,0.0,0.0,0.0,0.0,0.0,0.0,0.0,0.0,0.0,0.0,0.0,0.0,0.0,0.0,0.0,-4.7002,-4.8679,-4.9985,-5.1895,-5.4438,-5.5591,-5.5839,-5.5196,-5.5866,-5.4986,0.0,0.0,0.0,0.0,0.0,0.0,0.0,0.0,0.0,0.0,0.0,0.0,0.0,0.0,0.0,0.0,0.0,0.0,0.0,0.0,0.0,0.0,0.0,0.0,0.0,0.0,0.0,0.0,0.0,0.0,0.0,0.0,0.0,0.0,0.0,0.0,0.0,0.0,0.0,0.0,0.0,0.0,-5.8995,-5.9467,0.0,0.0,0.0,-6.1359,-6.179,0.0,0.0,0.0,0.0,0.0,0.0,0.0,0.0,0.0,0.0,0.0,0.0,0.0,0.0,0.0,0.0,0.0,0.0,0.0,0.0,0.0,0.0,0.0,0.0,0.0,0.0,0.0,0.0,0.0,0.0,0.0,0.0,0.0,0.0,0.0,0.0,0.0,0.0,0.0,0.0,0.0,0.0,0.0,0.0,0.0,0.0,0.0,0.0,0.0,0.0,0.0,0.0,0.0,0.0,0.0,0.0,0.0,-4.9652,-5.0548,-5.2107,-5.4326,-5.5168,-5.5211,-5.4533,-5.5357,0.0,0.0,0.0,0.0,0.0,0.0,0.0,0.0,0.0,0.0,0.0,0.0,0.0,0.0,0.0,0.0,0.0,0.0,0.0,0.0,0.0,0.0,0.0,0.0,0.0,0.0,0.0,-5.2016,0.0,0.0,0.0,0.0,0.0,0.0,0.0,0.0,0.0,0.0,0.0,0.0,0.0,0.0,-5.9817,-6.0054,-6.0795,-6.1566,0.0,0.0,-6.3427,-6.4013,-6.3564,-6.312,0.0,0.0,0.0,0.0,0.0,0.0,0.0,0.0,0.0,0.0,0.0,0.0,0.0,0.0,0.0,0.0,0.0,0.0,0.0,0.0,0.0,0.0,0.0,0.0,0.0,0.0,0.0,0.0,0.0,0.0,0.0,0.0,0.0,0.0,0.0,0.0,0.0,0.0,0.0,0.0,0.0,0.0,0.0,0.0,0.0,0.0,0.0,0.0,0.0,0.0,0.0,0.0,0.0,0.0,-4.7865,-4.9574,-5.0899,-5.2479,-5.4326,-5.4699,-5.4742,-5.4496,-5.4675,-5.4098,0.0,0.0,0.0,0.0,0.0,0.0,0.0,0.0,0.0,0.0,0.0,0.0,0.0,0.0,0.0,0.0,0.0,0.0,0.0,0.0,0.0,0.0,0.0,0.0,0.0,0.0,0.0,0.0,0.0,0.0,0.0,0.0,0.0,0.0,0.0,0.0,0.0,0.0,0.0,0.0,0.0,-6.1803,-6.2633,-6.3445,-6.3943,0.0,-6.4099,-6.4138,-6.4211,-6.4096,-6.4021,-6.4021,0.0,0.0,0.0,0.0,0.0,0.0,0.0,0.0,0.0,0.0,0.0,0.0,0.0,0.0,0.0,0.0,0.0,0.0,0.0,0.0,0.0,0.0,0.0,0.0,0.0,0.0,0.0,0.0,0.0,0.0,0.0,0.0,0.0,0.0,0.0,0.0,0.0,0.0,0.0,0.0,0.0,0.0,0.0,0.0,0.0,0.0,0.0,0.0,0.0,0.0,0.0,0.0,0.0,-4.8159,-5.0288,-5.0859,-5.1961,-5.3592,-5.4274,-5.4274,-5.3729,-5.4338,-5.4243,0.0,0.0,0.0,0.0,0.0,0.0,0.0,0.0,0.0,0.0,0.0,0.0,0.0,0.0,0.0,0.0,0.0,0.0,0.0,0.0,0.0,0.0,0.0,0.0,0.0,0.0,0.0,0.0,-5.6755,-5.7746,-5.8067,0.0,0.0,0.0,0.0,0.0,0.0,0.0,0.0,0.0,0.0,-6.2796,-6.3658,-6.4555,0.0,0.0,-6.5454,-6.5787,-6.58,-6.5316,-6.4957,-6.4952,-6.4246,0.0,0.0,0.0,0.0,0.0,0.0,0.0,0.0,0.0,0.0,0.0,0.0,0.0,0.0,0.0,0.0,0.0,0.0,0.0,0.0,0.0,0.0,0.0,0.0,0.0,0.0,0.0,0.0,0.0,0.0,0.0,0.0,0.0,0.0,0.0,0.0,0.0,0.0,0.0,0.0,0.0,0.0,0.0,0.0,0.0,0.0,0.0,0.0,0.0,0.0,0.0,0.0,-4.882,-5.0765,-5.1059,-5.183,-5.3188,-5.3775,-5.3775,-5.3261,-5.3907,-5.4072,0.0,0.0,0.0,0.0,0.0,0.0,0.0,0.0,0.0,0.0,0.0,0.0,0.0,0.0,0.0,0.0,0.0,0.0,0.0,0.0,0.0,0.0,0.0,0.0,0.0,0.0,0.0,0.0,-5.88,-5.9957,-6.0252,0.0,0.0,0.0,0.0,0.0,0.0,0.0,0.0,0.0,0.0,-6.3981,-6.4607,-6.5426,-6.5969,-6.5915,-6.6412,-6.679,-6.6805,-6.6283,-6.5886,-6.5886,0.0,0.0,0.0,0.0,0.0,0.0,0.0,0.0,0.0,0.0,0.0,0.0,0.0,0.0,0.0,0.0,0.0,0.0,0.0,0.0,0.0,0.0,0.0,0.0,0.0,0.0,0.0,0.0,0.0,0.0,-4.2094,0.0,0.0,0.0,0.0,0.0,0.0,0.0,0.0,0.0,0.0,0.0,0.0,0.0,0.0,0.0,0.0,0.0,0.0,0.0,0.0,0.0,0.0,-4.9921,-5.0802,-5.1536,-5.238,-5.3167,-5.3203,-5.3203,-5.3203,-5.3293,-5.338,-5.3501,0.0,0.0,0.0,0.0,0.0,0.0,0.0,0.0,0.0,0.0,0.0,0.0,0.0,0.0,0.0,0.0,0.0,0.0,0.0,0.0,0.0,0.0,0.0,0.0,0.0,0.0,-5.8987,-6.0521,-6.1892,0.0,0.0,0.0,0.0,0.0,0.0,0.0,0.0,0.0,0.0,-6.4999,-6.5544,-6.5583,-6.6328,-6.6836,-6.6833,-6.6818,-6.6798,-6.6795,-6.6769,-6.6783,0.0,0.0,0.0,0.0,0.0,0.0,0.0,0.0,0.0,0.0,0.0,0.0,0.0,0.0,0.0,0.0,0.0,0.0,0.0,0.0,0.0,0.0,0.0,0.0,0.0,0.0,0.0,-4.224,-4.2085,0.0,0.0,0.0,0.0,0.0,0.0,0.0,0.0,0.0,0.0,0.0,-4.5939,-4.6518,0.0,0.0,0.0,0.0,0.0,0.0,0.0,0.0,0.0,0.0,0.0,0.0,-5.0191,-5.1536,-5.1867,-5.238,-5.3167,-5.3203,-5.3203,-5.3203,-5.3256,-5.344,-5.3678,0.0,0.0,0.0,0.0,0.0,0.0,0.0,0.0,0.0,0.0,0.0,0.0,0.0,0.0,0.0,0.0,0.0,0.0,0.0,0.0,0.0,0.0,0.0,0.0,0.0,-6.0144,0.0,0.0,0.0,0.0,0.0,0.0,0.0,0.0,0.0,0.0,0.0,-6.4526,-6.5073,-6.5423,-6.5812,-6.6398,-6.6713,-6.6911,0.0,0.0,0.0,0.0,0.0,0.0,0.0,0.0,0.0,0.0,0.0,0.0,0.0,0.0,-6.7252,-6.5956,-6.6419,-6.7242,-6.809,0.0,0.0,0.0,0.0,0.0,0.0,0.0,0.0,0.0,0.0,0.0,0.0,0.0,0.0,-4.2868,0.0,-4.2781,0.0,0.0,0.0,0.0,0.0,0.0,0.0,0.0,-4.5855,-4.6629,-4.7121,-4.7773,-4.8367,0.0,-4.8976,-4.814,0.0,0.0,0.0,0.0,0.0,0.0,0.0,0.0,-5.0769,-5.1878,-5.2249,-5.2821,-5.3592,-5.3628,-5.3628,-5.3628,-5.3403,-5.3588,-5.4086,-5.4164,-5.4485,0.0,0.0,0.0,0.0,0.0,0.0,0.0,0.0,0.0,0.0,0.0,0.0,0.0,0.0,0.0,0.0,0.0,0.0,0.0,0.0,0.0,0.0,0.0,-6.1795,0.0,0.0,0.0,0.0,0.0,0.0,0.0,0.0,0.0,-6.4866,-6.5022,-6.5373,-6.5922,-6.5998,-6.6232,-6.6781,0.0,0.0,0.0,0.0,0.0,0.0,0.0,-6.7768,-6.7766,-6.7768,-6.7965,-6.8472,-6.9015,-6.9401,-6.9394,0.0,0.0,-6.775,-6.7982,-6.8733,-6.9876,-7.007,-7.019,-7.0798,-7.1262,-7.1589,0.0,0.0,0.0,0.0,0.0,0.0,0.0,0.0,-4.2656,-4.3202,0.0,-4.3457,0.0,0.0,0.0,0.0,0.0,-4.5212,0.0,0.0,-4.7447,-4.8178,-4.8205,-4.854,-4.867,-4.8635,-4.8962,-4.9089,-4.9043,-4.9447,0.0,0.0,0.0,0.0,0.0,0.0,-5.1825,-5.1898,-5.2794,-5.3607,-5.4399,-5.4436,-5.4436,-5.4436,-5.3771,-5.3838,-5.4663,-5.4939,-5.5468,-5.6309,-5.6612,0.0,0.0,0.0,0.0,0.0,0.0,0.0,0.0,0.0,0.0,0.0,0.0,0.0,0.0,0.0,0.0,0.0,0.0,0.0,0.0,-6.3418,0.0,0.0,0.0,0.0,0.0,0.0,0.0,0.0,0.0,0.0,-6.587,-6.6334,-6.68,-6.677,0.0,0.0,0.0,0.0,-6.7166,-6.7996,-6.8158,-6.8435,-6.9258,-6.9375,-6.9375,-6.9374,0.0,0.0,-6.9453,-6.9492,-6.953,-6.9491,-6.9601,-6.9503,-6.9501,-6.9471,-6.9938,-7.1521,-7.1899,-7.2426,-7.3826,-7.4001,-7.4092,-4.5732,0.0,0.0,0.0,0.0,-4.4976,-4.5152,-4.5293,-4.558,-4.562,-4.5409,-4.5296,0.0,0.0,0.0,0.0,0.0,0.0,-4.7447,-4.7517,-4.9013,-4.9743,-4.9778,-5.0941,-5.1492,-5.1521,-5.1654,-5.1821,-5.1903,-5.2183,-5.1363,-4.9578,0.0,0.0,0.0,0.0,-5.2076,-5.3302,-5.3727,-5.4305,-5.5133,-5.52,-5.5244,-5.5244,-5.5067,-5.5095,-5.5496,-5.5586,-5.5825,-5.6229,-5.6405,0.0,0.0,0.0,0.0,0.0,0.0,0.0,0.0,0.0,0.0,0.0,0.0,0.0,0.0,0.0,0.0,0.0,0.0,0.0,-6.3064,-6.4005,-6.4532,0.0,0.0,0.0,0.0,0.0,0.0,0.0,0.0,0.0,-6.8241,-6.74,-6.6787,0.0,0.0,-6.7032,-6.762,-6.7737,-6.8054,-6.8886,-6.9007,0.0,0.0,-6.9407,-6.9408,-6.9409,-6.9916,-7.0345,-7.0344,-7.0854,-7.1246,-7.1246,-7.1757,-7.2187,-7.2108,-7.1579,-7.181,-7.3263,-7.3714,-7.3802,-7.426,-7.4795,-7.522,-4.8327,-4.7341,-4.6578,-4.6371,-4.6526,-4.6681,-4.68,-4.6982,-4.7255,-4.7005,-4.6399,-4.6436,-4.6573,-4.6747,-4.6172,0.0,0.0,0.0,-4.8681,-4.8771,-5.0322,-5.1043,-5.1171,-5.2131,-5.2612,-5.2606,-5.2753,-5.2869,-5.2956,-5.3155,-5.2427,-5.089,0.0,0.0,-5.2426,-5.2557,-5.3155,-5.4262,-5.4474,-5.4953,-5.5871,-5.5984,-5.6051,-5.6051,-5.5757,-5.5824,-5.6242,-5.6329,-5.6546,-5.7068,-5.7232,-5.7615,0.0,0.0,0.0,0.0,0.0,0.0,0.0,0.0,0.0,0.0,0.0,-5.9946,-6.079,0.0,0.0,0.0,-6.277,-6.3502,-6.382,-6.4968,0.0,0.0,0.0,0.0,0.0,0.0,0.0,-6.9137,-6.9227,-6.9256,-6.928,-6.8405,-6.7805,-6.7835,-6.7841,-6.8036,-6.8552,0.0,-6.8945,-6.9811,-6.993,-7.005,-7.0372,-7.0448,-7.0407,-7.0446,-7.0837,-7.1188,-7.1227,-7.1661,-7.2092,-7.2484,-7.2959,-7.3509,-7.4212,-7.3867,-7.3739,-7.4809,-7.5293,-7.5538,-7.5854,-7.6593,-7.7182,-5.0138,-5.0219,-4.8233,-4.74,-4.7458,-4.7617,-4.7773,-4.7989,-4.8112,-4.7827,-4.733,-4.733,-4.7418,-4.7534,-4.7534,0.0,-4.7597,-4.9031,-4.9736,-4.9919,-5.139,-5.2169,-5.2291,-5.2542,-5.2666,-5.2666,-5.2785,-5.2874,-5.2909,-5.313,-5.3274,-5.3302,-5.3831,-5.4135,-5.421,-5.4403,-5.4675,-5.4834,-5.5003,-5.5593,-5.6653,-5.6804,-5.6873,-5.6873,-5.6161,-5.6206,-5.7052,-5.7111,-5.7486,-5.8356,-5.8551,-5.8714,-5.8809,0.0,0.0,0.0,0.0,0.0,0.0,0.0,0.0,0.0,0.0,0.0,0.0,0.0,0.0,-6.2223,-6.4339,0.0,-6.473,-6.6192,0.0,0.0,0.0,-6.8696,-6.8966,-6.8985,-6.9049,-6.9259,0.0,0.0,-6.9451,-6.9501,-6.9494,-6.9603,-6.9497,-6.9426,-6.9483,-6.9486,-6.9798,-7.0654,-7.081,-7.1089,-7.1687,-7.1839,-7.1834,-7.1834,-7.1987,-7.1951,-7.1951,-7.1958,-7.2317,-7.3098,-7.3342,-7.3892,-7.5573,-7.577,-7.5972,-7.6012,-7.662,-7.7416,-7.8136,-7.8846,-7.9315,-5.2696,-5.2356,-5.1442,-5.0624,-4.9858,-4.989,-5.0086,-5.0375,-5.0373,-5.0338,-5.02,-5.0166,-5.0232,-5.0229,-5.0419,-5.0481,-5.0515,-5.098,-5.1179,-5.1309,-5.2323,-5.2863,-5.2929,-5.3635,-5.4039,-5.4039,-5.4195,-5.4287,-5.4287,-5.447,-5.4615,-5.4699,-5.4998,-5.4719,-5.3905,-5.4054,-5.4522,-5.5225,-5.558,-5.6273,-5.7315,-5.7399,-5.747,-5.7564,-5.7381,-5.7451,-5.7749,-5.7876,-5.8017,-5.8223,-5.8393,-5.8804,-5.9568,-5.9711,0.0,0.0,0.0,0.0,0.0,0.0,0.0,0.0,0.0,-6.2147,-6.2353,0.0,-6.2803,0.0,-6.5335,-6.6457,-6.6279,-6.7257,0.0,0.0,-6.827,-6.8757,-6.9517,-6.9651,-6.9969,-7.0747,-7.0843,-7.0934,-7.1099,-7.1114,-7.1148,-7.1182,-7.0112,-6.9561,-7.0192,-7.0309,-7.0622,-7.1402,-7.1597,-7.1679,-7.1894,-7.1984,-7.1987,-7.1987,-7.1987,-7.1987,-7.1987,-7.199,-7.2266,-7.3164,-7.383,-7.4613,-7.5668,-7.6339,-7.705,-7.7607,-7.7968,-7.8352,-7.9191,-7.9561,-7.9658,-5.3694,-5.3531,-5.3317,-5.2942,-5.2463,-5.1495,-5.1229,-5.1428,-5.1495,-5.1293,-5.099,-5.0957,-5.1023,-5.112,-5.1217,-5.1348,-5.1412,-5.1781,-5.2047,-5.2145,-5.2957,-5.3633,-5.4136,-5.4679,-5.5088,-5.5529,-5.528,-5.5139,-5.5136,-5.4981,-5.493,-5.5022,-5.5174,-5.4992,-5.4465,-5.4709,-5.5169,-5.5812,-5.6233,-5.6779,-5.7412,-5.7461,-5.7559,-5.7679,-5.7715,-5.7726,-5.7834,-5.795,-5.8166,-5.8534,-5.8731,-5.9257,-6.0167,-6.0358,-6.088,0.0,0.0,0.0,0.0,0.0,0.0,0.0,0.0,0.0,0.0,0.0,-6.3809,-6.5023,-6.6399,-6.7263,-6.7271,-6.815,-6.8708,-6.8675,-6.9131,-6.9651,-7.0182,-7.0298,-7.059,-7.1214,-7.1317,-7.1436,-7.1517,-7.1589,-7.1638,-7.1718,-7.0952,-7.0575,-7.1053,-7.1183,-7.1347,-7.1815,-7.1889,-7.1897,-7.1909,-7.192,-7.1966,-7.1966,-7.1966,-7.1966,-7.1966,-7.1966,-7.2356,-7.3563,-7.419,-7.4935,-7.6113,-7.7059,-7.7966,-7.8762,-7.9283,-7.9686,-8.0151,-8.0568,-8.0827,-5.4064,-5.4339,-5.4349,-5.451,-5.4678,-5.2649,-5.1926,-5.2066,-5.2066,-5.1664,-5.0961,-5.0961,-5.1061,-5.1227,-5.1227,-5.1326,-5.1458,-5.2131,-5.2536,-5.2837,-5.3514,-5.4428,-5.5478,-5.5478,-5.5953,-5.6703,-5.6048,-5.5738,-5.5736,-5.5309,-5.5092,-5.5088,-5.5212,-5.5331,-5.5449,-5.5901,-5.617,-5.6391,-5.676,-5.6984,-5.7112,-5.7239,-5.7388,-5.751,-5.7534,-5.7607,-5.7741,-5.7861,-5.8299,-5.9103,-5.9355,-5.9863,-6.0659,-6.0995,-6.1619,0.0,-6.2971,0.0,0.0,0.0,0.0,0.0,0.0,0.0,0.0,-6.4275,-6.5009,-6.6494,-6.7447,-6.7959,-6.8018,-6.8846,-6.939,-6.9444,-7.0172,-7.0708,-7.0758,-7.0829,-7.0925,-7.1056,-7.1178,-7.1291,-7.1513,-7.1581,-7.1693,-7.1994,-7.2065,-7.2086,-7.215,-7.1965,-7.1867,-7.1993,-7.2037,-7.2149,-7.2115,-7.2006,-7.1893,-7.1893,-7.1893,-7.1889,-7.1893,-7.201,-7.2596,-7.4078,-7.4589,-7.5257,-7.6794,-7.7774,-7.8647,-7.9491,-8.0282,-8.092,-8.1171,-8.1638,-8.2254,-5.5102,-5.5157,-5.496,-5.4924,-5.4903,-5.3879,-5.3493,-5.3571,-5.3606,-5.3171,-5.2501,-5.2501,-5.2536,-5.2536,-5.257,-5.2537,-5.2604,-5.2909,-5.3382,-5.3989,-5.4398,-5.5043,-5.586,-5.5996,-5.6234,-5.6538,-5.6401,-5.6399,-5.6564,-5.6458,-5.6455,-5.6581,-5.6614,-5.6709,-5.6868,0.0,0.0,0.0,-5.641,-5.6573,-5.6733,-5.6829,-5.6959,-5.7112,-5.7213,0.0,-5.8358,-5.8518,-5.8993,-5.9759,-5.9882,0.0,0.0,0.0,0.0,0.0,0.0,0.0,0.0,0.0,0.0,0.0,-6.5874,-6.5642,-6.5502,-6.6255,-6.6947,-6.7368,-6.8185,-6.8697,-6.8714,-6.9493,-7.0061,-7.0129,-7.0342,-7.0499,-7.0616,-7.0708,-7.0758,-7.0843,-7.0925,-7.13,-7.2016,-7.2275,-7.2644,-7.3287,-7.3558,-7.3652,-7.3657,-7.2553,-7.2069,-7.2614,-7.2852,-7.288,-7.288,-7.2369,-7.2076,-7.1889,-7.1889,-7.1928,-7.2002,-7.2552,-7.3215,-7.4347,-7.5053,-7.5829,-7.6852,-7.7714,-7.8655,-7.9541,-8.0416,-8.122,-8.1909,-8.2187,-8.2303,-5.504,0.0,-5.5134,-5.5092,0.0,-5.4782,-5.443,-5.4091,-5.3622,-5.3003,-5.234,-5.234,-5.2412,-5.2483,-5.2589,-5.2661,-5.2764,-5.3341,-5.3813,-5.4183,-5.4695,-5.5478,-5.6399,-5.6504,-5.6848,-5.7467,-5.709,-5.6918,-5.702,-5.6811,-5.6672,-5.6771,-5.6869,-5.6999,-5.7161,-5.7257,-5.7188,-5.6988,-5.722,-5.742,-5.756,-5.7664,-5.7801,-5.7936,0.0,0.0,0.0,0.0,0.0,0.0,0.0,0.0,0.0,0.0,0.0,-6.4708,-6.498,-6.5334,-6.5861,-6.604,-6.6178,-6.6359,-6.6799,-6.6861,-6.6365,-6.7258,-6.7903,-6.8051,-6.8865,-6.9413,-6.9467,-6.9883,-7.0355,-7.0788,-7.0861,-7.1065,-7.1536,-7.1729,-7.1788,-7.185,-7.1972,-7.2308,-7.2789,-7.2932,-7.3225,-7.3706,-7.385,-7.3943,-7.3937,-7.3398,-7.3099,-7.3511,-7.3678,-7.3678,-7.3678,-7.3385,-7.3064,-7.3064,-7.3064,-7.3064,-7.3103,-7.3453,-7.4038,-7.4856,-7.5402,-7.5953,-7.6827,-7.7969,-7.9042,-7.9652,-8.0692,-8.1656,-8.2164,-8.2257,-8.2303,-5.4666,-5.4948,-5.5031,-5.5155,-5.5287,-5.5287,-5.4899,-5.4124,0.0,0.0,0.0,-5.1651,-5.1762,-5.1944,-5.2056,-5.2338,-5.2682,-5.3459,-5.3964,-5.4264,-5.4938,-5.5825,-5.6788,-5.6894,-5.7378,-5.828,-5.7702,-5.7429,-5.743,-5.7056,-5.6849,-5.6883,-5.7018,-5.7185,-5.7315,-5.7545,-5.7802,-5.8055,-5.8144,-5.8278,-5.8361,-5.8537,-5.8681,-5.8759,-5.8964,-5.9155,-5.9299,-5.9465,-5.9926,-6.082,-6.1172,-6.195,-6.3384,-6.3736,-6.4343,-6.5244,-6.5437,-6.5716,-6.6088,-6.6174,-6.6333,-6.6719,-6.7617,-6.7883,-6.7313,-6.8114,-6.8706,-6.8884,-6.9681,-7.027,-7.0327,-7.044,-7.078,-7.1482,-7.1539,-7.1843,-7.2545,-7.2785,-7.2775,-7.2885,-7.2974,-7.33,-7.349,-7.363,-7.3817,-7.4076,-7.4281,-7.4176,-7.4265,-7.4334,-7.4252,-7.4364,-7.4452,-7.4483,-7.4491,-7.4265,-7.4265,-7.4116,-7.4148,-7.4265,-7.4265,-7.4381,-7.477,-7.5361,-7.5673,-7.62,-7.7,-7.8365,-7.9487,-7.9756,-8.107,-8.2192,-8.2195,-8.2227,-8.2287,-5.4727,-5.4274,-5.4655,-5.4854,-5.4896,-5.4896,-5.4448,-5.3719,-5.2734,-5.1891,-5.121,-5.121,-5.1355,-5.1573,-5.161,-5.2048,-5.2758,-5.3074,-5.3911,0.0,-5.5572,-5.6229,-5.6972,-5.7122,-5.7413,-5.7735,-5.778,-5.7927,-5.8037,-5.8182,-5.8218,-5.8218,-5.8253,-5.8323,-5.8565,-5.8872,-5.9074,-5.9072,-5.8269,-5.7881,-5.7881,-5.8219,-5.8367,-5.8361,-5.8543,-5.8915,-5.9591,-5.9888,-6.0382,-6.12,-6.2026,-6.2637,-6.2988,-6.3816,-6.4746,-6.5613,-6.5934,-6.6506,-6.7363,-6.7531,-6.7956,-6.8849,-6.9753,-6.9805,-6.884,-6.9506,-7.0104,-7.0298,-7.096,-7.1589,-7.1694,-7.1697,-7.1779,-7.2128,-7.2185,-7.2339,-7.2718,-7.2811,-7.2848,-7.2848,-7.2872,-7.3335,-7.3997,-7.4289,-7.4725,-7.5428,-7.5691,-7.576,-7.5787,-7.5437,-7.5177,-7.513,-7.5178,-7.5244,-7.5283,-7.4619,-7.4472,-7.4131,-7.4287,-7.4434,-7.4442,-7.4947,-7.5461,-7.55,-7.6263,-7.6949,-7.7781,-7.8715,-7.9647,-8.0337,-8.139,-8.2089,-8.2089,-8.2157,-8.2237,-5.4429,-5.426,-5.41,-5.406,-5.406,-5.4028,-5.3649,-5.2986,-5.2521,-5.1965,-5.1334,-5.0987,-5.1089,-5.152,-5.1635,-5.2139,-5.2896,-5.3447,-5.4195,-5.5005,-5.5554,-5.6117,-5.668,-5.6757,-5.711,-5.7635,-5.7892,-5.8278,-5.8728,-5.9025,-5.897,-5.8601,-5.8445,-5.8455,-5.8631,-5.8806,-5.8875,-5.884,-5.8791,-5.8803,-5.8768,-5.8987,-5.9179,-5.9272,-5.939,-5.9901,-6.0803,-6.096,-6.1437,-6.2246,-6.2694,-6.3238,-6.3908,-6.4357,-6.5111,-6.6076,-6.678,-6.7381,-6.7952,-6.8669,-6.9292,-6.9714,-7.0259,-7.0395,-6.9868,-7.0385,-7.0798,-7.0983,-7.1389,-7.1644,-7.1748,-7.182,-7.2116,-7.2675,-7.2814,-7.3065,-7.3583,-7.374,-7.3837,-7.3858,-7.3992,-7.4236,-7.4725,-7.4975,-7.5414,-7.6277,-7.6886,-7.7323,-7.7352,-7.72,-7.6687,-7.6061,-7.6245,-7.6549,-7.6588,-7.6725,-7.6503,-7.6077,-7.603,-7.6051,-7.6051,-7.6497,-7.6866,-7.7332,-7.7787,-7.8146,-7.8622,-7.9397,-8.0103,-8.0543,-8.1361,-8.1912,-8.2046,-8.2101,-8.2162,-5.4541,-5.4473,-5.3908,-5.3533,-5.3421,-5.3421,-5.3097,-5.2629,-5.2473,-5.2167,-5.1732,-5.1041,-5.112,-5.1678,-5.1837,-5.234,-5.3094,-5.3842,-5.4455,-5.4972,-5.5499,-5.6059,-5.6545,-5.6625,-5.704,-5.7701,-5.7965,-5.8455,-5.9033,-5.9382,-5.9348,-5.8854,-5.8656,-5.8645,-5.8787,-5.8895,-5.8931,-5.8933,-5.953,-5.9803,-5.9731,-6.0103,-6.0338,-6.0504,-6.0633,-6.1043,-6.1735,-6.1902,-6.2245,-6.2903,-6.318,-6.3729,-6.4582,-6.4827,-6.5448,-6.6515,-6.7312,-6.7957,-6.845,-6.9522,-7.0226,-7.0254,-7.0625,-7.0836,-7.0981,-7.1209,-7.1391,-7.1441,-7.1773,-7.1981,-7.2066,-7.2191,-7.2553,-7.3237,-7.3567,-7.3973,-7.4582,-7.4956,-7.5216,-7.5338,-7.5425,-7.5586,-7.5685,-7.5855,-7.6249,-7.6985,-7.7773,-7.8256,-7.8327,-7.8375,-7.7885,-7.7288,-7.737,-7.7692,-7.7859,-7.8233,-7.831,-7.7897,-7.7792,-7.7751,-7.7814,-7.7937,-7.8231,-7.8684,-7.8901,-7.9028,-7.9299,-7.9869,-8.0464,-8.0825,-8.1426,-8.1848,-8.1968,-8.2039,-8.2117,-5.5566,-5.4992,-5.4504,-5.3939,-5.344,-5.3409,-5.3377,-5.3253,-5.2691,-5.2391,-5.232,-5.1528,-5.1528,-5.1922,-5.2005,-5.2558,-5.3556,-5.3734,-5.4438,-5.5569,-5.594,-5.6411,-5.7044,-5.7278,-5.7553,-5.7901,-5.8109,-5.8339,-5.8675,-5.8852,-5.8993,-5.9197,-5.952,-5.9612,-5.9688,-5.999,-6.0177,-6.0211,-6.0469,-6.0451,-6.022,-6.1155,-6.1709,-6.1743,-6.1708,-6.1812,-6.195,-6.2185,-6.2387,-6.2525,-6.3456,-6.4076,-6.425,-6.498,-6.5889,-6.6868,-6.7203,-6.7775,-6.8934,-6.9975,-7.0592,-7.0777,-7.1457,-7.2007,-7.2275,-7.2361,-7.2226,-7.2108,-7.2715,-7.3204,-7.3379,-7.3504,-7.3701,-7.3947,-7.4581,-7.5116,-7.5324,-7.608,-7.6624,-7.6624,-7.6602,-7.6982,-7.6781,-7.7024,-7.7377,-7.7646,-7.8006,-7.8306,-7.8376,-7.8394,-7.8407,-7.8196,-7.8323,-7.8421,-7.8455,-7.845,-7.8643,-7.857,-7.8521,-7.8549,-7.8604,-7.8631,-7.8708,-7.9134,-7.9005,-7.934,-7.979,-8.0213,-8.0644,-8.1193,-8.1579,-8.1747,-8.1878,-8.196,-8.2013,-5.5703,-5.541,-5.4808,-5.4421,-5.4173,-5.4142,-5.4142,-5.4111,-5.3895,-5.3771,-5.374,-5.3461,-5.2953,-5.2229,-5.2229,-5.2921,-5.41,-5.4132,-5.4767,-5.5947,-5.6066,-5.6399,-5.6979,-5.7066,-5.7388,-5.7893,-5.8109,-5.8592,-5.9141,-5.9184,-5.9243,-5.9381,-5.9179,-5.9145,-5.9455,-5.9616,-5.9732,-5.9881,-6.0478,-6.0812,-6.0839,-6.1035,-6.1323,-6.1535,-6.1535,-6.1883,-6.2475,-6.2683,-6.2961,-6.3415,-6.3938,-6.446,-6.5122,-6.5542,-6.6241,-6.7291,-6.8021,-6.8926,-6.9973,-7.069,-7.1241,-7.1671,-7.2289,-7.2807,-7.3373,-7.3532,-7.3537,-7.345,-7.3674,-7.3875,-7.3993,-7.4508,-7.4911,-7.499,-7.538,-7.5694,-7.5745,-7.6169,-7.6492,-7.6528,-7.6686,-7.6803,-7.7002,-7.7581,-7.8083,-7.8364,-7.8749,-7.9113,-7.9286,-7.9343,-7.9362,-7.94,-7.9493,-7.9347,-7.9204,-7.956,-7.9582,-7.9252,-7.9146,-7.9231,-7.9208,-7.9283,-7.9413,-7.9914,-7.9972,-8.013,-8.0607,-8.0767,-8.1053,-8.1516,-8.1646,-8.1716,-8.1786,-8.1813,-8.1898,-5.5944,-5.5869,-5.5253,-5.4884,-5.4683,-5.4683,-5.4683,-5.4683,-5.4683,-5.4683,-5.4683,-5.4683,-5.4067,-5.3157,-5.3121,-5.3726,-5.4594,-5.4688,-5.5243,-5.6154,-5.6185,-5.6618,-5.728,-5.7433,-5.7873,-5.8536,-5.8889,-5.9241,-5.9766,-5.9751,-5.9661,-5.9568,-5.9234,-5.921,-5.9496,-5.9577,-5.9664,-5.9891,-6.0671,-6.1104,-6.1161,-6.1104,-6.1214,-6.1693,-6.1765,-6.2186,-6.3027,-6.3168,-6.3447,-6.4074,-6.4353,-6.488,-6.5653,-6.5969,-6.6638,-6.7798,-6.8854,-6.9877,-7.0797,-7.117,-7.1729,-7.2515,-7.2922,-7.3338,-7.3873,-7.4079,-7.4206,-7.429,-7.4402,-7.4477,-7.4466,-7.505,-7.5467,-7.556,-7.5892,-7.6148,-7.6148,-7.6404,-7.6797,-7.6915,-7.7141,-7.7055,-7.7413,-7.8102,-7.8648,-7.8901,-7.9405,-7.9924,-8.003,-7.9996,-7.9996,-8.0093,-8.0266,-8.0237,-7.9853,-8.006,-8.0213,-8.0019,-7.9765,-7.98,-7.9795,-7.9879,-7.9966,-8.0334,-8.076,-8.0939,-8.0839,-8.103,-8.1354,-8.1414,-8.1591,-8.1685,-8.1652,-8.1726,-8.1776,-5.6506,-5.6577,-5.593,-5.5315,-5.4714,-5.4745,-5.4714,-5.4806,-5.4745,-5.4714,-5.4775,-5.4745,-5.4699,-5.4653,-5.4885,-5.5146,-5.5328,-5.5391,-5.5796,-5.6512,-5.6606,-5.7199,-5.8386,-5.8687,-5.9239,-5.9934,-6.017,-6.0213,-6.0042,-6.0432,-6.0299,-5.9728,-6.0032,-6.0247,-6.0266,-6.0403,-6.0628,-6.0613,-6.1011,-6.1324,-6.1365,-6.1535,-6.1947,-6.2646,-6.2867,-6.298,-6.3271,-6.3457,-6.371,-6.3927,-6.4731,-6.5329,-6.5435,-6.6207,-6.7266,-6.8363,-6.9318,-7.0275,-7.1091,-7.1479,-7.201,-7.2899,-7.325,-7.3456,-7.3771,-7.3874,-7.4007,-7.4151,-7.4833,-7.5124,-7.4945,-7.5228,-7.5403,-7.5556,-7.6158,-7.6519,-7.6593,-7.7282,-7.7914,-7.8081,-7.8133,-7.8219,-7.8628,-7.8929,-7.9002,-7.9208,-7.9416,-7.9668,-7.9857,-7.9841,-7.9961,-8.0141,-8.0526,-8.0878,-8.0311,-8.0581,-8.0523,-8.0429,-8.0526,-8.0411,-8.0411,-8.0467,-8.0598,-8.0673,-8.0956,-8.1065,-8.0903,-8.1036,-8.1347,-8.1533,-8.1632,-8.1684,-8.1862,-8.1713,-8.1702,-5.6567,-5.681,-5.6532,-5.6238,-5.6053,-5.6023,-5.6023,-5.6053,-5.6023,-5.6023,-5.6023,-5.6023,-5.6269,-5.6669,-5.6765,-5.6367,-5.5689,-5.6091,-5.6743,-5.749,-5.8004,-5.8518,-5.9118,-5.9246,-5.9516,-5.9977,-6.0105,-6.0297,-6.0531,-6.0793,-6.0578,-6.0045,-6.0231,-6.0258,-6.0044,-6.0239,-6.0378,-6.0506,-6.0675,-6.0802,-6.0969,-6.1011,-6.1383,-6.1951,-6.242,-6.2693,-6.2885,-6.3559,-6.4023,-6.4212,-6.501,-6.5748,-6.6569,-6.7452,-6.8234,-6.8844,-6.9767,-7.0514,-7.0979,-7.1621,-7.2334,-7.3188,-7.3475,-7.3833,-7.4369,-7.4654,-7.4864,-7.5038,-7.5356,-7.5595,-7.568,-7.5958,-7.6209,-7.6344,-7.6711,-7.7008,-7.7142,-7.7548,-7.79,-7.8023,-7.8221,-7.8414,-7.8634,-7.8708,-7.889,-7.9079,-7.9579,-8.0026,-8.0297,-8.0707,-8.1042,-8.1202,-8.1452,-8.1589,-8.1415,-8.148,-8.1583,-8.1583,-8.1588,-8.1571,-8.1575,-8.1545,-8.1644,-8.1591,-8.163,-8.1748,-8.1841,-8.2075,-8.2243,-8.2394,-8.2429,-8.2003,-8.2264,-8.1852,-8.1654,-5.6372,-5.6519,-5.6567,-5.6567,-5.6567,-5.6616,-5.6787,-5.6972,-5.71,-5.7272,-5.7426,-5.7457,-5.7703,-5.8054,-5.8116,-5.7623,-5.6792,-5.7241,-5.7752,-5.8332,-5.8876,-5.9235,-5.957,-5.9669,-5.9942,-6.0389,-6.0617,-6.0815,-6.0916,-6.1153,-6.0944,-6.0274,-6.0518,-6.0348,-5.9948,-6.0073,-6.0163,-6.0098,-6.0206,-6.041,-6.0538,-6.0778,-6.1122,-6.1492,-6.2115,-6.2636,-6.2832,-6.3781,-6.4352,-6.4649,-6.5421,-6.645,-6.7561,-6.8274,-6.8844,-6.9348,-6.9955,-7.0594,-7.1236,-7.1993,-7.2778,-7.352,-7.3852,-7.4249,-7.4748,-7.5042,-7.5225,-7.5298,-7.5406,-7.5585,-7.5867,-7.6174,-7.6475,-7.6708,-7.6993,-7.715,-7.715,-7.7335,-7.7634,-7.8005,-7.838,-7.8656,-7.8963,-7.9233,-7.946,-7.9508,-8.0163,-8.0554,-8.0806,-8.122,-8.1721,-8.1758,-8.1909,-8.2034,-8.2122,-8.2297,-8.2109,-8.208,-8.2051,-8.224,-8.2376,-8.2407,-8.2475,-8.2466,-8.2559,-8.271,-8.2931,-8.314,-8.3285,-8.3444,-8.2862,-8.2231,-8.2126,-8.1862,-8.1672,-5.6009,-5.6089,-5.5979,-5.6138,-5.6169,-5.6476,-5.6831,-5.737,-5.7629,-5.8035,-5.8385,-5.862,-5.8539,-5.8743,-5.8693,-5.8712,-5.8773,-5.8785,-5.8773,-5.8874,-5.8966,-5.9367,-5.9972,-6.0206,-6.0679,-6.1339,-6.2022,-6.1995,-6.1529,-6.1597,-6.1361,-6.0883,-6.0944,-6.0764,-6.006,-6.0302,-6.0116,-5.9786,-6.0075,-6.0229,-6.0207,-6.1034,-6.1491,-6.1644,-6.2387,-6.2894,-6.312,-6.4045,-6.4695,-6.5005,-6.6012,-6.7207,-6.8072,-6.8466,-6.8895,-6.9675,-6.9923,-7.0723,-7.1952,-7.2512,-7.3132,-7.3733,-7.4255,-7.4408,-7.4444,-7.4555,-7.4707,-7.4819,-7.4931,-7.5079,-7.5442,-7.5621,-7.594,-7.6518,-7.6821,-7.6915,-7.6951,-7.6911,-7.7258,-7.827,-7.8792,-7.9401,-8.0141,-8.0287,-8.0385,-8.0591,-8.0915,-8.1136,-8.1228,-8.1468,-8.1313,-8.1462,-8.2056,-8.2586,-8.2815,-8.2984,-8.2631,-8.2398,-8.2359,-8.2384,-8.2534,-8.2621,-8.2755,-8.2813,-8.3036,-8.3237,-8.343,-8.3655,-8.3697,-8.3637,-8.2971,-8.2583,-8.2386,-8.2207,-8.1638,-5.6193,-5.6345,-5.6516,-5.6616,-5.6677,-5.7183,-5.7568,-5.775,-5.7851,-5.8024,-5.8126,-5.8156,-5.843,-5.8796,-5.8857,-5.9344,-6.025,-6.025,-5.9949,-5.9665,-5.9963,-6.0517,-6.104,-6.1298,-6.1742,-6.2445,-6.2529,-6.2574,-6.2412,-6.209,-6.1621,-6.1327,-6.1392,-6.1153,-6.0516,-6.0764,-6.0821,-6.0876,-6.098,-6.1161,-6.1264,-6.1548,-6.1813,-6.2044,-6.2721,-6.3252,-6.3496,-6.4214,-6.49,-6.5399,-6.6316,-6.7155,-6.7954,-6.864,-6.9214,-6.9723,-7.0769,-7.1474,-7.2116,-7.2793,-7.3222,-7.3467,-7.3622,-7.3697,-7.3777,-7.4049,-7.4206,-7.4322,-7.4553,-7.4922,-7.5496,-7.5788,-7.6121,-7.6729,-7.6972,-7.7291,-7.7724,-7.8003,-7.8456,-7.8902,-7.9297,-7.9663,-7.994,-8.0198,-8.0548,-8.0798,-8.124,-8.1652,-8.1876,-8.2333,-8.279,-8.2902,-8.3228,-8.3284,-8.3518,-8.3564,-8.3311,-8.3051,-8.2943,-8.2758,-8.2834,-8.2935,-8.3075,-8.3263,-8.3497,-8.371,-8.3952,-8.4089,-8.4144,-8.4268,-8.4021,-8.3612,-8.3116,-8.2538,-8.1847,-5.6266,-5.6422,-5.6599,-5.6702,-5.6732,-5.7234,-5.7587,-5.785,-5.7902,-5.8157,-5.8503,-5.8775,-5.9078,-5.9471,-5.9743,-6.0264,-6.091,-6.091,-6.0705,-6.041,-6.0949,-6.1492,-6.1944,-6.231,-6.2571,-6.2999,-6.3151,-6.3194,-6.3192,-6.2586,-6.2123,-6.2045,-6.1877,-6.1549,-6.1011,-6.1185,-6.131,-6.1274,-6.1302,-6.1487,-6.1703,-6.1943,-6.2164,-6.2522,-6.3186,-6.3649,-6.3878,-6.433,-6.4862,-6.5655,-6.6686,-6.7638,-6.8239,-6.9135,-6.9889,-7.0419,-7.1116,-7.1925,-7.2359,-7.2892,-7.3211,-7.3211,-7.3252,-7.3334,-7.3409,-7.3827,-7.4192,-7.4232,-7.4672,-7.5191,-7.5736,-7.596,-7.645,-7.7262,-7.7307,-7.756,-7.8135,-7.8527,-7.895,-7.9301,-7.9679,-8.0056,-8.0534,-8.0772,-8.1053,-8.1346,-8.183,-8.2245,-8.2578,-8.3215,-8.3608,-8.4,-8.4261,-8.4307,-8.4336,-8.4187,-8.3926,-8.3779,-8.3639,-8.3423,-8.3366,-8.341,-8.3528,-8.37,-8.3904,-8.4077,-8.4268,-8.453,-8.467,-8.4822,-8.4739,-8.4193,-8.3463,-8.2574,-8.1947,-5.626,-5.626,-5.6343,-5.6314,-5.6367,-5.6699,-5.7215,-5.7713,-5.8047,-5.859,-5.9345,-5.994,-6.03,-6.0566,-6.0756,-6.0976,-6.1048,-6.0992,-6.1052,-6.1186,-6.1609,-6.1885,-6.2105,-6.2938,-6.3248,-6.3141,-6.3578,-6.3751,-6.3462,-6.2861,-6.2726,-6.2805,-6.2362,-6.1865,-6.1638,-6.1692,-6.1488,-6.1217,-6.1199,-6.1466,-6.1731,-6.226,-6.2676,-6.2987,-6.357,-6.4035,-6.4189,-6.4472,-6.4826,-6.5647,-6.7232,-6.8326,-6.8987,-6.9893,-7.0698,-7.1298,-7.1498,-7.2022,-7.2548,-7.2846,-7.2963,-7.3005,-7.3233,-7.3328,-7.3496,-7.4093,-7.4552,-7.4622,-7.5116,-7.5735,-7.61,-7.6251,-7.6846,-7.7877,-7.7954,-7.7865,-7.7912,-7.8423,-7.9216,-7.9899,-8.0182,-8.075,-8.1992,-8.2165,-8.2394,-8.2655,-8.2855,-8.2985,-8.3251,-8.3787,-8.4144,-8.4539,-8.4859,-8.4956,-8.4845,-8.4763,-8.4503,-8.4472,-8.4195,-8.3768,-8.3564,-8.3574,-8.3712,-8.3929,-8.4114,-8.4305,-8.4456,-8.4613,-8.4779,-8.4787,-8.4622,-8.4317,-8.3771,-8.2951,-8.2449,-5.6032,-5.6032,-5.6223,-5.6278,-5.642,-5.6884,-5.7397,-5.7827,-5.8323,-5.8811,-5.9359,-5.9948,-6.0215,-6.0244,-6.0422,-6.0662,-6.0962,-6.1051,-6.1404,-6.1759,-6.1934,-6.2154,-6.2509,-6.3351,-6.3762,-6.3634,-6.3379,-6.3244,-6.334,-6.2963,-6.292,-6.313,-6.286,-6.2656,-6.2556,-6.2365,-6.2294,-6.225,-6.2315,-6.2508,-6.2732,-6.3131,-6.3338,-6.3417,-6.3865,-6.4056,-6.4229,-6.4948,-6.5765,-6.649,-6.7416,-6.8498,-6.9465,-7.0435,-7.1159,-7.1525,-7.205,-7.2395,-7.2644,-7.2789,-7.2797,-7.2866,-7.3392,-7.3634,-7.3668,-7.4564,-7.503,-7.5142,-7.5435,-7.5909,-7.6496,-7.6747,-7.7433,-7.8701,-7.8852,-7.8828,-7.9099,-7.9834,-8.0529,-8.0898,-8.1667,-8.236,-8.2793,-8.3115,-8.3324,-8.3667,-8.3835,-8.3962,-8.4018,-8.44,-8.4796,-8.4859,-8.5107,-8.5244,-8.5306,-8.5226,-8.5176,-8.5149,-8.4689,-8.3938,-8.3653,-8.3413,-8.3574,-8.3822,-8.3929,-8.4061,-8.4254,-8.4406,-8.4541,-8.4708,-8.4681,-8.448,-8.4158,-8.3557,-8.3256,-5.6107,-5.6163,-5.6247,-5.636,-5.6446,-5.7052,-5.7454,-5.7741,-5.8263,-5.8668,-5.9043,-5.9626,-5.9918,-6.0005,-6.0268,-6.0471,-6.0673,-6.0702,-6.0906,-6.1228,-6.1524,-6.1909,-6.237,-6.3102,-6.3394,-6.3421,-6.3199,-6.3274,-6.329,-6.3019,-6.304,-6.3348,-6.3078,-6.3131,-6.3429,-6.3268,-6.3217,-6.3449,-6.3549,-6.3648,-6.3896,-6.419,-6.4384,-6.4481,-6.4754,-6.4898,-6.501,-6.5668,-6.6396,-6.7198,-6.8148,-6.9045,-6.9875,-7.1054,-7.1686,-7.189,-7.2387,-7.2671,-7.274,-7.2946,-7.3153,-7.3291,-7.3843,-7.4188,-7.4438,-7.5111,-7.5647,-7.5682,-7.6011,-7.6695,-7.7485,-7.7989,-7.8668,-7.9548,-7.976,-7.9857,-8.0187,-8.082,-8.131,-8.1731,-8.2291,-8.2922,-8.3224,-8.3446,-8.3665,-8.3879,-8.3945,-8.4188,-8.4428,-8.493,-8.5394,-8.5607,-8.5927,-8.6213,-8.62,-8.6116,-8.5704,-8.5682,-8.5163,-8.4346,-8.3693,-8.3372,-8.3461,-8.3657,-8.3767,-8.3876,-8.4073,-8.4229,-8.4381,-8.4492,-8.4637,-8.4688,-8.4376,-8.4051,-8.3777,-5.6479,-5.6507,-5.6507,-5.6479,-5.6621,-5.7164,-5.7421,-5.7594,-5.8137,-5.8513,-5.8835,-5.947,-5.9877,-5.9873,-6.0309,-6.0442,-6.0259,-6.0323,-6.032,-6.056,-6.0923,-6.1405,-6.1851,-6.2409,-6.2643,-6.2672,-6.3134,-6.3189,-6.3123,-6.2928,-6.3163,-6.3421,-6.3148,-6.3322,-6.3756,-6.3974,-6.4243,-6.424,-6.4279,-6.44,-6.4602,-6.4853,-6.507,-6.5317,-6.5691,-6.5967,-6.6112,-6.6517,-6.698,-6.7691,-6.9006,-6.9704,-7.0229,-7.16,-7.2142,-7.227,-7.2509,-7.2705,-7.2877,-7.3395,-7.3809,-7.3981,-7.4636,-7.5007,-7.5223,-7.5775,-7.6336,-7.6543,-7.6982,-7.7703,-7.8563,-7.955,-8.0126,-8.0494,-8.0682,-8.106,-8.1485,-8.1677,-8.1869,-8.2343,-8.246,-8.2815,-8.3238,-8.3542,-8.38,-8.5259,-8.519,-8.5446,-8.5736,-8.6135,-8.6456,-8.6557,-8.6953,-8.7455,-8.7265,-8.7033,-8.6513,-8.6131,-8.5503,-8.4744,-8.3826,-8.3499,-8.3487,-8.3518,-8.363,-8.3794,-8.3956,-8.4125,-8.4254,-8.4356,-8.4505,-8.4651,-8.4665,-8.4363,-8.4057,-5.7225,-5.7137,-5.7225,-5.7225,-5.7225,-5.7366,-5.7514,-5.7749,-5.8373,-5.881,-5.9165,-5.9801,-6.0058,-6.0055,-6.0169,-6.0255,-6.0132,-6.0132,-6.0194,-6.0255,-6.056,-6.0802,-6.1253,-6.1909,-6.2204,-6.2234,-6.2321,-6.238,-6.2437,-6.2812,-6.3039,-6.3116,-6.344,-6.3649,-6.3888,-6.4099,-6.4089,-6.4192,-6.4409,-6.4626,-6.476,-6.5034,-6.5286,-6.5586,-6.5949,-6.6403,-6.6923,-6.7216,-6.7688,-6.8273,-6.8796,-6.9574,-7.0693,-7.142,-7.1942,-7.2356,-7.2613,-7.2946,-7.3464,-7.3774,-7.4085,-7.4705,-7.5464,-7.5878,-7.5913,-7.6602,-7.7258,-7.7741,-7.8085,-7.8545,-7.9384,-8.0087,-8.0917,-8.1609,-8.2407,-8.3193,-8.3826,-8.3103,-8.2771,-8.3288,-8.4116,-8.5056,-8.5846,-8.5943,-8.6217,-8.6636,-8.6758,-8.6947,-8.7106,-8.7224,-8.7266,-8.7268,-8.7559,-8.7923,-8.7883,-8.7547,-8.7024,-8.6535,-8.5951,-8.5429,-8.4552,-8.3715,-8.3781,-8.3665,-8.3546,-8.3712,-8.3902,-8.4046,-8.4177,-8.4254,-8.4368,-8.4481,-8.4551,-8.4382,-8.4385,-5.7257,-5.7378,-5.7378,-5.7378,-5.7435,-5.7688,-5.7922,-5.8156,-5.8692,-5.9036,-5.9215,-5.9588,-5.9763,-5.9763,-5.9763,-5.9763,-5.9763,-5.9763,-6.0119,-6.0503,-6.0836,-6.1225,-6.182,-6.2159,-6.2315,-6.1848,-6.1821,-6.185,-6.2028,-6.2351,-6.27,-6.2961,-6.3343,-6.3751,-6.4193,-6.4421,-6.4702,-6.5072,-6.5198,-6.5355,-6.548,-6.5738,-6.6097,-6.6419,-6.672,-6.7145,-6.7618,-6.78,-6.8143,-6.8503,-6.8812,-6.9382,-7.0586,-7.1233,-7.1814,-7.256,-7.2923,-7.3482,-7.4076,-7.4671,-7.5085,-7.5464,-7.6499,-7.7016,-7.7361,-7.7879,-7.8396,-7.881,-7.9017,-7.9327,-8.0465,-8.1259,-8.2078,-8.2829,-8.368,-8.4449,-8.474,-8.4312,-8.4027,-8.4652,-8.519,-8.5848,-8.6532,-8.7208,-8.7318,-8.7177,-8.7187,-8.7344,-8.7325,-8.7486,-8.7712,-8.7795,-8.8053,-8.8241,-8.8285,-8.7997,-8.7484,-8.6962,-8.6427,-8.6094,-8.5577,-8.4811,-8.4153,-8.3959,-8.3759,-8.3657,-8.3822,-8.3967,-8.411,-8.4189,-8.4292,-8.4394,-8.4456,-8.4452,-8.451,-5.7294,-5.7599,-5.7599,-5.7599,-5.7744,-5.8221,-5.8446,-5.8531,-5.898,-5.9211,-5.9205,-5.9205,-5.9267,-5.9205,-5.9267,-5.9205,-5.9233,-5.9464,-6.0059,-6.0779,-6.1194,-6.1853,-6.2571,-6.279,-6.2622,-6.1602,-6.1901,-6.1992,-6.2052,-6.2173,-6.2825,-6.3117,-6.3378,-6.3957,-6.4692,-6.5109,-6.5551,-6.6183,-6.6453,-6.6667,-6.6786,-6.6986,-6.7161,-6.7401,-6.7604,-6.7756,-6.8086,-6.8284,-6.8463,-6.8713,-6.9091,-6.9696,-7.0334,-7.1026,-7.192,-7.3048,-7.346,-7.41,-7.4919,-7.5731,-7.6292,-7.6464,-7.7706,-7.8465,-7.8672,-7.8982,-7.95,-7.9948,-8.0293,-8.0948,-8.2017,-8.2569,-8.3293,-8.406,-8.4687,-8.4981,-8.5309,-8.5636,-8.6063,-8.5858,-8.6107,-8.6542,-8.7116,-8.7761,-8.77,-8.7735,-8.7783,-8.7909,-8.8003,-8.8198,-8.8716,-8.891,-8.9212,-8.8714,-8.862,-8.8488,-8.803,-8.7377,-8.6821,-8.6575,-8.6352,-8.5762,-8.5028,-8.4272,-8.4029,-8.4013,-8.3927,-8.3988,-8.4106,-8.411,-8.4189,-8.4292,-8.4394,-8.4518,-8.4616,-5.8146,-5.8488,-5.846,-5.8647,-5.8896,-5.9008,-5.9036,-5.9093,-5.9149,-5.9205,-5.9205,-5.9205,-5.9205,-5.9205,-5.9205,-5.9233,-5.9373,-5.9745,-6.03,-6.1052,-6.1616,-6.2394,-6.2914,-6.3279,-6.3051,-6.2877,-6.2913,-6.2942,-6.2829,-6.322,-6.3229,-6.3618,-6.4159,-6.4752,-6.5102,-6.586,-6.6447,-6.6945,-6.7363,-6.7777,-6.7985,-6.7799,-6.7589,-6.7728,-6.7901,-6.8092,-6.841,-6.8816,-6.9159,-6.9242,-6.9997,-7.068,-7.1177,-7.1646,-7.2435,-7.3322,-7.4024,-7.4689,-7.5681,-7.6469,-7.7282,-7.8017,-7.8844,-7.9293,-7.9396,-7.9603,-8.0396,-8.1431,-8.2362,-8.3259,-8.3569,-8.3742,-8.4288,-8.5049,-8.5672,-8.6098,-8.6881,-8.7585,-8.7738,-8.7128,-8.717,-8.7377,-8.8133,-8.8818,-8.9112,-8.9447,-8.9721,-8.9835,-9.0001,-9.0273,-9.0645,-9.0659,-9.0564,-8.9749,-8.9009,-8.8851,-8.8511,-8.7769,-8.7268,-8.6969,-8.6725,-8.6495,-8.5936,-8.5416,-8.4844,-8.4609,-8.4452,-8.4329,-8.4352,-8.4647,-8.4437,-8.4264,-8.448,-8.4695,-8.4594,-5.8262,-5.8704,-5.8704,-5.8892,-5.9171,-5.9205,-5.9205,-5.9205,-5.9205,-5.9205,-5.9205,-5.9205,-5.9205,-5.9205,-5.9205,-5.9373,-5.9711,-6.0153,-6.0913,-6.1804,-6.2549,-6.321,-6.3728,-6.3975,-6.4067,-6.4183,-6.4357,-6.3951,-6.3167,-6.3266,-6.3535,-6.3725,-6.4273,-6.4665,-6.5143,-6.5847,-6.6778,-6.7291,-6.7797,-6.8296,-6.868,-6.8324,-6.8266,-6.8499,-6.8632,-6.8924,-6.9348,-6.9594,-6.9853,-6.9969,-7.0466,-7.1048,-7.1718,-7.2365,-7.3055,-7.3958,-7.4582,-7.5504,-7.6622,-7.7536,-7.8154,-7.8913,-7.9672,-8.0293,-8.0707,-8.1155,-8.1741,-8.2742,-8.3328,-8.419,-8.4535,-8.4639,-8.5165,-8.6033,-8.6693,-8.7318,-8.8095,-8.9034,-8.8919,-8.8475,-8.878,-8.9131,-8.9529,-9.0149,-9.0672,-9.1103,-9.1506,-9.1667,-9.1783,-9.1836,-9.1933,-9.1511,-9.1168,-9.0459,-8.9576,-8.9199,-8.8901,-8.8212,-8.7763,-8.7449,-8.73,-8.7203,-8.7124,-8.6857,-8.6226,-8.5581,-8.5404,-8.5386,-8.53,-8.521,-8.5312,-8.5327,-8.4978,-8.4894,-8.4871,-5.8071,-5.8578,-5.8704,-5.8892,-5.9142,-5.9205,-5.9205,-5.9205,-5.9205,-5.9205,-5.9205,-5.9205,-5.9205,-5.9205,-5.9289,-5.9514,-6.0231,-6.0687,-6.1712,-6.2864,-6.3491,-6.4185,-6.4787,-6.5141,-6.5112,-6.5141,-6.5664,-6.5257,-6.4241,-6.4188,-6.4168,-6.456,-6.4729,-6.5042,-6.5769,-6.6733,-6.7108,-6.7804,-6.8432,-6.8851,-6.9012,-6.9042,-6.9069,-6.9425,-6.95,-6.9732,-7.019,-7.05,-7.0565,-7.0779,-7.1194,-7.174,-7.2372,-7.3135,-7.4007,-7.4757,-7.5182,-7.6411,-7.765,-7.8614,-7.92,-8.0051,-8.0707,-8.1431,-8.219,-8.2845,-8.3569,-8.4121,-8.4535,-8.4949,-8.5604,-8.5723,-8.6301,-8.7171,-8.8007,-8.867,-8.9087,-8.97,-9.0301,-9.023,-9.0511,-9.0607,-9.0728,-9.0917,-9.1292,-9.1995,-9.2357,-9.2549,-9.263,-9.2532,-9.2479,-9.1898,-9.1443,-9.0915,-9.0287,-8.9614,-8.9181,-8.8536,-8.8241,-8.8012,-8.8032,-8.8068,-8.7978,-8.7903,-8.7513,-8.6913,-8.6668,-8.6265,-8.5929,-8.5889,-8.6309,-8.6277,-8.5816,-8.5606,-8.5635,-5.788,-5.8262,-5.8578,-5.8892,-5.9142,-5.9205,-5.9205,-5.9205,-5.9205,-5.9205,-5.9205,-5.9205,-5.9205,-5.9233,-5.9261,-5.9786,-6.0602,-6.1387,-6.2301,-6.3428,-6.408,-6.4531,-6.5112,-6.5606,-6.5751,-6.5896,-6.6476,-6.6302,-6.5693,-6.5954,-6.6215,-6.6352,-6.6464,-6.7107,-6.7175,-6.7991,-6.9334,-7.0035,-7.0841,-7.1012,-7.055,-6.9999,-6.979,-6.9701,-6.9788,-7.0129,-7.0829,-7.129,-7.1504,-7.1601,-7.2626,-7.3371,-7.3844,-7.4686,-7.5391,-7.5985,-7.6474,-7.7168,-7.8463,-7.9411,-8.0381,-8.128,-8.2086,-8.2949,-8.3604,-8.4328,-8.488,-8.5018,-8.557,-8.631,-8.6912,-8.7289,-8.7988,-8.8584,-8.9228,-8.9647,-9.0016,-9.059,-9.1108,-9.1284,-9.1389,-9.1354,-9.138,-9.1608,-9.1917,-9.2613,-9.3167,-9.3292,-9.3323,-9.3191,-9.3139,-9.2639,-9.2032,-9.1541,-9.1157,-9.0522,-8.9786,-8.9067,-8.8922,-8.8698,-8.8483,-8.8505,-8.8874,-8.875,-8.8384,-8.8064,-8.7718,-8.722,-8.6536,-8.6556,-8.7069,-8.6862,-8.6438,-8.6406,-8.6422,-5.8198,-5.8515,-5.8641,-5.8892,-5.9205,-5.9205,-5.9205,-5.9205,-5.9205,-5.9205,-5.9205,-5.9205,-5.9205,-5.9323,-5.973,-6.0483,-6.1267,-6.2152,-6.3128,-6.3936,-6.456,-6.5042,-6.5454,-6.5809,-6.6041,-6.6593,-6.7057,-6.7347,-6.7115,-6.6883,-6.6883,-6.7007,-6.7269,-6.7448,-6.8071,-6.8911,-6.9635,-7.0434,-7.1397,-7.1975,-7.1907,-7.1667,-7.152,-7.1624,-7.1694,-7.199,-7.2412,-7.294,-7.3221,-7.3318,-7.3966,-7.4182,-7.441,-7.4941,-7.5611,-7.671,-7.7522,-7.8303,-7.9095,-8.0261,-8.1304,-8.2301,-8.3121,-8.3811,-8.4639,-8.5363,-8.6053,-8.6467,-8.6708,-8.731,-8.8084,-8.8408,-8.8882,-8.9527,-9.0213,-9.0514,-9.0919,-9.1516,-9.2021,-9.2126,-9.2196,-9.2021,-9.1964,-9.211,-9.2268,-9.2671,-9.3109,-9.3226,-9.3367,-9.3377,-9.3455,-9.3495,-9.2853,-9.2211,-9.1925,-9.147,-9.072,-9.0108,-9.0029,-8.9671,-8.8879,-8.8807,-8.927,-8.935,-8.9009,-8.8756,-8.8626,-8.8293,-8.7748,-8.7763,-8.7829,-8.7622,-8.7377,-8.7254,-8.7185,-5.8515,-5.8829,-5.8829,-5.8955,-5.9233,-5.9205,-5.9205,-5.9205,-5.9205,-5.9205,-5.9205,-5.9267,-5.9329,-5.9533,-6.0325,-6.1172,-6.1889,-6.3026,-6.3878,-6.4474,-6.4955,-6.528,-6.578,-6.607,-6.6535,-6.7144,-6.7812,-6.8044,-6.7986,-6.787,-6.7725,-6.7376,-6.7778,-6.8086,-6.8584,-6.9445,-7.0361,-7.1628,-7.2135,-7.263,-7.2854,-7.2811,-7.2889,-7.3118,-7.3498,-7.378,-7.4203,-7.4241,-7.4374,-7.4484,-7.471,-7.4872,-7.496,-7.5787,-7.6594,-7.763,-7.8671,-7.9641,-8.0327,-8.1282,-8.2271,-8.3237,-8.4121,-8.4915,-8.5397,-8.6156,-8.6708,-8.7225,-8.7605,-8.8206,-8.8962,-8.9306,-8.9851,-9.0429,-9.1025,-9.1313,-9.1621,-9.2091,-9.2337,-9.2337,-9.2372,-9.2407,-9.2386,-9.2603,-9.2735,-9.2867,-9.3012,-9.312,-9.3262,-9.3439,-9.3555,-9.3598,-9.3394,-9.2798,-9.2461,-9.2104,-9.1461,-9.1077,-9.0959,-9.0559,-8.9779,-8.946,-8.9685,-8.9634,-8.9606,-8.9704,-8.9707,-8.9379,-8.9026,-8.8912,-8.8794,-8.8636,-8.8428,-8.8231,-8.8087,-5.8892,-5.9142,-5.9142,-5.9142,-5.9205,-5.9205,-5.9205,-5.9205,-5.9205,-5.9233,-5.9267,-5.9482,-5.9668,-5.999,-6.0779,-6.169,-6.2577,-6.3152,-6.4069,-6.4694,-6.5054,-6.546,-6.6012,-6.6622,-6.7173,-6.7812,-6.845,-6.8741,-6.8886,-6.9205,-6.9002,-6.877,-6.8779,-6.9153,-6.9818,-7.0639,-7.1985,-7.2984,-7.3406,-7.3484,-7.3678,-7.3538,-7.3306,-7.341,-7.3486,-7.3618,-7.418,-7.4549,-7.4854,-7.5108,-7.5682,-7.5941,-7.6224,-7.7041,-7.7865,-7.8628,-7.9793,-8.0782,-8.1589,-8.2428,-8.3513,-8.4567,-8.5455,-8.6018,-8.626,-8.6915,-8.7363,-8.7674,-8.8277,-8.9017,-8.974,-9.0341,-9.0852,-9.1346,-9.1754,-9.1923,-9.2161,-9.2407,-9.2618,-9.2512,-9.2688,-9.3004,-9.3039,-9.3278,-9.2884,-9.2911,-9.2806,-9.2916,-9.3072,-9.325,-9.3404,-9.3509,-9.3591,-9.3303,-9.2879,-9.2532,-9.2282,-9.1818,-9.1443,-9.1138,-9.0667,-9.051,-9.0155,-9.0305,-9.033,-9.0594,-9.0799,-9.0568,-9.0348,-8.9959,-8.9681,-8.9292,-8.8954,-8.8709,-8.8781,-5.8892,-5.9205,-5.9205,-5.9205,-5.9205,-5.9205,-5.9205,-5.9205,-5.9205,-5.9329,-5.9482,-5.9668,-6.0052,-6.0665,-6.1547,-6.2428,-6.3221,-6.4075,-6.4607,-6.499,-6.5373,-6.5896,-6.6535,-6.7173,-6.7841,-6.8479,-6.906,-6.9408,-6.9466,-7.0047,-7.0192,-7.0018,-6.996,-7.0468,-7.1116,-7.2062,-7.3583,-7.4594,-7.4996,-7.5116,-7.5599,-7.5561,-7.5241,-7.4948,-7.5152,-7.5269,-7.5592,-7.6028,-7.6392,-7.6822,-7.7284,-7.7374,-7.7463,-7.8348,-7.8893,-7.9388,-8.0596,-8.1569,-8.2449,-8.3327,-8.4453,-8.5561,-8.6451,-8.6984,-8.7018,-8.7708,-8.8364,-8.8794,-8.9173,-8.988,-9.0846,-9.1325,-9.1716,-9.221,-9.2449,-9.2583,-9.2723,-9.2934,-9.3179,-9.3215,-9.3636,-9.4057,-9.4057,-9.4022,-9.3419,-9.2871,-9.273,-9.2722,-9.2867,-9.306,-9.3203,-9.3392,-9.3486,-9.3673,-9.3333,-9.3236,-9.321,-9.2603,-9.1997,-9.1693,-9.1352,-9.0846,-9.0612,-9.0814,-9.1003,-9.1028,-9.1252,-9.1665,-9.1502,-9.077,-9.0184,-8.9676,-8.9414,-8.9122,-8.9157,-5.8955,-5.9205,-5.9205,-5.9205,-5.9205,-5.9205,-5.9205,-5.9205,-5.9205,-5.9392,-5.973,-6.0086,-6.0584,-6.1437,-6.2524,-6.314,-6.3815,-6.4492,-6.4961,-6.5373,-6.5751,-6.6418,-6.7086,-6.7696,-6.8247,-6.9002,-6.9495,-6.9786,-7.0076,-7.0686,-7.0889,-7.1005,-7.115,-7.151,-7.1863,-7.3226,-7.4694,-7.5682,-7.6026,-7.6306,-7.6859,-7.6825,-7.6698,-7.6285,-7.6338,-7.6518,-7.6665,-7.7019,-7.7596,-7.8028,-7.8519,-7.8791,-7.892,-7.9108,-7.9469,-8.0158,-8.0974,-8.1943,-8.2841,-8.4035,-8.519,-8.6318,-8.6933,-8.7382,-8.7881,-8.8467,-8.9122,-8.9502,-9.0071,-9.0779,-9.1676,-9.1809,-9.2025,-9.2414,-9.2884,-9.3074,-9.3285,-9.3495,-9.3776,-9.4022,-9.4408,-9.4619,-9.4584,-9.4443,-9.3987,-9.3405,-9.3159,-9.2927,-9.2673,-9.2819,-9.2916,-9.3155,-9.3392,-9.358,-9.3776,-9.3654,-9.3531,-9.3317,-9.2746,-9.2389,-9.1979,-9.1467,-9.0954,-9.0906,-9.104,-9.1266,-9.1509,-9.1759,-9.1643,-9.1411,-9.0752,-9.0108,-8.9686,-8.9395,-8.9177,-5.9205,-5.9205,-5.9205,-5.9205,-5.9205,-5.9205,-5.9205,-5.9205,-5.9205,-5.951,-5.9995,-6.0917,-6.1508,-6.2006,-6.3299,-6.3912,-6.426,-6.4851,-6.5373,-6.5867,-6.6244,-6.6854,-6.7463,-6.8102,-6.8712,-6.9525,-7.0018,-7.0395,-7.0715,-7.1353,-7.1586,-7.1859,-7.2104,-7.2438,-7.2069,-7.3323,-7.4725,-7.5807,-7.6088,-7.665,-7.7145,-7.7299,-7.7236,-7.7075,-7.7012,-7.7194,-7.7408,-7.7796,-7.8254,-7.8716,-7.9101,-7.9277,-7.9277,-7.973,-8.0068,-8.0482,-8.1558,-8.2411,-8.3052,-8.4553,-8.5838,-8.6869,-8.7417,-8.8019,-8.857,-8.9191,-8.9761,-9.0123,-9.0642,-9.1246,-9.1676,-9.1999,-9.237,-9.2729,-9.3235,-9.3671,-9.3882,-9.4268,-9.4584,-9.4865,-9.483,-9.4865,-9.4865,-9.4794,-9.4478,-9.4057,-9.3706,-9.3285,-9.2843,-9.266,-9.2806,-9.2964,-9.3203,-9.3439,-9.3673,-9.3858,-9.3807,-9.371,-9.346,-9.3103,-9.2684,-9.2246,-9.1734,-9.1183,-9.1109,-9.1357,-9.1536,-9.1657,-9.1811,-9.1907,-9.1141,-9.0503,-9.0081,-8.9705,-8.945,-5.9205,-5.9205,-5.9205,-5.9205,-5.9205,-5.9205,-5.9205,-5.9205,-5.9482,-6.0052,-6.0855,-6.1512,-6.2303,-6.3154,-6.3709,-6.4502,-6.5228,-6.5402,-6.5954,-6.6564,-6.6941,-6.7376,-6.8015,-6.877,-6.935,-6.9902,-7.0453,-7.1005,-7.1353,-7.1905,-7.2224,-7.2469,-7.3069,-7.3565,-7.4096,-7.5056,-7.6273,-7.724,-7.7653,-7.7968,-7.8311,-7.831,-7.8121,-7.771,-7.7678,-7.774,-7.7924,-7.835,-7.8811,-7.9372,-7.9763,-8.0092,-8.0183,-8.0604,-8.0755,-8.105,-8.185,-8.2511,-8.3773,-8.5363,-8.6428,-8.7227,-8.8089,-8.8829,-8.9398,-9.0019,-9.0434,-9.0728,-9.123,-9.1695,-9.1929,-9.274,-9.32,-9.3411,-9.3847,-9.4268,-9.4619,-9.5146,-9.5567,-9.5742,-9.5813,-9.6058,-9.6129,-9.5813,-9.5462,-9.49,-9.4514,-9.3847,-9.3285,-9.2772,-9.266,-9.2854,-9.3012,-9.3286,-9.3475,-9.3626,-9.3832,-9.3781,-9.3781,-9.3745,-9.3327,-9.2916,-9.2398,-9.177,-9.1559,-9.1442,-9.153,-9.1694,-9.2365,-9.2402,-9.1829,-9.115,-9.0606,-9.0156,-8.9733,-5.9205,-5.9205,-5.9205,-5.9205,-5.9205,-5.9205,-5.9267,-5.951,-6.0052,-6.0827,-6.1599,-6.2126,-6.2947,-6.3917,-6.4526,-6.4903,-6.5954,-6.6215,-6.6622,-6.726,-6.7899,-6.8305,-6.8857,-6.9554,-7.0192,-7.057,-7.1121,-7.1731,-7.1992,-7.2369,-7.2789,-7.3307,-7.4009,-7.4891,-7.5614,-7.6325,-7.6892,-7.7705,-7.8186,-7.8565,-7.8848,-7.8974,-7.8816,-7.8531,-7.8405,-7.8405,-7.8529,-7.8901,-7.9489,-8.0117,-8.0549,-8.0938,-8.103,-8.1252,-8.1469,-8.1712,-8.2361,-8.3151,-8.457,-8.6108,-8.7037,-8.7473,-8.879,-8.9673,-9.0001,-9.0467,-9.0832,-9.1213,-9.1766,-9.2161,-9.2605,-9.3451,-9.3972,-9.4198,-9.4619,-9.504,-9.5321,-9.5848,-9.6269,-9.648,-9.6585,-9.6936,-9.7112,-9.6971,-9.6585,-9.5918,-9.5286,-9.4549,-9.3811,-9.3215,-9.2737,-9.2779,-9.2889,-9.3095,-9.3203,-9.3392,-9.3555,-9.3807,-9.3878,-9.3904,-9.3852,-9.3434,-9.2916,-9.2362,-9.1994,-9.1671,-9.1453,-9.173,-9.2402,-9.2896,-9.2928,-9.2158,-9.1225,-9.0756,-9.0381,-5.9205,-5.9205,-5.9205,-5.9205,-5.9233,-5.9414,-5.9601,-5.9877,-6.1036,-6.157,-6.1804,-6.3299,-6.4004,-6.4323,-6.528,-6.5954,-6.6244,-6.6709,-6.7347,-6.7957,-6.8625,-6.9118,-6.9757,-7.0424,-7.0889,-7.1382,-7.1905,-7.2369,-7.2631,-7.295,-7.3413,-7.4265,-7.5075,-7.6003,-7.6671,-7.7203,-7.7644,-7.8393,-7.9003,-7.9258,-7.9353,-7.9258,-7.9163,-7.8974,-7.8911,-7.9005,-7.9194,-7.9538,-7.9912,-8.0347,-8.0621,-8.0859,-8.1262,-8.177,-8.2029,-8.2502,-8.3345,-8.4202,-8.5078,-8.654,-8.7554,-8.8007,-8.8809,-8.977,-9.0344,-9.0691,-9.1091,-9.1611,-9.22,-9.277,-9.3339,-9.4066,-9.4794,-9.5146,-9.5532,-9.5848,-9.6023,-9.6409,-9.6831,-9.7006,-9.6971,-9.7112,-9.7112,-9.7077,-9.7041,-9.669,-9.5988,-9.5356,-9.4584,-9.3706,-9.3179,-9.2807,-9.2884,-9.2903,-9.3012,-9.3191,-9.3404,-9.3648,-9.3694,-9.3765,-9.3786,-9.3817,-9.3291,-9.2782,-9.2271,-9.1854,-9.137,-9.1657,-9.2439,-9.283,-9.3208,-9.296,-9.1975,-9.1666,-9.1282,-5.9205,-5.9205,-5.9205,-5.9329,-5.9663,-6.0494,-6.0974,-6.1155,-6.1541,-6.2126,-6.3328,-6.3801,-6.4468,-6.5402,-6.5715,-6.6506,-6.7086,-6.7638,-6.8334,-6.8944,-6.9466,-6.9902,-7.0482,-7.1063,-7.1469,-7.1963,-7.2485,-7.3037,-7.3385,-7.3647,-7.44,-7.5256,-7.5981,-7.6863,-7.769,-7.8378,-7.899,-7.9458,-7.9977,-7.9984,-7.9858,-7.9827,-7.9637,-7.9416,-7.9321,-7.9479,-7.9795,-8.0142,-8.0614,-8.1403,-8.1809,-8.2181,-8.2551,-8.2774,-8.2871,-8.3029,-8.3881,-8.4822,-8.5518,-8.6579,-8.7677,-8.8509,-8.9177,-8.9737,-9.0353,-9.0879,-9.1368,-9.2131,-9.2808,-9.3397,-9.4159,-9.4974,-9.5497,-9.5813,-9.6199,-9.648,-9.662,-9.6761,-9.7112,-9.7112,-9.7112,-9.7112,-9.7112,-9.7112,-9.7077,-9.7041,-9.6725,-9.6058,-9.5391,-9.4549,-9.3636,-9.3215,-9.2948,-9.2919,-9.2911,-9.2973,-9.3238,-9.3486,-9.3533,-9.3673,-9.3868,-9.3817,-9.3495,-9.2952,-9.2243,-9.1649,-9.1073,-9.162,-9.2301,-9.2847,-9.3195,-9.3026,-9.2817,-9.2567,-9.2108,-5.9205,-5.9205,-5.9329,-5.9781,-6.0527,-6.1533,-6.2183,-6.2447,-6.2567,-6.3183,-6.3975,-6.4526,-6.5199,-6.5896,-6.6506,-6.7289,-6.8189,-6.8596,-6.9205,-6.9902,-7.0366,-7.0744,-7.1237,-7.1731,-7.2224,-7.266,-7.3124,-7.3618,-7.4053,-7.4766,-7.551,-7.609,-7.6741,-7.7774,-7.8716,-7.9711,-8.0456,-8.0838,-8.1016,-8.0868,-8.0712,-8.0554,-8.0238,-7.9985,-7.989,-8.0143,-8.0459,-8.0777,-8.1316,-8.1918,-8.2296,-8.267,-8.3076,-8.3296,-8.3843,-8.4066,-8.467,-8.5299,-8.579,-8.6654,-8.7762,-8.8727,-8.9512,-9.0274,-9.0857,-9.1407,-9.2216,-9.2982,-9.3555,-9.4129,-9.5015,-9.5848,-9.6129,-9.6409,-9.6725,-9.7041,-9.7112,-9.7077,-9.7112,-9.7112,-9.7112,-9.7112,-9.7112,-9.7112,-9.7112,-9.7077,-9.7041,-9.6796,-9.6164,-9.5497,-9.4408,-9.3566,-9.325,-9.3053,-9.2962,-9.2898,-9.3095,-9.3262,-9.3357,-9.3544,-9.3822,-9.3781,-9.346,-9.2863,-9.2087,-9.1516,-9.1103,-9.1544,-9.2162,-9.268,-9.3211,-9.3295,-9.335,-9.3356,-9.2859,-5.9205,-5.9295,-5.9725,-6.0561,-6.1628,-6.2385,-6.3145,-6.3975,-6.4033,-6.4149,-6.441,-6.5402,-6.5954,-6.6506,-6.7347,-6.816,-6.8915,-6.9437,-7.0047,-7.0802,-7.115,-7.1557,-7.2021,-7.2427,-7.2921,-7.3414,-7.3937,-7.4401,-7.4852,-7.5612,-7.633,-7.6841,-7.8052,-7.899,-7.9777,-8.0847,-8.1533,-8.1842,-8.1742,-8.1534,-8.1376,-8.1281,-8.1249,-8.1123,-8.1091,-8.1154,-8.1249,-8.1345,-8.1441,-8.1825,-8.2206,-8.268,-8.3342,-8.3848,-8.4588,-8.5136,-8.5583,-8.5932,-8.634,-8.7056,-8.7859,-8.8872,-8.9716,-9.0799,-9.1553,-9.2007,-9.2769,-9.3764,-9.4374,-9.5018,-9.5905,-9.6358,-9.669,-9.6796,-9.6971,-9.7112,-9.7112,-9.7112,-9.7112,-9.7112,-9.7112,-9.7112,-9.7112,-9.7112,-9.7112,-9.7112,-9.7112,-9.7077,-9.6831,-9.6234,-9.5391,-9.4198,-9.3601,-9.3285,-9.3018,-9.2955,-9.2916,-9.3037,-9.3227,-9.3497,-9.3868,-9.3745,-9.3424,-9.2827,-9.2187,-9.168,-9.1382,-9.1723,-9.2093,-9.268,-9.3179,-9.3526,-9.3732,-9.3777,-9.361,-5.9329,-5.9696,-6.0708,-6.1393,-6.1776,-6.3063,-6.3767,-6.4062,-6.5112,-6.5367,-6.5483,-6.5867,-6.6506,-6.7347,-6.816,-6.8944,-6.9583,-7.0221,-7.0831,-7.1295,-7.1731,-7.234,-7.295,-7.3211,-7.3603,-7.3994,-7.4589,-7.5272,-7.5856,-7.6503,-7.7019,-7.746,-7.8644,-7.9647,-8.0444,-8.1485,-8.2266,-8.2728,-8.2783,-8.2513,-8.2229,-8.1944,-8.1786,-8.147,-8.1312,-8.1628,-8.1755,-8.2008,-8.2584,-8.3129,-8.3547,-8.4122,-8.4689,-8.4914,-8.5397,-8.5948,-8.6173,-8.659,-8.7069,-8.7634,-8.8325,-8.922,-9.017,-9.1334,-9.2181,-9.2619,-9.3373,-9.4441,-9.5262,-9.5943,-9.6465,-9.6849,-9.7112,-9.7112,-9.7112,-9.7112,-9.7112,-9.7112,-9.7112,-9.7112,-9.7112,-9.7112,-9.7112,-9.7112,-9.7112,-9.7112,-9.7112,-9.7112,-9.7112,-9.6725,-9.6374,-9.5286,-9.4092,-9.3601,-9.3299,-9.3131,-9.3176,-9.3203,-9.3357,-9.3637,-9.3949,-9.3817,-9.3612,-9.2952,-9.2394,-9.1962,-9.1668,-9.1684,-9.2131,-9.2687,-9.3077,-9.3495,-9.3709,-9.3822,-9.3844,-5.9392,-5.9905,-6.1351,-6.227,-6.2827,-6.3975,-6.4473,-6.4648,-6.5519,-6.6099,-6.6389,-6.668,-6.7231,-6.8073,-6.8799,-6.9583,-7.0221,-7.086,-7.1469,-7.1963,-7.2398,-7.295,-7.3472,-7.3937,-7.4299,-7.4763,-7.543,-7.6189,-7.6508,-7.7031,-7.7446,-7.7873,-7.8891,-8.0113,-8.0999,-8.1994,-8.3,-8.3651,-8.3893,-8.3841,-8.3335,-8.2987,-8.2576,-8.2134,-8.2197,-8.2387,-8.2576,-8.2892,-8.3435,-8.4208,-8.4726,-8.5148,-8.5631,-8.5984,-8.6273,-8.6532,-8.6726,-8.708,-8.7628,-8.8141,-8.8742,-8.959,-9.042,-9.1472,-9.3189,-9.3653,-9.4336,-9.5395,-9.5855,-9.652,-9.6763,-9.7077,-9.7112,-9.7112,-9.7112,-9.7112,-9.7112,-9.7112,-9.7112,-9.7112,-9.7112,-9.7112,-9.7112,-9.7112,-9.7112,-9.7112,-9.7112,-9.7112,-9.7112,-9.7112,-9.6796,-9.6339,-9.5146,-9.4157,-9.3694,-9.3559,-9.3506,-9.3534,-9.3568,-9.3719,-9.3949,-9.3959,-9.3755,-9.3167,-9.2717,-9.243,-9.2215,-9.212,-9.2206,-9.2656,-9.3049,-9.3432,-9.3649,-9.3867,-9.3919,-5.9572,-6.0199,-6.1877,-6.3179,-6.4033,-6.4706,-6.5025,-6.5199,-6.578,-6.6418,-6.7115,-6.7812,-6.8073,-6.8538,-6.9292,-7.0134,-7.0889,-7.1498,-7.2137,-7.2747,-7.324,-7.3734,-7.4082,-7.4459,-7.4982,-7.5534,-7.6114,-7.6317,-7.6538,-7.7252,-7.7888,-7.8138,-7.9305,-8.0659,-8.1722,-8.2737,-8.3719,-8.4541,-8.4938,-8.5199,-8.4757,-8.4188,-8.3714,-8.3524,-8.3493,-8.3427,-8.3714,-8.3967,-8.4346,-8.4803,-8.5389,-8.5851,-8.6275,-8.663,-8.6953,-8.7179,-8.7405,-8.7664,-8.7987,-8.8342,-8.908,-8.9877,-9.0659,-9.1871,-9.351,-9.4477,-9.5206,-9.5862,-9.6379,-9.6765,-9.6956,-9.7112,-9.7112,-9.7112,-9.7112,-9.7112,-9.7112,-9.7112,-9.7112,-9.7112,-9.7112,-9.7112,-9.7112,-9.7112,-9.7112,-9.7112,-9.7112,-9.7112,-9.7112,-9.7112,-9.6971,-9.6796,-9.6199,-9.5297,-9.4532,-9.4058,-9.3991,-9.3889,-9.3957,-9.3918,-9.3949,-9.3959,-9.3826,-9.3407,-9.3004,-9.2862,-9.2672,-9.2509,-9.2647,-9.2848,-9.3021,-9.337,-9.3587,-9.3807,-9.3927,-6.0261,-6.1332,-6.2514,-6.3395,-6.4033,-6.4735,-6.5257,-6.5809,-6.6418,-6.7057,-6.7783,-6.8857,-6.9437,-6.9466,-7.0163,-7.0831,-7.1382,-7.2079,-7.2805,-7.3443,-7.3734,-7.4343,-7.4866,-7.5156,-7.5679,-7.6114,-7.6404,-7.6462,-7.6874,-7.7841,-7.8612,-7.8907,-8.0604,-8.197,-8.3053,-8.3936,-8.4444,-8.5238,-8.5637,-8.5805,-8.5484,-8.5105,-8.5041,-8.4915,-8.4915,-8.4915,-8.4978,-8.5041,-8.5105,-8.5303,-8.5698,-8.6295,-8.6754,-8.7178,-8.7502,-8.7955,-8.8247,-8.8506,-8.8766,-8.9026,-8.9771,-9.0282,-9.1136,-9.2091,-9.3411,-9.4374,-9.513,-9.5951,-9.6414,-9.6765,-9.6956,-9.706,-9.7112,-9.7112,-9.7112,-9.7112,-9.7112,-9.7112,-9.7112,-9.7112,-9.7112,-9.7112,-9.7112,-9.7112,-9.7112,-9.7112,-9.7112,-9.7112,-9.7112,-9.7112,-9.7112,-9.7006,-9.6866,-9.6598,-9.5955,-9.4862,-9.4525,-9.4421,-9.4228,-9.4046,-9.3949,-9.3995,-9.3791,-9.3586,-9.3497,-9.3431,-9.321,-9.3042,-9.3119,-9.3267,-9.3148,-9.3312,-9.3607,-9.4009,-9.4452]},{"header":{"parameterUnit":"m.s-1","parameterCategory":1,"la1":31.0,"la2":29.5877,"lo1":-88.7671,"lo2":-86.6584,"dx":0.0162,"dy":0.0185,"nx":115,"ny":88,"refTime":"2023-01-20T06:00:00:Z","depth":0,"parameterNumber":3,"parameterNumberName":"V-component_of_WINDS"},"data":[0.0,0.0,0.0,0.0,0.0,0.0,0.0,0.0,0.0,0.0,0.0,0.0,0.0,0.0,0.0,0.0,0.0,0.0,0.0,0.0,0.0,0.0,0.0,0.0,0.0,0.0,0.0,0.0,0.0,0.0,0.0,0.0,0.0,0.0,0.0,0.0,0.0,0.0,0.0,0.0,0.0,0.0,0.0,0.0,0.0,0.0,0.0,0.0,0.0,0.0,0.0,0.0,0.0,0.0,0.0,0.0,0.0,0.0,0.0,0.0,0.0,0.0,0.0,0.0,0.0,0.0,0.0,0.0,0.0,0.0,0.0,0.0,0.0,0.0,0.0,0.0,0.0,0.0,0.0,0.0,0.0,0.0,0.0,0.0,0.0,0.0,0.0,0.0,0.0,0.0,0.0,0.0,0.0,0.0,0.0,0.0,0.0,0.0,0.0,0.0,0.0,0.0,0.0,0.0,0.0,0.0,0.0,0.0,0.0,0.0,0.0,0.0,0.0,0.0,0.0,0.0,0.0,0.0,0.0,0.0,0.0,0.0,0.0,0.0,0.0,0.0,0.0,0.0,0.0,0.0,0.0,0.0,0.0,0.0,0.0,0.0,0.0,0.0,0.0,0.0,0.0,0.0,0.0,0.0,0.0,0.0,0.0,0.0,0.0,0.0,0.0,0.0,0.0,0.0,0.0,0.0,0.0,0.0,0.0,0.0,0.0,0.0,0.0,0.0,0.0,0.0,0.0,0.0,0.0,0.0,0.0,0.0,0.0,0.0,0.0,0.0,0.0,0.0,0.0,0.0,0.0,0.0,0.0,0.0,0.0,0.0,0.0,0.0,0.0,0.0,0.0,0.0,0.0,0.0,0.0,0.0,0.0,0.0,0.0,0.0,0.0,0.0,0.0,0.0,0.0,0.0,0.0,0.0,0.0,0.0,0.0,0.0,0.0,0.0,0.0,0.0,0.0,0.0,0.0,0.0,0.0,0.0,0.0,0.0,0.0,0.0,0.0,0.0,0.0,0.0,0.0,0.0,0.0,0.0,0.0,0.0,0.0,0.0,0.0,0.0,0.0,0.0,0.0,0.0,0.0,0.0,0.0,0.0,0.0,0.0,0.0,0.0,0.0,0.0,0.0,0.0,0.0,0.0,0.0,0.0,0.0,0.0,0.0,0.0,0.0,0.0,0.0,0.0,0.0,0.0,0.0,0.0,0.0,0.0,0.0,0.0,0.0,0.0,0.0,0.0,0.0,0.0,0.0,0.0,0.0,0.0,0.0,0.0,0.0,0.0,0.0,0.0,0.0,0.0,0.0,0.0,0.0,0.0,0.0,0.0,0.0,0.0,0.0,0.0,0.0,0.0,0.0,0.0,0.0,0.0,0.0,0.0,0.0,0.0,0.0,0.0,0.0,0.0,0.0,0.0,0.0,0.0,0.0,0.0,0.0,0.0,0.0,0.0,0.0,0.0,0.0,0.0,0.0,0.0,0.0,0.0,0.0,0.0,0.0,0.0,0.0,0.0,0.0,0.0,0.0,0.0,0.0,0.0,0.0,0.0,0.0,0.0,0.0,0.0,0.0,0.0,0.0,0.0,0.0,0.0,0.0,0.0,0.0,0.0,0.0,0.0,0.0,0.0,0.0,0.0,0.0,0.0,0.0,0.0,0.0,0.0,0.0,0.0,0.0,0.0,0.0,0.0,0.0,0.0,0.0,0.0,0.0,0.0,0.0,0.0,0.0,0.0,0.0,0.0,0.0,0.0,0.0,0.0,0.0,0.0,0.0,0.0,0.0,0.0,0.0,0.0,0.0,0.0,0.0,0.0,0.0,0.0,0.0,0.0,0.0,0.0,0.0,0.0,0.0,0.0,0.0,0.0,0.0,0.0,0.0,0.0,0.0,0.0,0.0,0.0,0.0,0.0,0.0,0.0,0.0,0.0,0.0,0.0,0.0,0.0,0.0,0.0,0.0,0.0,0.0,0.0,0.0,0.0,0.0,0.0,0.0,0.0,0.0,0.0,0.0,0.0,0.0,0.0,0.0,0.0,0.0,0.0,0.0,0.0,0.0,0.0,0.0,0.0,0.0,0.0,0.0,0.0,0.0,0.0,0.0,0.0,0.0,0.0,0.0,0.0,0.0,0.0,0.0,0.0,0.0,0.0,0.0,0.0,0.0,0.0,0.0,0.0,0.0,0.0,0.0,0.0,0.0,0.0,0.0,0.0,0.0,0.0,0.0,0.0,0.0,0.0,0.0,0.0,0.0,0.0,0.0,0.0,0.0,0.0,0.0,0.0,0.0,0.0,0.0,0.0,0.0,0.0,0.0,0.0,0.0,0.0,0.0,0.0,0.0,0.0,0.0,0.0,0.0,0.0,0.0,0.0,0.0,0.0,0.0,0.0,0.0,0.0,0.0,0.0,0.0,0.0,0.0,0.0,0.0,0.0,0.0,0.0,0.0,0.0,0.0,0.0,0.0,0.0,0.0,0.0,0.0,0.0,0.0,0.0,0.0,0.0,0.0,0.0,0.0,0.0,0.0,0.0,0.0,0.0,0.0,0.0,0.0,0.0,0.0,0.0,0.0,0.0,0.0,0.0,0.0,0.0,0.0,0.0,0.0,0.0,0.0,0.0,0.0,0.0,0.0,0.0,0.0,0.0,0.0,0.0,0.0,0.0,0.0,0.0,0.0,0.0,0.0,0.0,0.0,0.0,0.0,0.0,0.0,0.0,0.0,0.0,0.0,0.0,0.0,0.0,0.0,0.0,0.0,0.0,0.0,0.0,0.0,0.0,0.0,0.0,0.0,0.0,0.0,0.0,0.0,0.0,0.0,0.0,0.0,0.0,0.0,0.0,0.0,0.0,0.0,0.0,0.0,0.0,0.0,0.0,0.0,0.0,0.0,0.0,0.0,0.0,0.0,0.0,0.0,0.0,0.0,0.0,0.0,0.0,0.0,0.0,0.0,0.0,0.0,0.0,0.0,0.0,0.0,0.0,0.0,0.0,0.0,0.0,0.0,0.0,0.0,0.0,0.0,0.0,0.0,0.0,0.0,0.0,0.0,0.0,0.0,0.0,0.0,0.0,0.0,0.0,0.0,0.0,0.0,0.0,0.0,0.0,0.0,0.0,0.0,0.0,0.0,0.0,0.0,0.0,0.0,0.0,0.0,0.0,0.0,0.0,0.0,0.0,0.0,0.0,0.0,0.0,0.0,0.0,0.0,0.0,0.0,0.0,0.0,0.0,0.0,0.0,0.0,0.0,0.0,0.0,0.0,0.0,0.0,0.0,0.0,0.0,0.0,0.0,0.0,0.0,0.0,0.0,0.0,0.0,0.0,0.0,0.0,0.0,0.0,0.0,0.0,0.0,0.0,0.0,0.0,0.0,0.0,0.0,0.0,0.0,0.0,0.0,0.0,0.0,0.0,0.0,0.0,0.0,0.0,0.0,0.0,0.0,0.0,0.0,0.0,0.0,0.0,0.0,0.0,0.0,0.0,0.0,0.0,0.0,0.0,0.0,0.0,0.0,0.0,0.0,0.0,0.0,0.0,0.0,0.0,0.0,0.0,0.0,0.0,0.0,0.0,0.0,0.0,0.0,0.0,0.0,0.0,0.0,0.0,0.0,0.0,0.0,0.0,0.0,0.0,0.0,0.0,0.0,0.0,0.0,0.0,0.0,0.0,0.0,0.0,0.0,0.0,0.0,0.0,0.0,0.0,0.0,0.0,0.0,0.0,0.0,0.0,0.0,0.0,0.0,0.0,0.0,0.0,0.0,0.0,0.0,0.0,0.0,0.0,0.0,0.0,0.0,0.0,0.0,0.0,0.0,0.0,0.0,0.0,0.0,0.0,0.0,0.0,0.0,0.0,0.0,0.0,0.0,0.0,0.0,0.0,0.0,0.0,0.0,0.0,0.0,0.0,0.0,0.0,0.0,0.0,0.0,0.0,0.0,0.0,0.0,0.0,0.0,0.0,0.0,0.0,0.0,0.0,0.0,0.0,0.0,0.0,0.0,0.0,0.0,0.0,0.0,0.0,0.0,0.0,0.0,0.0,0.0,0.0,0.0,0.0,0.0,0.0,0.0,0.0,0.0,0.0,0.0,0.0,0.0,0.0,0.0,0.0,0.0,0.0,0.0,0.0,0.0,0.0,0.0,0.0,0.0,0.0,0.0,0.0,0.0,0.0,0.0,0.0,0.0,0.0,0.0,0.0,0.0,0.0,0.0,0.0,0.0,0.0,0.0,0.0,0.0,0.0,0.0,0.0,0.0,0.0,0.0,0.0,0.0,0.2261,0.0,0.0,0.0,0.0,0.0,0.0,0.0,0.0,0.0,0.0,0.0,0.0,0.0,0.0,0.0,0.0,0.0,0.0,0.0,0.0,0.0,0.0,0.0,0.0,0.0,0.0,0.0,0.0,0.0,0.0,0.0,0.0,0.0,0.0,0.0,0.0,0.0,0.0,0.0,0.0,0.0,0.0,0.0,0.0,0.0,0.0,0.0,0.0,0.0,0.0,0.0,0.0,0.0,0.0,0.0,0.0,0.0,0.0,0.0,0.0,0.0,0.0,0.0,0.0,0.0,0.0,0.0,0.0,0.0,0.0,0.0,0.0,0.0,0.0,0.0,0.0,0.0,0.0,0.0,0.0,0.0,0.0,0.0,0.0,0.0,0.0,0.0,0.0,0.0,0.0,0.0,0.0,0.0,0.0,0.0,0.0,0.0,0.0,0.0,0.0,0.0,0.0,0.0,0.0,0.0,0.0,0.0,0.0,0.0,0.0,-0.0329,0.0041,0.0419,0.0854,0.1366,0.0,0.0,0.0,0.0,0.0,0.0,0.0,0.0,0.0,0.0,0.0,0.0,0.0,0.0,0.0,0.0,0.0,0.0,0.0,0.0,0.0,0.0,0.0,0.0,0.0,0.0,0.0,0.0,0.0,0.0,0.0,0.0,0.0,0.0,0.0,0.0,0.0,0.0,0.0,0.0,0.0,0.0,0.0,0.0,0.0,0.0,0.0,0.0,0.0,0.0,0.0,0.0,0.0,0.0,0.0,0.0,0.0,0.0,0.0,0.0,0.0,0.0,0.0,0.0,0.0,0.0,0.0,0.0,0.0,0.0,0.0,0.0,0.0,0.0,0.0,0.0,0.0,0.0,0.0,0.0,0.0,0.0,0.0,0.0,0.0,0.0,0.0,0.0,0.0,0.0,0.0,0.0,0.0,0.0,0.0,0.0,0.0,0.0,0.0,0.0,0.0,0.0,0.0,0.0,0.0,0.0,0.0,0.0,0.0,0.0,0.0,0.0,-0.0371,0.0127,0.0682,0.0,0.0,0.0,0.0,0.0,0.0,0.0,0.0,0.0,0.0,0.0,0.0,0.0,0.0,0.0,0.0,0.0,0.0,0.0,0.0,0.0,0.0,0.0,0.0,0.0,0.0,0.0,0.0,0.0,0.0,0.0,0.0,0.0,0.0,0.0,0.0,0.0,0.0,0.0,0.0,0.0,0.0,0.0,0.0,0.0,0.0,0.0,0.0,0.0,0.0,0.0,0.0,0.0,0.0,0.0,0.0,0.0,0.0,0.0,0.0,0.0,0.0,0.0,0.0,0.0,0.0,0.0,0.0,0.0,0.0,0.0,0.0,0.0,0.0,0.0,0.0,0.0,0.0,0.0,0.0,0.0,0.0,0.0,0.0,0.0,0.0,0.0,0.0,0.0,0.0,0.0,0.0,0.0,0.0,0.0,0.0,0.0,0.0,0.0,0.0,0.0,0.0,0.0,0.0,0.0,0.0,0.0,0.0,0.0,0.0,-0.1432,-0.1257,-0.0788,0.0,0.0667,0.0,0.0,0.0,0.0,0.0,0.0,0.0,0.0,0.0,0.0,0.0,0.0,0.0,0.0,0.0,0.0,0.0,0.0,0.0,0.0,0.0,0.0,0.0,0.0,0.0,0.0,0.0,0.0,0.0,0.0,0.0,0.0,0.0,0.0,0.0,0.0,0.0,0.0,0.0,0.0,0.0,0.0,0.0,0.0,0.0,0.0,0.0,0.0,0.0,0.0,0.0,0.0,0.0,0.0,0.0,0.0,0.0,0.0,0.0,0.0,0.0,0.0,0.0,0.0,0.0,0.0,0.0,0.0,0.0,0.0,0.0,0.0,0.0,0.0,0.0,0.0,0.0,0.0,0.0,0.0,0.0,0.0,0.0,0.0,0.0,0.0,0.0,0.0,0.0,0.0,0.0,0.0,0.0,0.0,0.0,0.0,0.0,0.0,0.0,0.0,0.0,0.0,0.0,0.0,0.0,0.0,0.0,0.0,0.0,0.0,-0.2223,-0.2072,-0.1431,-0.0782,0.0,0.0,0.0,0.0,0.0,0.0,0.0,0.0,0.0,0.0,0.0,0.0,0.0,0.0,0.0,0.0,0.0,0.0,0.0,0.0,0.0,0.0,0.0,0.0,0.0,0.0,0.0,0.0,0.0,0.0,0.0,0.0,0.0,0.0,0.0,0.0,0.0,0.0,0.0,0.0,0.0,0.0,0.0,0.0,0.0,0.0,0.0,0.0,0.0,0.0,0.0,0.0,0.0,0.0,0.0,0.0,0.0,0.0,0.0,0.0,0.0,0.0,0.0,0.0,0.0,0.0,0.0,0.0,0.0,0.0,0.0,0.0,0.0,0.0,0.0,0.0,0.0,0.0,0.0,0.0,0.0,0.0,0.0,0.0,0.0,0.0,0.0,0.0,0.0,0.0,0.0,0.0,0.0,0.0,0.0,0.0,0.0,0.0,0.0,0.0,0.0,0.0,0.0,0.0,0.0,0.0,0.0,0.0,0.0,0.0,-0.3206,-0.2985,-0.275,-0.2014,-0.1412,-0.1031,0.0,0.0,0.0,0.0,0.0,0.0,0.0,0.0,0.0,0.0,0.0,0.0,0.0,0.0,0.0,0.0,0.0,0.0,0.0,0.0,0.0,0.0,0.0,0.0,0.0,0.0,0.0,0.0,0.0,0.0,0.0,0.0,0.0,0.0,0.0,0.0,0.0,0.0,0.0,0.0,0.0,0.0,0.0,0.0,0.0,0.0,0.0,0.0,0.0,0.0,0.0,0.0,0.0,0.0,0.0,0.0,0.0,0.0,0.0,0.0,0.0,0.0,0.0,0.0,0.0,0.0,0.0,0.0,0.0,0.0,0.0,0.0,0.0,0.0,0.0,0.0,0.0,0.0,0.0,0.0,0.0,0.0,0.0,0.0,0.0,0.0,0.0,0.0,0.0,0.0,0.0,0.0,0.0,0.0,0.0,0.0,0.0,0.0,0.0,0.0,0.0,0.0,0.0,0.0,0.0,0.0,0.0,0.0,-0.4056,-0.3847,-0.3607,-0.327,-0.2541,-0.2063,0.0,0.0,0.0,0.0,0.0,0.0,0.0,0.0,0.0,0.0,0.0,0.0,0.0,0.0,0.0,0.0,0.0,0.0,0.0,0.0,0.0,0.0,0.0,0.0,0.0,0.0,0.0,0.0,0.0,0.0,0.0,0.0,0.0,0.0,0.0,0.0,0.0,0.0,0.0,0.0,0.0,0.0,0.0,0.0,0.0,0.0,0.0,0.0,0.0,0.0,0.0,0.0,0.0,0.0,0.0,0.0,0.0,0.0,0.0,0.0,0.0,0.0,0.0,0.0,0.0,0.0,0.0,0.0,0.0,0.0,0.0,0.0,0.0,0.0,0.0,0.0,0.0,0.0,0.0,0.0,0.0,0.0,0.0,0.0,0.0,0.0,0.0,0.0,0.0,0.0,0.0,0.0,0.0,0.0,0.0,0.0,0.0,0.0,0.0,0.0,0.0,0.0,0.0,0.0,0.0,0.0,0.0,0.0,0.0,-0.4677,-0.4478,-0.4242,-0.3898,-0.3358,-0.2914,0.0,0.0,0.0,0.0,0.0,0.0,0.0,0.0,0.0,0.0,0.0,0.0,0.0,0.0,0.0,0.0,0.0,0.0,0.0,0.0,0.0,0.0,0.0,0.0,0.0,0.0,0.0,0.0,0.0,0.0,0.0,0.0,0.0,0.0,0.0,0.0,0.0,0.0,0.0,0.0,0.0,0.0,0.0,0.0,0.0,0.0,0.0,0.0,0.0,0.0,0.0,0.0,0.0,0.0,0.0,0.0,0.0,0.0,0.0,0.0,0.0,0.0,0.0,0.0,0.0,0.0,0.0,0.0,0.0,0.0,0.0,0.0,0.0,0.0,0.0,0.0,0.0,0.0,0.0,0.0,0.0,0.0,0.0,0.0,0.0,0.0,0.0,0.0,0.0,0.0,0.0,0.0,0.0,0.0,0.0,0.0,0.0,0.0,0.0,0.0,0.0,0.0,0.0,0.0,0.0,0.0,0.0,0.0,0.0,-0.5377,0.0,-0.4912,-0.464,-0.4251,-0.3808,0.0,0.0,0.0,0.0,0.0,0.0,0.0,0.0,0.0,0.0,0.0,0.0,0.0,0.0,0.0,0.0,0.0,0.0,0.0,0.0,0.0,0.0,0.0,0.0,0.0,0.0,0.0,0.0,0.0,0.0,0.0,0.0,0.0,0.0,0.0,0.0,0.0,0.0,0.0,0.0,0.0,0.0,0.0,0.0,0.0,0.0,0.0,0.0,0.0,0.0,0.0,0.0,0.0,0.0,0.0,0.0,0.0,0.0,0.0,0.0,0.0,0.0,0.0,0.0,0.0,0.0,0.0,0.0,0.0,0.0,0.0,0.0,0.0,0.0,0.0,0.0,0.0,0.0,0.0,0.0,0.0,0.0,0.0,0.0,0.0,0.0,0.0,0.0,0.0,0.0,0.0,0.0,0.0,0.0,0.0,0.0,0.0,0.0,0.0,0.0,0.0,0.0,0.0,0.0,0.0,0.0,0.0,0.0,-0.6469,-0.6127,-0.599,-0.576,-0.5513,-0.5181,-0.4652,0.0,0.0,0.0,0.0,0.0,0.0,0.0,0.0,0.0,0.0,0.0,0.0,0.0,0.0,0.0,0.0,0.0,0.0,0.0,0.0,0.0,0.0,0.0,0.0,0.0,0.0,0.0,0.0,0.0,0.0,0.0,0.0,0.0,0.0,0.0,0.0,0.0,0.0,0.0,0.0,0.0,0.0,0.0,0.0,0.0,0.0,0.0,0.0,0.0,0.0,0.0,0.0,0.0,0.0,0.0,0.0,0.0,0.0,0.0,0.0,0.0,0.0,0.0,0.0,0.0,0.0,0.0,0.0,0.0,0.0,0.0,0.0,0.0,0.0,0.0,0.0,0.0,0.0,0.0,0.0,0.0,0.0,0.0,0.0,0.0,0.0,0.0,0.0,0.0,0.0,0.0,0.0,0.0,0.0,0.0,0.0,0.0,0.0,0.0,0.0,0.0,0.0,0.0,0.0,0.0,0.0,0.0,0.0,0.0,-0.6949,-0.6685,-0.6455,-0.6104,-0.5703,-0.5176,0.0,0.0,0.0,0.0,0.0,0.0,0.0,0.0,0.0,0.0,0.0,0.0,0.0,0.0,0.0,0.0,0.0,0.0,0.0,0.0,0.0,0.0,0.0,0.0,0.0,0.0,0.0,0.0,0.0,0.0,0.0,0.0,0.0,0.0,0.0,0.0,0.0,0.0,0.0,0.0,0.0,0.0,0.0,0.0,0.0,0.0,0.0,0.0,0.0,0.0,0.0,0.0,0.0,0.0,0.0,0.0,0.0,0.0,0.0,0.0,0.0,0.0,0.0,0.0,0.0,0.0,0.0,0.0,0.0,0.0,0.0,0.0,0.0,0.0,0.0,0.0,0.0,0.0,0.0,0.0,0.0,0.0,0.0,0.0,0.0,0.0,0.0,0.0,0.0,0.0,0.0,0.0,0.0,0.0,0.0,0.0,0.0,0.0,0.0,0.0,0.0,0.0,0.0,0.0,0.0,0.0,0.0,0.0,0.0,-0.8065,-0.7693,-0.7262,-0.6853,-0.6575,-0.6025,-0.5315,0.0,0.0,0.0,0.0,0.0,0.0,0.0,0.0,0.0,0.0,0.0,0.0,0.0,0.0,0.0,0.0,0.0,0.0,0.0,0.0,0.0,0.0,0.0,0.0,0.0,0.0,0.0,0.0,0.0,0.0,0.0,0.0,0.0,0.0,0.0,0.0,0.0,0.0,0.0,0.0,0.0,0.0,0.0,0.0,0.0,0.0,0.0,0.0,0.0,0.0,0.0,0.0,0.0,0.0,0.0,0.0,0.0,0.0,0.0,0.0,0.0,0.0,0.0,0.0,0.0,0.0,0.0,0.0,0.0,0.0,0.0,0.0,0.0,0.0,0.0,0.0,0.0,0.0,0.0,0.0,0.0,0.0,0.0,0.0,0.0,0.0,0.0,0.0,0.0,0.0,0.0,0.0,0.0,0.0,0.0,0.0,0.0,0.0,0.0,0.0,0.0,0.0,0.0,0.0,0.0,0.0,0.0,0.0,-0.946,-0.8847,-0.8244,-0.7745,-0.7644,-0.718,0.0,0.0,0.0,0.0,0.0,0.0,0.0,0.0,0.0,0.0,0.0,0.0,0.0,0.0,0.0,0.0,0.0,0.0,0.0,0.0,0.0,0.0,0.0,0.0,0.0,0.0,0.0,0.0,0.0,0.0,0.0,0.0,0.0,0.0,0.0,0.0,0.0,0.0,0.0,0.0,0.0,0.0,0.0,0.0,0.0,0.0,0.0,0.0,0.0,0.0,0.0,0.0,0.0,0.0,0.0,0.0,0.0,0.0,0.0,0.0,0.0,0.0,0.0,0.0,0.0,0.0,0.0,0.0,0.0,0.0,0.0,0.0,0.0,0.0,0.0,0.0,0.0,0.0,0.0,0.0,0.0,0.0,0.0,0.0,0.0,0.0,0.0,0.0,0.0,0.0,0.0,0.0,0.0,0.0,0.0,0.0,0.0,0.0,0.0,0.0,0.0,0.0,0.0,0.0,0.0,0.0,0.0,0.0,0.0,-1.0196,-1.0071,-0.9654,-0.886,-0.8201,-0.7662,0.0,0.0,0.0,0.0,0.0,0.0,0.0,0.0,0.0,0.0,0.0,0.0,0.0,0.0,0.0,0.0,0.0,0.0,0.0,0.0,0.0,0.0,0.0,0.0,0.0,0.0,0.0,0.0,0.0,0.0,0.0,0.0,0.0,0.0,0.0,0.0,0.0,0.0,0.0,0.0,0.0,0.0,0.0,0.0,0.0,0.0,0.0,0.0,0.0,0.0,0.0,0.0,0.0,0.0,0.0,0.0,0.0,0.0,0.0,0.0,0.0,0.0,0.0,0.0,0.0,0.0,0.0,0.0,0.0,0.0,0.0,0.0,0.0,0.0,0.0,0.0,0.0,0.0,0.0,0.0,0.0,0.0,0.0,0.0,0.0,0.0,0.0,0.0,0.0,0.0,0.0,0.0,0.0,0.0,0.0,0.0,0.0,0.0,0.0,0.0,0.0,0.0,0.0,0.0,0.0,0.0,0.0,0.0,-1.063,-1.0948,-1.1011,-1.0833,-1.0518,-0.9348,-0.8485,0.0,0.0,0.0,0.0,0.0,0.0,0.0,0.0,0.0,0.0,0.0,0.0,0.0,0.0,0.0,0.0,0.0,0.0,0.0,0.0,0.0,0.0,0.0,0.0,0.0,0.0,0.0,0.0,0.0,0.0,0.0,0.0,0.0,0.0,0.0,0.0,0.0,0.0,0.0,0.0,0.0,0.0,0.0,0.0,0.0,0.0,0.0,0.0,0.0,0.0,0.0,0.0,0.0,0.0,0.0,0.0,0.0,0.0,0.0,0.0,0.0,0.0,0.0,0.0,0.0,0.0,0.0,0.0,0.0,0.0,0.0,0.0,0.0,0.0,0.0,0.0,0.0,0.0,0.0,0.0,0.0,0.0,0.0,0.0,0.0,0.0,0.0,0.0,0.0,0.0,0.0,0.0,0.0,0.0,0.0,0.0,0.0,0.0,0.0,0.0,0.0,0.0,0.0,0.0,0.0,0.0,0.0,0.0,-1.1108,-1.1764,-1.1827,-1.1959,-1.2223,-1.0729,-0.9534,0.0,0.0,0.0,0.0,0.0,0.0,0.0,0.0,0.0,0.0,0.0,0.0,0.0,0.0,0.0,0.0,0.0,0.0,0.0,0.0,0.0,0.0,0.0,0.0,0.0,0.0,0.0,0.0,0.0,0.0,0.0,0.0,0.0,0.0,0.0,0.0,0.0,0.0,0.0,0.0,0.0,0.0,0.0,0.0,0.0,0.0,0.0,0.0,0.0,0.0,0.0,0.0,0.0,0.0,0.0,0.0,0.0,0.0,0.0,0.0,0.0,0.0,0.0,0.0,0.0,0.0,0.0,0.0,0.0,0.0,0.0,0.0,0.0,0.0,0.0,0.0,0.0,0.0,0.0,0.0,0.0,0.0,0.0,0.0,0.0,0.0,0.0,0.0,0.0,0.0,0.0,0.0,0.0,0.0,0.0,0.0,0.0,0.0,0.0,0.0,0.0,0.0,0.0,0.0,0.0,0.0,0.0,0.0,-1.2625,-1.3044,-1.3102,-1.3088,-1.2888,-1.1419,-1.0528,0.0,0.0,0.0,0.0,0.0,0.0,0.0,0.0,0.0,0.0,0.0,0.0,0.0,0.0,0.0,0.0,0.0,0.0,0.0,0.0,0.0,0.0,0.0,0.0,0.0,0.0,0.0,0.0,0.0,0.0,0.0,0.0,0.0,0.0,0.0,0.0,0.0,0.0,0.0,0.0,0.0,0.0,0.0,0.0,0.0,0.0,0.0,0.0,0.6791,0.0,0.0,0.0,0.0,0.0,0.0,0.0,0.0,0.0,0.0,0.0,0.0,0.0,0.0,0.0,0.0,0.0,0.0,0.0,0.0,0.0,0.0,0.0,0.0,0.0,0.0,0.0,0.0,0.0,0.0,0.0,0.0,0.0,0.0,0.0,0.0,0.0,0.0,0.0,0.0,0.0,0.0,0.0,0.0,0.0,0.0,0.0,0.0,0.0,0.0,0.0,0.0,0.0,0.0,0.0,0.0,0.0,0.0,0.0,-1.3612,-1.4117,-1.4292,-1.4237,-1.3995,-1.2857,-1.1759,0.0,0.0,0.0,0.0,0.0,0.0,0.0,0.0,0.0,0.0,0.0,0.0,0.0,0.0,0.0,0.0,0.0,0.0,0.0,0.0,0.0,0.0,0.0,0.0,0.0,0.0,0.0,0.0,0.0,0.0,0.0,0.0,0.0,0.0,0.0,0.0,0.0,0.0,0.0,0.0,0.0,0.0,0.0,0.0,0.0,0.0,0.0,0.0,0.0,0.0,0.0,0.0,0.0,0.0,0.0,0.0,0.0,0.0,0.0,0.0,0.0,0.0,0.0,0.0,0.0,0.0,0.0,0.0,0.0,0.0,0.0,0.0,0.0,0.0,0.0,0.0,0.0,0.0,0.0,0.0,0.0,0.0,0.0,0.0,0.0,0.0,0.0,0.0,0.0,0.0,0.0,0.0,0.0,0.0,0.0,0.0,0.0,0.0,0.0,0.0,0.0,0.0,0.0,0.0,0.0,0.0,0.0,-1.3726,-1.4429,-1.5093,-1.5349,-1.5406,-1.5287,-1.452,-1.3271,-1.1481,0.0,0.0,0.0,0.0,0.0,0.0,0.0,0.0,0.0,0.0,0.0,0.0,0.0,0.0,0.0,0.0,0.0,0.0,0.0,0.0,0.0,0.0,0.0,0.0,0.0,0.0,0.0,0.0,0.0,0.0,0.0,0.0,0.0,0.0,0.0,0.0,0.0,0.0,0.5785,0.5817,0.0,0.0,0.0,0.0,0.0,0.0,0.0,0.0,0.5963,0.0,0.0,0.0,0.0,0.0,0.0,0.0,0.0,0.0,0.0,0.0,0.0,0.0,0.0,0.0,0.0,0.0,0.0,0.0,0.0,0.0,0.0,0.0,0.0,0.0,0.0,0.0,0.0,0.0,0.0,0.0,0.0,0.0,0.0,0.0,0.0,0.0,0.0,0.0,0.0,0.0,0.0,0.0,0.0,0.0,0.0,0.0,0.0,0.0,0.0,0.0,0.0,0.0,0.0,0.0,0.0,-1.4067,-1.4767,-1.5388,-1.5988,-1.6417,-1.6485,-1.6266,-1.5832,-1.4896,-1.326,0.0,0.0,0.0,0.0,0.0,0.0,0.0,0.0,0.0,0.0,0.0,0.0,0.0,0.0,0.0,0.0,0.0,0.0,0.0,0.0,0.0,0.0,0.0,0.0,0.0,0.0,0.0,0.0,0.0,0.0,0.0,0.0,0.0,0.0,0.0,0.0,0.0,0.0,0.0,0.5411,0.533,0.0,0.0,0.0,0.0,0.0,0.0,0.0,0.0,0.6214,0.0,0.0,0.0,0.0,0.0,0.0,0.0,0.0,0.0,0.0,0.0,0.0,0.0,0.0,0.0,0.0,0.0,0.0,0.0,0.0,0.0,0.0,0.0,0.0,0.0,0.0,0.0,0.0,0.0,0.0,0.0,0.0,0.0,0.0,0.0,0.0,0.0,0.0,0.0,0.0,0.0,0.0,0.0,0.0,0.0,0.0,0.0,0.0,0.0,0.0,0.0,0.0,0.0,0.0,0.0,-1.4997,-1.5892,-1.6665,-1.7344,-1.7506,-1.7477,-1.7227,-1.6553,-1.5551,0.0,0.0,0.0,0.0,0.0,0.0,0.0,0.0,0.0,0.0,0.0,0.0,0.0,0.0,0.0,0.0,0.0,0.0,0.0,0.0,0.0,0.0,0.0,0.0,0.0,0.0,0.0,0.0,0.0,0.0,0.0,0.0,0.0,0.0,0.0,0.0,0.0,0.0,0.0,0.0,0.4955,0.4943,0.4943,0.0,0.0,0.0,0.0,0.0,0.0,0.5726,0.5923,0.0,0.0,0.0,0.0,0.0,0.0,0.0,0.0,0.0,0.0,0.0,0.0,0.0,0.0,0.0,0.0,0.0,0.0,0.0,0.0,0.0,0.0,0.0,0.0,0.0,0.0,0.0,0.0,0.0,0.0,0.0,0.0,0.0,0.0,0.0,0.0,0.0,0.0,0.0,0.0,0.0,0.0,0.0,0.0,0.0,0.0,0.0,0.0,0.0,0.0,0.0,0.0,0.0,0.0,0.0,-1.5759,-1.6741,-1.7682,-1.8537,-1.8494,-1.8325,-1.8094,-1.7177,-1.615,0.0,0.0,0.0,0.0,0.0,0.0,0.0,0.0,0.0,0.0,0.0,0.0,0.0,0.0,0.0,0.0,0.0,0.0,0.0,0.0,0.0,0.0,0.0,0.0,0.0,0.0,0.0,0.0,0.0,0.0,0.0,0.0,0.0,0.0,0.0,0.0,0.0,0.0,0.0,0.0,0.0,0.4601,0.4554,0.4558,0.0,0.0,0.0,0.0,0.5273,0.5408,0.0,0.0,0.0,0.0,0.0,0.0,0.0,0.0,0.0,0.0,0.0,0.0,0.0,0.0,0.0,0.0,0.0,0.0,0.0,0.0,0.0,0.0,0.0,0.0,0.0,0.0,0.0,0.0,0.0,0.0,0.0,0.0,0.0,0.0,0.0,0.0,0.0,0.0,0.0,0.0,0.0,0.0,0.0,0.0,0.0,0.0,0.0,0.0,0.0,0.0,0.0,0.0,0.0,0.0,0.0,0.0,-1.6226,-1.7111,-1.7986,-1.8818,-1.9033,-1.9,-1.8728,-1.8313,-1.7231,0.0,0.0,0.0,0.0,0.0,0.0,0.0,0.0,0.0,0.0,0.0,0.0,0.0,0.0,0.0,0.0,0.0,0.0,0.0,0.0,0.0,0.0,0.0,0.0,0.0,0.0,0.0,0.0,0.0,0.0,0.0,0.0,0.0,0.0,0.0,0.0,0.0,0.0,0.0,0.0,0.0,0.4085,0.414,0.4148,0.4151,0.0,0.0,0.5053,0.5124,0.5383,0.0,0.0,0.0,0.0,0.0,0.0,0.0,0.0,0.0,0.0,0.0,0.0,0.0,0.0,0.0,0.0,0.0,0.0,0.0,0.0,0.0,0.0,0.0,0.0,0.0,0.0,0.0,0.0,0.0,0.0,0.0,0.0,0.0,0.0,0.0,0.0,0.0,0.0,0.0,0.0,0.0,0.0,0.0,0.0,0.0,0.0,0.0,0.0,0.0,0.0,0.0,0.0,0.0,0.0,0.0,-1.6471,-1.7119,-1.7762,-1.8568,-1.9345,-1.9481,-1.9363,-1.9073,-1.8557,-1.7601,0.0,0.0,0.0,0.0,0.0,0.0,0.0,0.0,0.0,0.0,0.0,0.0,0.0,0.0,0.0,0.0,0.0,0.0,0.0,0.0,0.0,0.0,0.0,0.0,0.0,0.0,0.0,0.0,0.0,0.0,0.0,0.0,0.0,0.0,0.0,0.0,0.0,0.0,0.0,0.0,0.0,0.0,0.3544,0.3507,0.0,0.0,0.0,0.4492,0.4999,0.0,0.0,0.0,0.0,0.0,0.0,0.0,0.0,0.0,0.0,0.0,0.0,0.0,0.0,0.0,0.0,0.0,0.0,0.0,0.0,0.0,0.0,0.0,0.0,0.0,0.0,0.0,0.0,0.0,0.0,0.0,0.0,0.0,0.0,0.0,0.0,0.0,0.0,0.0,0.0,0.0,0.0,0.0,0.0,0.0,0.0,0.0,0.0,0.0,0.0,0.0,0.0,0.0,0.0,0.0,0.0,0.0,-1.7766,-1.8273,-1.8901,-1.9773,-1.974,-1.9619,-1.9311,-1.8724,0.0,0.0,0.0,0.0,0.0,0.0,0.0,0.0,0.0,0.0,0.0,0.0,0.0,0.0,0.0,0.0,0.0,0.0,0.0,0.0,0.0,0.0,0.0,0.0,0.0,0.0,0.0,-0.2385,0.0,0.0,0.0,0.0,0.0,0.0,0.0,0.0,0.0,0.0,0.0,0.0,0.0,0.0,0.2808,0.2753,0.2787,0.3025,0.0,0.0,0.4018,0.4617,0.4863,0.5037,0.0,0.0,0.0,0.0,0.0,0.0,0.0,0.0,0.0,0.0,0.0,0.0,0.0,0.0,0.0,0.0,0.0,0.0,0.0,0.0,0.0,0.0,0.0,0.0,0.0,0.0,0.0,0.0,0.0,0.0,0.0,0.0,0.0,0.0,0.0,0.0,0.0,0.0,0.0,0.0,0.0,0.0,0.0,0.0,0.0,0.0,0.0,0.0,0.0,0.0,0.0,0.0,0.0,0.0,-1.7422,-1.7982,-1.8337,-1.8907,-1.9773,-1.9774,-1.9655,-1.9298,-1.9026,-1.8298,0.0,0.0,0.0,0.0,0.0,0.0,0.0,0.0,0.0,0.0,0.0,0.0,0.0,0.0,0.0,0.0,0.0,0.0,0.0,0.0,0.0,0.0,0.0,0.0,0.0,0.0,0.0,0.0,0.0,0.0,0.0,0.0,0.0,0.0,0.0,0.0,0.0,0.0,0.0,0.0,0.0,0.2023,0.1708,0.2008,0.2303,0.0,0.3219,0.3923,0.3998,0.4552,0.5039,0.5039,0.0,0.0,0.0,0.0,0.0,0.0,0.0,0.0,0.0,0.0,0.0,0.0,0.0,0.0,0.0,0.0,0.0,0.0,0.0,0.0,0.0,0.0,0.0,0.0,0.0,0.0,0.0,0.0,0.0,0.0,0.0,0.0,0.0,0.0,0.0,0.0,0.0,0.0,0.0,0.0,0.0,0.0,0.0,0.0,0.0,0.0,0.0,0.0,0.0,0.0,0.0,0.0,0.0,-1.7528,-1.8303,-1.8448,-1.8848,-1.9506,-1.9687,-1.9687,-1.9357,-1.9042,-1.8479,0.0,0.0,0.0,0.0,0.0,0.0,0.0,0.0,0.0,0.0,0.0,0.0,0.0,0.0,0.0,0.0,0.0,0.0,0.0,0.0,0.0,0.0,0.0,0.0,0.0,0.0,0.0,0.0,-0.3036,-0.2774,-0.2599,0.0,0.0,0.0,0.0,0.0,0.0,0.0,0.0,0.0,0.0,0.1439,0.132,0.1409,0.0,0.0,0.2643,0.3088,0.3592,0.3852,0.3973,0.4044,0.407,0.0,0.0,0.0,0.0,0.0,0.0,0.0,0.0,0.0,0.0,0.0,0.0,0.0,0.0,0.0,0.0,0.0,0.0,0.0,0.0,0.0,0.0,0.0,0.0,0.0,0.0,0.0,0.0,0.0,0.0,0.0,0.0,0.0,0.0,0.0,0.0,0.0,0.0,0.0,0.0,0.0,0.0,0.0,0.0,0.0,0.0,0.0,0.0,0.0,0.0,0.0,0.0,-1.7769,-1.8477,-1.8584,-1.8865,-1.9359,-1.9573,-1.9573,-1.9386,-1.909,-1.8618,0.0,0.0,0.0,0.0,0.0,0.0,0.0,0.0,0.0,0.0,0.0,0.0,0.0,0.0,0.0,0.0,0.0,0.0,0.0,0.0,0.0,0.0,0.0,0.0,0.0,0.0,0.0,0.0,-0.3532,-0.3142,-0.2697,0.0,0.0,0.0,0.0,0.0,0.0,0.0,0.0,0.0,0.0,0.0628,0.0564,0.0714,0.1008,0.1726,0.2102,0.2478,0.3063,0.3329,0.3453,0.3453,0.0,0.0,0.0,0.0,0.0,0.0,0.0,0.0,0.0,0.0,0.0,0.0,0.0,0.0,0.0,0.0,0.0,0.0,0.0,0.0,0.0,0.0,0.0,0.0,0.0,0.0,0.0,0.0,0.0,0.0,-1.9629,0.0,0.0,0.0,0.0,0.0,0.0,0.0,0.0,0.0,0.0,0.0,0.0,0.0,0.0,0.0,0.0,0.0,0.0,0.0,0.0,0.0,0.0,-1.817,-1.849,-1.8758,-1.9065,-1.9417,-1.943,-1.943,-1.943,-1.9068,-1.8706,-1.8357,0.0,0.0,0.0,0.0,0.0,0.0,0.0,0.0,0.0,0.0,0.0,0.0,0.0,0.0,0.0,0.0,0.0,0.0,0.0,0.0,0.0,0.0,0.0,0.0,0.0,0.0,-0.4772,-0.4166,-0.3515,0.0,0.0,0.0,0.0,0.0,0.0,0.0,0.0,0.0,0.0,-0.0355,-0.0572,-0.0572,-0.0217,0.0146,0.0583,0.1531,0.226,0.2333,0.2988,0.35,0.0,0.0,0.0,0.0,0.0,0.0,0.0,0.0,0.0,0.0,0.0,0.0,0.0,0.0,0.0,0.0,0.0,0.0,0.0,0.0,0.0,0.0,0.0,0.0,0.0,0.0,0.0,-2.24,-2.2025,0.0,0.0,0.0,0.0,0.0,0.0,0.0,0.0,0.0,0.0,0.0,-2.1178,-2.1322,0.0,0.0,0.0,0.0,0.0,0.0,0.0,0.0,0.0,0.0,0.0,0.0,-1.8454,-1.8758,-1.8878,-1.9065,-1.9417,-1.943,-1.943,-1.943,-1.9055,-1.8532,-1.783,0.0,0.0,0.0,0.0,0.0,0.0,0.0,0.0,0.0,0.0,0.0,0.0,0.0,0.0,0.0,0.0,0.0,0.0,0.0,0.0,0.0,0.0,0.0,0.0,0.0,-0.6255,0.0,0.0,0.0,0.0,0.0,0.0,0.0,0.0,0.0,0.0,0.0,-0.0845,-0.0781,-0.0928,-0.1005,-0.1014,-0.0873,-0.0584,0.0,0.0,0.0,0.0,0.0,0.0,0.0,0.0,0.0,0.0,0.0,0.0,0.0,0.0,0.4187,0.5336,0.5884,0.6327,0.6481,0.0,0.0,0.0,0.0,0.0,0.0,0.0,0.0,0.0,0.0,0.0,0.0,0.0,0.0,-2.3215,0.0,-2.2211,0.0,0.0,0.0,0.0,0.0,0.0,0.0,0.0,-2.218,-2.2554,-2.2792,-2.2787,-2.2811,0.0,-2.2708,-2.1812,0.0,0.0,0.0,0.0,0.0,0.0,0.0,0.0,-1.8919,-1.9074,-1.9082,-1.9225,-1.9506,-1.9519,-1.9519,-1.9519,-1.9108,-1.8583,-1.7966,-1.773,-1.7244,0.0,0.0,0.0,0.0,0.0,0.0,0.0,0.0,0.0,0.0,0.0,0.0,0.0,0.0,0.0,0.0,0.0,0.0,0.0,0.0,0.0,0.0,0.0,-0.6972,0.0,0.0,0.0,0.0,0.0,0.0,0.0,0.0,0.0,-0.1486,-0.149,-0.1498,-0.1438,-0.1512,-0.1517,-0.1457,0.0,0.0,0.0,0.0,0.0,0.0,0.0,0.0813,0.0961,0.0813,0.0741,0.0747,0.1054,0.1363,0.1666,0.0,0.0,0.4366,0.4977,0.5409,0.5806,0.6284,0.6681,0.6895,0.7726,0.8315,0.0,0.0,0.0,0.0,0.0,0.0,0.0,0.0,-2.4318,-2.3824,0.0,-2.3107,0.0,0.0,0.0,0.0,0.0,-2.3036,0.0,0.0,-2.4241,-2.4614,-2.4562,-2.4069,-2.3804,-2.3787,-2.3288,-2.3021,-2.2934,-2.2145,0.0,0.0,0.0,0.0,0.0,0.0,-1.9441,-1.9468,-1.9411,-1.9578,-1.98,-1.9813,-1.9813,-1.9813,-1.924,-1.8933,-1.8822,-1.8249,-1.7889,-1.7822,-1.6836,0.0,0.0,0.0,0.0,0.0,0.0,0.0,0.0,0.0,0.0,0.0,0.0,0.0,0.0,0.0,0.0,0.0,0.0,0.0,0.0,-0.849,0.0,0.0,0.0,0.0,0.0,0.0,0.0,0.0,0.0,0.0,-0.1941,-0.2099,-0.2187,-0.1894,0.0,0.0,0.0,0.0,-0.1685,-0.1261,-0.0892,-0.0523,-0.0076,-0.0076,0.0,0.0378,0.0,0.0,-0.0152,0.0152,0.0455,0.0455,0.1063,0.1972,0.311,0.3717,0.4431,0.5315,0.5501,0.578,0.6378,0.7044,0.7706,-2.9486,0.0,0.0,0.0,0.0,-2.7158,-2.6863,-2.6547,-2.6051,-2.5745,-2.5561,-2.5043,0.0,0.0,0.0,0.0,0.0,0.0,-2.4241,-2.4276,-2.5041,-2.5414,-2.5432,-2.5816,-2.6025,-2.5969,-2.5613,-2.5275,-2.5105,-2.4611,-2.3407,-2.1557,0.0,0.0,0.0,0.0,-2.0316,-2.0394,-2.0154,-2.0169,-2.0408,-2.0227,-2.0107,-2.0107,-1.9907,-1.9713,-1.9516,-1.914,-1.8679,-1.8202,-1.7649,0.0,0.0,0.0,0.0,0.0,0.0,0.0,0.0,0.0,0.0,0.0,0.0,0.0,0.0,0.0,0.0,0.0,0.0,0.0,-1.0341,-0.9637,-0.8998,0.0,0.0,0.0,0.0,0.0,0.0,0.0,0.0,0.0,-0.3278,-0.2869,-0.2551,0.0,0.0,-0.2268,-0.2214,-0.2217,-0.2079,-0.1653,-0.1506,0.0,0.0,-0.0984,-0.0909,-0.0833,-0.0915,-0.0921,-0.0998,-0.085,-0.0777,-0.0777,-0.0391,0.0079,0.0472,0.1796,0.3057,0.3759,0.4105,0.4595,0.5356,0.6051,0.6581,-3.1085,-2.987,-2.9176,-2.8695,-2.8442,-2.8188,-2.7912,-2.7606,-2.7214,-2.6865,-2.6587,-2.6205,-2.5882,-2.5646,-2.5396,0.0,0.0,0.0,-2.568,-2.5592,-2.6336,-2.6642,-2.6567,-2.6921,-2.7097,-2.7022,-2.6734,-2.6504,-2.6331,-2.5925,-2.5007,-2.3595,0.0,0.0,-2.185,-2.1636,-2.1409,-2.1374,-2.1047,-2.0888,-2.0889,-2.0584,-2.0401,-2.0401,-2.0294,-2.0111,-1.9985,-1.974,-1.947,-1.9026,-1.8527,-1.8097,0.0,0.0,0.0,0.0,0.0,0.0,0.0,0.0,0.0,0.0,0.0,-1.2947,-1.2921,0.0,0.0,0.0,-1.2201,-1.1698,-1.1253,-1.0799,0.0,0.0,0.0,0.0,0.0,0.0,0.0,-0.5745,-0.56,-0.5223,-0.4313,-0.3884,-0.3405,-0.2739,-0.2591,-0.2599,-0.2394,0.0,-0.2332,-0.2133,-0.206,-0.1987,-0.1612,-0.1691,-0.1767,-0.1768,-0.1778,-0.1786,-0.1787,-0.1642,-0.1573,-0.1503,-0.1194,-0.0962,-0.0971,0.0161,0.1287,0.2286,0.2958,0.3628,0.4307,0.502,0.5566,-3.2096,-3.1457,-3.0139,-2.9332,-2.894,-2.8753,-2.8493,-2.8127,-2.7917,-2.7474,-2.6846,-2.6846,-2.6691,-2.6484,-2.6484,0.0,-2.6451,-2.7248,-2.7427,-2.7174,-2.7903,-2.8105,-2.7877,-2.757,-2.7416,-2.7416,-2.7186,-2.7013,-2.7031,-2.6418,-2.6127,-2.6069,-2.4959,-2.4102,-2.3641,-2.3093,-2.2647,-2.2363,-2.1944,-2.1619,-2.1252,-2.0956,-2.077,-2.077,-2.0441,-2.0318,-2.0273,-2.0224,-2.0216,-2.0094,-1.952,-1.9148,-1.9108,0.0,0.0,0.0,0.0,0.0,0.0,0.0,0.0,0.0,0.0,0.0,0.0,0.0,0.0,-1.2942,-1.2725,0.0,-1.2143,-1.1969,0.0,0.0,0.0,-0.996,-0.885,-0.87,-0.8173,-0.6974,0.0,0.0,-0.5237,-0.5089,-0.4631,-0.3419,-0.3186,-0.3031,-0.2578,-0.2502,-0.2514,-0.2622,-0.2627,-0.2482,-0.2112,-0.2273,-0.243,-0.243,-0.2514,-0.2434,-0.2434,-0.2199,-0.1973,-0.1994,-0.16,-0.1451,-0.1402,-0.1323,-0.0829,0.0746,0.1755,0.2619,0.3241,0.396,0.4677,-3.3895,-3.3194,-3.2301,-3.1175,-3.0106,-3.0051,-2.9724,-2.9231,-2.9156,-2.9062,-2.891,-2.8891,-2.8855,-2.8781,-2.8526,-2.8416,-2.8435,-2.8404,-2.8369,-2.8295,-2.8557,-2.8628,-2.8589,-2.8594,-2.8582,-2.8582,-2.8287,-2.811,-2.811,-2.7754,-2.7379,-2.7123,-2.6602,-2.5734,-2.4424,-2.3996,-2.3707,-2.3655,-2.2809,-2.2238,-2.1929,-2.1818,-2.163,-2.1379,-2.1311,-2.1123,-2.0876,-2.0637,-2.0474,-2.0475,-2.0106,-1.9747,-1.9427,-1.9114,0.0,0.0,0.0,0.0,0.0,0.0,0.0,0.0,0.0,-1.4205,-1.4181,0.0,-1.3779,0.0,-1.3515,-1.3294,-1.3184,-1.3073,0.0,0.0,-1.1884,-1.1352,-1.0545,-1.0176,-0.96,-0.8452,-0.8306,-0.7847,-0.6611,-0.6456,-0.6068,-0.5134,-0.4135,-0.3493,-0.3372,-0.3377,-0.3392,-0.343,-0.3439,-0.3365,-0.2903,-0.2592,-0.2514,-0.2514,-0.2514,-0.2514,-0.2514,-0.2435,-0.2366,-0.2395,-0.2336,-0.228,-0.2312,-0.2082,-0.1765,-0.127,-0.0255,0.1026,0.2074,0.2778,0.3304,-3.487,-3.4185,-3.3722,-3.2922,-3.1836,-3.1248,-3.0706,-3.0294,-3.0257,-3.0139,-2.996,-3.0016,-2.9905,-2.9738,-2.957,-2.9422,-2.931,-2.9371,-2.9297,-2.9203,-2.943,-2.95,-2.9394,-2.9457,-2.9522,-2.9525,-2.9161,-2.901,-2.8932,-2.8469,-2.814,-2.796,-2.7659,-2.697,-2.5906,-2.5294,-2.4852,-2.4558,-2.358,-2.2868,-2.2543,-2.2418,-2.2167,-2.1853,-2.1866,-2.1727,-2.1551,-2.1235,-2.1099,-2.1232,-2.0798,-2.0476,-2.0351,-1.9903,-1.9561,0.0,0.0,0.0,0.0,0.0,0.0,0.0,0.0,0.0,0.0,0.0,-1.4292,-1.4415,-1.4341,-1.4221,-1.3992,-1.3788,-1.3589,-1.3349,-1.3047,-1.2595,-1.206,-1.1606,-1.1023,-1.0008,-0.9547,-0.8929,-0.7911,-0.7603,-0.7135,-0.6275,-0.5584,-0.4858,-0.4112,-0.3886,-0.3739,-0.3764,-0.3846,-0.3689,-0.3454,-0.3219,-0.3063,-0.3063,-0.3063,-0.3063,-0.3063,-0.3063,-0.308,-0.3212,-0.3158,-0.3108,-0.299,-0.2775,-0.2552,-0.2062,-0.147,-0.0435,0.0874,0.167,0.2293,-3.5446,-3.4952,-3.4791,-3.4393,-3.3754,-3.258,-3.1742,-3.1284,-3.1284,-3.1043,-3.0696,-3.0696,-3.0529,-3.025,-3.025,-3.0083,-2.9934,-3.0174,-3.0255,-3.0122,-3.0354,-3.0403,-3.0279,-3.0279,-3.0222,-3.0229,-2.988,-2.9714,-2.9635,-2.9022,-2.8679,-2.8601,-2.836,-2.8041,-2.7721,-2.6888,-2.6043,-2.5181,-2.4239,-2.3604,-2.3293,-2.2981,-2.2606,-2.2292,-2.223,-2.2258,-2.2237,-2.1922,-2.1869,-2.2171,-2.1603,-2.1346,-2.1555,-2.0705,-2.0319,0.0,-1.9553,0.0,0.0,0.0,0.0,0.0,0.0,0.0,0.0,-1.5061,-1.5008,-1.4817,-1.503,-1.5066,-1.4613,-1.4477,-1.4354,-1.4286,-1.4038,-1.3744,-1.3274,-1.2888,-1.2347,-1.1572,-1.0796,-1.0019,-0.9256,-0.871,-0.8089,-0.7488,-0.7177,-0.6544,-0.5283,-0.4559,-0.4238,-0.4088,-0.4012,-0.4097,-0.4016,-0.3852,-0.3768,-0.3768,-0.3768,-0.3846,-0.3768,-0.3774,-0.3805,-0.3882,-0.3827,-0.3779,-0.3521,-0.3481,-0.3176,-0.2515,-0.219,-0.1677,-0.0354,0.0623,0.1346,-3.6992,-3.6768,-3.5862,-3.5413,-3.523,-3.4656,-3.3589,-3.2268,-3.221,-3.1948,-3.1546,-3.1546,-3.1489,-3.1489,-3.1431,-3.1411,-3.1374,-3.1166,-3.1287,-3.1564,-3.1091,-3.1063,-3.1363,-3.1119,-3.0851,-3.0618,-3.0544,-3.0384,-3.0075,-2.9941,-2.9781,-2.9454,-2.9393,-2.9207,-2.8898,0.0,0.0,0.0,-2.5042,-2.4672,-2.4301,-2.3976,-2.3666,-2.3293,-2.3043,0.0,-2.2914,-2.261,-2.2572,-2.2865,-2.2762,0.0,0.0,0.0,0.0,0.0,0.0,0.0,0.0,0.0,0.0,0.0,-1.9123,-1.8513,-1.7245,-1.6673,-1.615,-1.5553,-1.5663,-1.5702,-1.5627,-1.5725,-1.5693,-1.5387,-1.4952,-1.4584,-1.4207,-1.3744,-1.3274,-1.2811,-1.2347,-1.1772,-1.1004,-1.0318,-0.9644,-0.9242,-0.8625,-0.8148,-0.7742,-0.6587,-0.583,-0.5874,-0.5334,-0.4936,-0.4936,-0.4347,-0.4014,-0.3846,-0.3846,-0.3848,-0.3931,-0.3882,-0.3917,-0.3978,-0.3933,-0.4057,-0.3944,-0.3903,-0.3864,-0.3299,-0.2896,-0.2215,-0.0894,-0.009,0.0449,-3.7916,0.0,-3.7014,-3.6725,0.0,-3.6345,-3.5601,-3.4543,-3.3751,-3.312,-3.2706,-3.2706,-3.2592,-3.2477,-3.2305,-3.2113,-3.2018,-3.1892,-3.2016,-3.2235,-3.2137,-3.2111,-3.2235,-3.205,-3.1837,-3.1527,-3.1321,-3.1146,-3.0959,-3.0606,-3.0371,-3.0185,-3.0,-2.9751,-2.944,-2.9253,-2.8435,-2.6877,-2.6379,-2.5941,-2.5628,-2.5298,-2.4983,-2.4667,0.0,0.0,0.0,0.0,0.0,0.0,0.0,0.0,0.0,0.0,0.0,-2.2994,-2.2454,-2.2019,-2.1798,-2.1378,-2.0945,-2.0367,-2.0263,-1.9646,-1.8249,-1.7786,-1.7324,-1.6731,-1.6692,-1.6585,-1.6357,-1.6294,-1.6162,-1.6018,-1.5872,-1.5674,-1.5532,-1.5001,-1.4524,-1.421,-1.3583,-1.2831,-1.2344,-1.1714,-1.1107,-1.0523,-1.0051,-0.9653,-0.9078,-0.7957,-0.7039,-0.6836,-0.6284,-0.5799,-0.5799,-0.5534,-0.5109,-0.5109,-0.5109,-0.5109,-0.5112,-0.5136,-0.5177,-0.5234,-0.5273,-0.5228,-0.5036,-0.494,-0.4661,-0.4261,-0.3788,-0.3208,-0.1972,-0.1167,-0.0539,-3.8724,-3.8118,-3.7998,-3.7818,-3.7555,-3.7555,-3.7292,-3.6765,0.0,0.0,0.0,-3.3784,-3.3614,-3.3332,-3.3084,-3.2784,-3.2601,-3.2679,-3.2827,-3.3009,-3.3255,-3.3295,-3.3201,-3.3096,-3.2961,-3.2638,-3.2232,-3.2079,-3.1998,-3.1302,-3.1028,-3.0965,-3.0717,-3.0406,-3.0075,-2.9717,-2.9214,-2.8708,-2.7811,-2.7253,-2.6982,-2.66,-2.628,-2.6008,-2.5638,-2.5492,-2.5553,-2.5165,-2.4975,-2.4959,-2.4715,-2.4559,-2.4649,-2.4386,-2.4217,-2.4151,-2.3736,-2.319,-2.2595,-2.2463,-2.2114,-2.1437,-2.132,-2.0592,-1.9064,-1.881,-1.8571,-1.8055,-1.794,-1.7683,-1.729,-1.6992,-1.6748,-1.6832,-1.6763,-1.6834,-1.6748,-1.6219,-1.5718,-1.5575,-1.4764,-1.3916,-1.3538,-1.2983,-1.2353,-1.1733,-1.1433,-1.1086,-1.019,-0.9045,-0.805,-0.7734,-0.7251,-0.6926,-0.6845,-0.6742,-0.6742,-0.6647,-0.6732,-0.6742,-0.6742,-0.6753,-0.6788,-0.6759,-0.6787,-0.6583,-0.6398,-0.5995,-0.5645,-0.514,-0.4781,-0.4307,-0.3409,-0.2512,-0.1706,-3.9579,-3.9072,-3.8537,-3.832,-3.8261,-3.8261,-3.7948,-3.7353,-3.5821,-3.4836,-3.4379,-3.4379,-3.4233,-3.3974,-3.3918,-3.3962,-3.4016,-3.3812,-3.4098,0.0,-3.4389,-3.4289,-3.4571,-3.4322,-3.3988,-3.367,-3.3359,-3.3024,-3.2752,-3.2334,-3.2188,-3.2188,-3.2124,-3.1915,-3.1551,-3.0974,-3.0588,-3.0506,-2.8893,-2.7997,-2.7997,-2.738,-2.7062,-2.6982,-2.668,-2.6617,-2.6922,-2.6352,-2.6098,-2.6373,-2.6329,-2.6186,-2.5849,-2.5783,-2.5667,-2.5598,-2.498,-2.4453,-2.4269,-2.3914,-2.3648,-2.3455,-2.3339,-2.2429,-2.0391,-2.0342,-2.0102,-1.9413,-1.9512,-1.9433,-1.9043,-1.8876,-1.8563,-1.7983,-1.7914,-1.7618,-1.7039,-1.681,-1.6651,-1.6651,-1.5822,-1.5337,-1.5223,-1.4356,-1.3513,-1.313,-1.2751,-1.2338,-1.1665,-1.0267,-0.9231,-0.8975,-0.8565,-0.8324,-0.8328,-0.7925,-0.7827,-0.771,-0.7726,-0.7823,-0.7742,-0.7795,-0.7765,-0.7769,-0.7595,-0.7409,-0.7318,-0.6973,-0.6618,-0.6323,-0.587,-0.538,-0.4751,-0.4216,-0.3321,-4.0644,-4.015,-3.9577,-3.9367,-3.9367,-3.9344,-3.9068,-3.8585,-3.7897,-3.6725,-3.5446,-3.5124,-3.5113,-3.5244,-3.5075,-3.5168,-3.5511,-3.546,-3.5532,-3.5721,-3.5734,-3.5579,-3.5418,-3.5294,-3.5169,-3.506,-3.4785,-3.4672,-3.468,-3.425,-3.3875,-3.3578,-3.2982,-3.2485,-3.2166,-3.1846,-3.1717,-3.1699,-3.0198,-2.9398,-2.9381,-2.885,-2.8544,-2.8351,-2.801,-2.7932,-2.8031,-2.7781,-2.7675,-2.7877,-2.7831,-2.7661,-2.7292,-2.7235,-2.7053,-2.6864,-2.6474,-2.6118,-2.5829,-2.5248,-2.4793,-2.4772,-2.4278,-2.3639,-2.2617,-2.2023,-2.1476,-2.0858,-2.0723,-2.0544,-2.032,-1.9918,-1.9577,-1.9303,-1.9085,-1.8896,-1.8602,-1.83,-1.8068,-1.7817,-1.7252,-1.6713,-1.631,-1.551,-1.4915,-1.4568,-1.4077,-1.3634,-1.3465,-1.2486,-1.1461,-1.0605,-1.0122,-0.9908,-0.9913,-0.9761,-0.9648,-0.9594,-0.9335,-0.9169,-0.9169,-0.9054,-0.8928,-0.8982,-0.8777,-0.8731,-0.8697,-0.8433,-0.8066,-0.7578,-0.7208,-0.6716,-0.6007,-0.5201,-0.4126,-4.1662,-4.1235,-4.0622,-4.034,-4.0165,-4.0165,-4.0011,-3.9659,-3.9541,-3.8514,-3.6985,-3.6407,-3.6296,-3.6522,-3.6297,-3.6394,-3.6747,-3.6832,-3.6903,-3.6905,-3.7171,-3.7105,-3.6721,-3.6597,-3.6601,-3.6583,-3.6309,-3.6261,-3.6442,-3.5945,-3.5396,-3.4927,-3.3951,-3.3264,-3.3091,-3.2899,-3.2834,-3.2751,-3.1736,-3.1049,-3.0763,-3.0377,-3.0083,-2.9837,-2.9573,-2.9444,-2.9446,-2.9277,-2.9191,-2.9165,-2.9126,-2.8959,-2.8585,-2.8609,-2.8458,-2.8149,-2.7967,-2.7629,-2.7136,-2.6426,-2.5995,-2.5918,-2.5357,-2.4997,-2.4701,-2.3913,-2.311,-2.244,-2.2029,-2.1749,-2.1604,-2.1042,-2.0633,-2.0655,-2.0488,-2.0341,-2.0333,-1.9997,-1.9627,-1.9309,-1.8806,-1.8147,-1.756,-1.699,-1.6468,-1.6013,-1.547,-1.5034,-1.4871,-1.4614,-1.3821,-1.2674,-1.1908,-1.1611,-1.1549,-1.1692,-1.1703,-1.1555,-1.1193,-1.0927,-1.0763,-1.0434,-1.0299,-1.0446,-1.03,-1.0229,-1.0264,-0.9807,-0.9435,-0.903,-0.8558,-0.7881,-0.6991,-0.6097,-0.4933,-4.2637,-4.2101,-4.1259,-4.0646,-4.027,-4.0246,-4.0223,-4.0129,-3.9706,-3.939,-3.9158,-3.8653,-3.8129,-3.7724,-3.761,-3.7576,-3.7587,-3.7537,-3.803,-3.873,-3.8537,-3.868,-3.8931,-3.8725,-3.8456,-3.8143,-3.7826,-3.7615,-3.738,-3.6954,-3.6506,-3.6099,-3.5411,-3.5026,-3.4896,-3.4374,-3.4046,-3.4066,-3.3605,-3.2908,-3.1935,-3.1581,-3.1442,-3.1375,-3.1357,-3.1325,-3.1226,-3.0666,-3.0344,-3.0327,-3.0012,-2.9794,-2.979,-2.9699,-2.9681,-2.9597,-2.9221,-2.8681,-2.8026,-2.774,-2.7452,-2.708,-2.7162,-2.6922,-2.6306,-2.6069,-2.54,-2.4302,-2.3714,-2.3345,-2.3048,-2.2648,-2.2269,-2.1992,-2.1915,-2.1894,-2.1599,-2.1367,-2.116,-2.116,-2.0346,-1.9819,-1.95,-1.8848,-1.8042,-1.7214,-1.6848,-1.6377,-1.6035,-1.5949,-1.5685,-1.4934,-1.4251,-1.3475,-1.3041,-1.3304,-1.3337,-1.306,-1.2876,-1.2705,-1.2362,-1.219,-1.2202,-1.2003,-1.1807,-1.1681,-1.1569,-1.1095,-1.0527,-1.0239,-0.9655,-0.8863,-0.7974,-0.7081,-0.5915,-4.3227,-4.2903,-4.2341,-4.1947,-4.1757,-4.1733,-4.1733,-4.1709,-4.1542,-4.1447,-4.1423,-4.1208,-4.0266,-3.8824,-3.8824,-3.907,-3.9577,-3.96,-3.979,-4.0091,-3.9991,-3.9859,-3.9712,-3.9588,-3.9534,-3.9696,-3.9379,-3.915,-3.8959,-3.8251,-3.7651,-3.7286,-3.68,-3.6333,-3.5901,-3.5556,-3.5361,-3.5185,-3.5093,-3.4669,-3.3984,-3.3225,-3.2606,-3.2204,-3.2204,-3.2129,-3.1918,-3.1595,-3.1563,-3.1791,-3.1617,-3.1439,-3.1236,-3.1174,-3.1065,-3.0844,-3.0463,-3.0059,-2.9702,-2.91,-2.8783,-2.8866,-2.8475,-2.8222,-2.8165,-2.7859,-2.7403,-2.6734,-2.5638,-2.4808,-2.4578,-2.4389,-2.416,-2.3914,-2.3587,-2.3232,-2.3067,-2.2743,-2.2477,-2.2215,-2.1808,-2.139,-2.0813,-2.0154,-1.9287,-1.8452,-1.8181,-1.7992,-1.7577,-1.7499,-1.7413,-1.7239,-1.6806,-1.5963,-1.4858,-1.4656,-1.475,-1.4599,-1.4312,-1.406,-1.3966,-1.3534,-1.3467,-1.3552,-1.3203,-1.296,-1.2947,-1.2431,-1.1842,-1.1366,-1.0387,-0.9491,-0.8867,-0.8238,-0.7345,-4.3807,-4.3649,-4.3168,-4.288,-4.2819,-4.2819,-4.2819,-4.2819,-4.2819,-4.2819,-4.2819,-4.2819,-4.1958,-4.0513,-4.0303,-4.0669,-4.114,-4.121,-4.1252,-4.1268,-4.1291,-4.123,-4.1046,-4.0967,-4.109,-4.1369,-4.1139,-4.0906,-4.0693,-3.9736,-3.9022,-3.8592,-3.8101,-3.763,-3.7177,-3.7047,-3.6831,-3.6612,-3.6455,-3.6263,-3.5937,-3.5101,-3.4194,-3.3322,-3.3188,-3.3065,-3.2723,-3.2621,-3.2677,-3.2824,-3.2878,-3.2702,-3.2466,-3.2443,-3.2232,-3.1885,-3.156,-3.1385,-3.1336,-3.0577,-3.0263,-3.0408,-2.9833,-2.9537,-2.9566,-2.9367,-2.9044,-2.861,-2.7541,-2.6648,-2.6096,-2.5842,-2.571,-2.5557,-2.4934,-2.465,-2.465,-2.4365,-2.403,-2.3515,-2.3309,-2.2916,-2.2106,-2.1385,-2.0706,-2.0038,-1.9798,-1.965,-1.9214,-1.9021,-1.9021,-1.8952,-1.89,-1.8156,-1.6609,-1.6379,-1.6411,-1.6189,-1.5866,-1.5692,-1.5511,-1.5075,-1.4821,-1.498,-1.4604,-1.4272,-1.4163,-1.3742,-1.2976,-1.2077,-1.1104,-1.0392,-1.0026,-0.9402,-0.8956,-4.4546,-4.4202,-4.3697,-4.3216,-4.2843,-4.2867,-4.2843,-4.2916,-4.2867,-4.2843,-4.2891,-4.2867,-4.2735,-4.2604,-4.2305,-4.2029,-4.1788,-4.1835,-4.2141,-4.2488,-4.2559,-4.3005,-4.3897,-4.3624,-4.3535,-4.3444,-4.3117,-4.2653,-4.1944,-4.1243,-4.0672,-4.0192,-3.9453,-3.9125,-3.8951,-3.8666,-3.8531,-3.8336,-3.7847,-3.7488,-3.7421,-3.7065,-3.6217,-3.4994,-3.4758,-3.4552,-3.4264,-3.3918,-3.3608,-3.3278,-3.3339,-3.3287,-3.3251,-3.3281,-3.3081,-3.2699,-3.26,-3.249,-3.2492,-3.2012,-3.1779,-3.1697,-3.1376,-3.0991,-3.0746,-3.06,-3.0277,-2.9396,-2.9478,-2.8837,-2.7649,-2.7102,-2.6609,-2.6293,-2.6223,-2.6254,-2.628,-2.5952,-2.5786,-2.5276,-2.4729,-2.4194,-2.3384,-2.2912,-2.2374,-2.178,-2.1465,-2.0975,-2.0559,-2.0463,-2.0308,-2.0074,-1.9984,-1.9697,-1.8357,-1.8049,-1.8128,-1.8015,-1.776,-1.7551,-1.7184,-1.692,-1.6673,-1.6505,-1.6287,-1.5941,-1.5543,-1.4836,-1.3978,-1.3096,-1.22,-1.1571,-1.1141,-1.0486,-0.9941,-4.4594,-4.4285,-4.4069,-4.3938,-4.3794,-4.377,-4.377,-4.3794,-4.377,-4.377,-4.377,-4.377,-4.3962,-4.4275,-4.4151,-4.3644,-4.2925,-4.3235,-4.3541,-4.3915,-4.4207,-4.4498,-4.4548,-4.4443,-4.4342,-4.4179,-4.4071,-4.3608,-4.2878,-4.237,-4.1927,-4.1461,-4.0913,-4.0454,-3.9931,-3.9494,-3.921,-3.9012,-3.8747,-3.8549,-3.8283,-3.8217,-3.7616,-3.6674,-3.5947,-3.547,-3.5127,-3.496,-3.4762,-3.4412,-3.4658,-3.4684,-3.4377,-3.4368,-3.4206,-3.3857,-3.3746,-3.3634,-3.3382,-3.3207,-3.3155,-3.3354,-3.3002,-3.2776,-3.2723,-3.2364,-3.1874,-3.1562,-3.131,-3.0831,-3.0098,-2.9062,-2.8399,-2.8259,-2.7826,-2.7459,-2.7317,-2.6986,-2.6443,-2.6201,-2.5604,-2.5006,-2.4699,-2.4064,-2.3462,-2.2956,-2.2631,-2.2193,-2.1797,-2.1625,-2.1431,-2.1284,-2.1255,-2.1195,-2.0771,-2.0032,-1.9775,-1.9775,-1.9587,-1.9489,-1.9302,-1.892,-1.8662,-1.8369,-1.819,-1.7469,-1.6837,-1.5861,-1.4965,-1.4343,-1.3424,-1.2621,-1.2203,-1.1504,-1.0931,-4.484,-4.4656,-4.4594,-4.4594,-4.4594,-4.4532,-4.4567,-4.4712,-4.4611,-4.4645,-4.4765,-4.4789,-4.4981,-4.5357,-4.5405,-4.502,-4.4371,-4.4621,-4.4918,-4.5063,-4.5381,-4.5555,-4.5503,-4.5373,-4.5272,-4.5197,-4.4957,-4.449,-4.3752,-4.3419,-4.2971,-4.2499,-4.2081,-4.1573,-4.0913,-4.052,-4.0105,-3.9778,-3.9473,-3.9231,-3.9033,-3.9094,-3.8846,-3.8331,-3.7692,-3.6896,-3.6093,-3.6085,-3.5946,-3.5652,-3.5706,-3.5611,-3.5264,-3.5163,-3.5078,-3.486,-3.4783,-3.4813,-3.4744,-3.4435,-3.4421,-3.4772,-3.434,-3.4131,-3.4262,-3.3804,-3.3394,-3.323,-3.2983,-3.2572,-3.1911,-3.1067,-3.0317,-2.983,-2.8978,-2.8558,-2.8558,-2.8052,-2.7682,-2.7336,-2.6607,-2.6032,-2.5847,-2.5267,-2.4673,-2.4119,-2.384,-2.3479,-2.3171,-2.3002,-2.2951,-2.2962,-2.3004,-2.3136,-2.2968,-2.263,-2.1522,-2.1323,-2.1124,-2.1173,-2.1112,-2.0833,-2.0563,-2.0275,-1.9725,-1.8905,-1.7911,-1.6915,-1.6189,-1.556,-1.4611,-1.3669,-1.3099,-1.2508,-1.1933,-4.5355,-4.5319,-4.5331,-4.5257,-4.5282,-4.5024,-4.5205,-4.5532,-4.5329,-4.5444,-4.5821,-4.5902,-4.5942,-4.5998,-4.6062,-4.5974,-4.6022,-4.6135,-4.6022,-4.5894,-4.5966,-4.6278,-4.6645,-4.6407,-4.6561,-4.6855,-4.6209,-4.5457,-4.4704,-4.4344,-4.3869,-4.3327,-4.2971,-4.2548,-4.2055,-4.1639,-4.122,-4.0803,-4.0236,-3.9864,-3.9756,-3.992,-3.9933,-3.9841,-3.9841,-3.911,-3.7459,-3.735,-3.7164,-3.6778,-3.6497,-3.6017,-3.572,-3.5641,-3.5578,-3.5597,-3.5628,-3.6035,-3.6464,-3.5956,-3.5669,-3.5863,-3.5318,-3.4994,-3.5011,-3.4865,-3.4539,-3.4294,-3.4049,-3.3722,-3.3097,-3.2783,-3.2039,-3.0527,-2.9971,-2.9621,-2.9635,-2.9523,-2.927,-2.8681,-2.7805,-2.7243,-2.7009,-2.6572,-2.6022,-2.5507,-2.5125,-2.4806,-2.464,-2.4519,-2.4763,-2.4808,-2.4599,-2.4463,-2.4924,-2.5173,-2.3889,-2.2851,-2.255,-2.246,-2.2501,-2.2332,-2.1981,-2.161,-2.0896,-2.008,-1.9261,-1.8259,-1.7504,-1.6826,-1.5753,-1.484,-1.4157,-1.3572,-1.293,-4.6425,-4.6241,-4.597,-4.5847,-4.5896,-4.6202,-4.641,-4.6557,-4.6431,-4.6465,-4.6651,-4.6675,-4.6895,-4.7189,-4.7238,-4.7629,-4.8248,-4.8248,-4.7685,-4.6721,-4.6848,-4.7281,-4.769,-4.7676,-4.7805,-4.7916,-4.7226,-4.6514,-4.6077,-4.5526,-4.4976,-4.4251,-4.3892,-4.3419,-4.2967,-4.2548,-4.2193,-4.1839,-4.1617,-4.1351,-4.1129,-4.1125,-4.101,-4.0872,-4.1122,-4.088,-4.0063,-3.9351,-3.8516,-3.7663,-3.7711,-3.7416,-3.6608,-3.6401,-3.6319,-3.6102,-3.6546,-3.6713,-3.6745,-3.679,-3.6807,-3.693,-3.6707,-3.6644,-3.6483,-3.6016,-3.5693,-3.545,-3.4963,-3.4539,-3.4505,-3.424,-3.3494,-3.2077,-3.149,-3.1326,-3.1402,-3.1021,-3.051,-2.9893,-2.9058,-2.8504,-2.8308,-2.781,-2.7147,-2.6643,-2.6298,-2.6039,-2.5717,-2.5565,-2.541,-2.5444,-2.5445,-2.5661,-2.5833,-2.5947,-2.5173,-2.4404,-2.4078,-2.3731,-2.3752,-2.3683,-2.3332,-2.2798,-2.208,-2.126,-2.0446,-1.9704,-1.8943,-1.82,-1.7285,-1.6347,-1.5405,-1.4647,-1.4064,-4.7738,-4.7554,-4.7282,-4.7159,-4.7183,-4.7496,-4.7682,-4.7794,-4.7731,-4.7728,-4.7799,-4.8021,-4.8268,-4.859,-4.8812,-4.9347,-5.0099,-5.0099,-4.9487,-4.8485,-4.8373,-4.8694,-4.8942,-4.8792,-4.8776,-4.8669,-4.8021,-4.7512,-4.7188,-4.6629,-4.6074,-4.5389,-4.4956,-4.4411,-4.3821,-4.3442,-4.313,-4.2705,-4.2527,-4.2259,-4.2012,-4.2077,-4.2029,-4.1776,-4.212,-4.2128,-4.178,-4.1081,-4.0236,-3.9158,-3.8793,-3.8073,-3.7147,-3.7051,-3.6965,-3.7049,-3.7317,-3.7541,-3.7467,-3.7542,-3.7605,-3.7605,-3.7525,-3.7365,-3.7303,-3.6909,-3.6789,-3.6708,-3.6521,-3.6167,-3.6023,-3.5825,-3.5143,-3.4198,-3.3413,-3.3022,-3.2965,-3.2226,-3.1598,-3.1138,-3.0486,-2.9932,-2.9312,-2.9,-2.8206,-2.7712,-2.738,-2.712,-2.6732,-2.6537,-2.6462,-2.6385,-2.6466,-2.6582,-2.649,-2.6443,-2.6361,-2.5914,-2.5571,-2.5207,-2.4991,-2.4707,-2.4445,-2.3704,-2.2973,-2.2332,-2.1597,-2.088,-2.0132,-1.9485,-1.8786,-1.78,-1.6697,-1.5957,-1.528,-4.9122,-4.9122,-4.9086,-4.9061,-4.8999,-4.8855,-4.8974,-4.9292,-4.9141,-4.9163,-4.9357,-4.9741,-5.004,-5.0149,-5.0531,-5.0938,-5.1339,-5.1405,-5.1456,-5.1114,-5.0787,-5.045,-5.0179,-4.9951,-4.9749,-4.9442,-4.9006,-4.8588,-4.8258,-4.7693,-4.716,-4.6792,-4.6145,-4.5569,-4.4886,-4.4412,-4.396,-4.3465,-4.3151,-4.2839,-4.2526,-4.279,-4.2875,-4.2485,-4.2879,-4.2888,-4.2586,-4.237,-4.1898,-4.0822,-3.9406,-3.8363,-3.7652,-3.7456,-3.769,-3.781,-3.8016,-3.8194,-3.8371,-3.8225,-3.8084,-3.8004,-3.7819,-3.7463,-3.765,-3.7854,-3.7986,-3.8022,-3.817,-3.807,-3.7425,-3.7293,-3.6963,-3.6522,-3.5423,-3.4668,-3.4079,-3.3288,-3.2913,-3.2586,-3.1989,-3.1402,-3.0554,-3.0312,-2.9684,-2.9067,-2.8732,-2.8473,-2.8057,-2.7933,-2.7848,-2.7774,-2.7675,-2.7502,-2.7465,-2.7337,-2.7253,-2.6837,-2.6547,-2.6211,-2.5947,-2.5651,-2.5195,-2.4463,-2.3822,-2.3281,-2.2729,-2.1981,-2.1334,-2.0649,-1.9828,-1.8886,-1.8093,-1.7254,-1.6587,-5.0673,-5.0673,-5.0402,-5.0341,-5.0357,-5.0659,-5.0669,-5.0713,-5.1036,-5.1011,-5.1034,-5.1427,-5.1656,-5.1681,-5.1834,-5.2155,-5.2644,-5.2721,-5.2909,-5.3215,-5.3131,-5.2269,-5.1414,-5.1186,-5.1174,-5.0958,-5.0527,-5.0194,-4.9821,-4.8971,-4.8389,-4.8114,-4.7046,-4.6469,-4.6078,-4.5415,-4.4846,-4.4505,-4.4347,-4.4074,-4.3824,-4.3592,-4.3429,-4.3382,-4.328,-4.3206,-4.3018,-4.2784,-4.2099,-4.0945,-3.9711,-3.8853,-3.8406,-3.8343,-3.8235,-3.8131,-3.831,-3.8493,-3.8524,-3.8499,-3.8402,-3.8438,-3.8613,-3.874,-3.8759,-3.8816,-3.885,-3.8804,-3.8748,-3.8678,-3.8557,-3.8579,-3.8606,-3.8598,-3.7294,-3.6236,-3.5735,-3.5336,-3.5015,-3.4652,-3.4037,-3.338,-3.2717,-3.2217,-3.1673,-3.0867,-3.041,-2.9939,-2.9546,-2.9164,-2.9094,-2.8909,-2.8786,-2.8626,-2.844,-2.831,-2.8087,-2.7667,-2.7313,-2.697,-2.6576,-2.63,-2.5651,-2.4829,-2.4463,-2.4005,-2.3465,-2.2913,-2.2258,-2.1612,-2.0917,-2.0087,-1.9236,-1.8524,-1.7887,-5.1865,-5.1803,-5.1654,-5.1531,-5.161,-5.2164,-5.2302,-5.2219,-5.269,-5.2825,-5.2698,-5.3101,-5.3361,-5.3322,-5.3555,-5.3973,-5.4391,-5.4417,-5.46,-5.4768,-5.4552,-5.3698,-5.28,-5.2598,-5.2491,-5.2396,-5.1866,-5.1467,-5.1137,-5.0352,-4.9697,-4.9049,-4.8183,-4.7465,-4.6935,-4.6496,-4.6036,-4.5782,-4.5644,-4.5505,-4.5157,-4.4738,-4.4457,-4.4317,-4.3986,-4.3774,-4.3747,-4.3465,-4.2707,-4.1583,-4.0544,-3.9863,-3.9433,-3.9083,-3.8821,-3.8527,-3.859,-3.864,-3.8676,-3.8786,-3.8896,-3.897,-3.9263,-3.9447,-3.9475,-3.9623,-3.9695,-3.9713,-3.9674,-3.9713,-3.9801,-3.9845,-3.9975,-3.9878,-3.9009,-3.809,-3.7392,-3.7045,-3.6628,-3.6069,-3.5568,-3.4985,-3.426,-3.382,-3.3168,-3.2408,-3.1909,-3.1372,-3.0834,-3.0597,-3.0344,-3.021,-3.0007,-2.9896,-2.9576,-2.9337,-2.9093,-2.8669,-2.7877,-2.7609,-2.7092,-2.6687,-2.6015,-2.5377,-2.5012,-2.4646,-2.4107,-2.3557,-2.3005,-2.2442,-2.1889,-2.1213,-2.0354,-1.9695,-1.9149,-5.2898,-5.2925,-5.2925,-5.2898,-5.3032,-5.3423,-5.3663,-5.3707,-5.4213,-5.4326,-5.4149,-5.4613,-5.4747,-5.4983,-5.5143,-5.5749,-5.5947,-5.5762,-5.5881,-5.5736,-5.5339,-5.4686,-5.4122,-5.3538,-5.3384,-5.3291,-5.2742,-5.2554,-5.2266,-5.1643,-5.0921,-5.0222,-4.9559,-4.8699,-4.7935,-4.7446,-4.7213,-4.6887,-4.6701,-4.6468,-4.6186,-4.5833,-4.5457,-4.5101,-4.4623,-4.4495,-4.4488,-4.4235,-4.3602,-4.271,-4.1771,-4.1059,-4.0547,-3.9791,-3.9374,-3.9138,-3.8859,-3.8658,-3.875,-3.9025,-3.9245,-3.9336,-3.9685,-3.9987,-3.9997,-4.029,-4.0482,-4.0592,-4.0932,-4.099,-4.1116,-4.1081,-4.1157,-4.1124,-4.0667,-4.0084,-3.9304,-3.863,-3.785,-3.7093,-3.6929,-3.6224,-3.544,-3.4818,-3.4604,-3.4339,-3.388,-3.3443,-3.2911,-3.2633,-3.211,-3.1611,-3.1434,-3.1077,-3.0795,-3.0393,-3.0106,-2.9657,-2.8713,-2.8149,-2.7439,-2.6929,-2.6323,-2.5833,-2.5468,-2.4921,-2.4372,-2.3924,-2.3465,-2.3097,-2.2544,-2.1991,-2.1306,-2.0741,-2.018,-5.4781,-5.4816,-5.4781,-5.4781,-5.4781,-5.4916,-5.4817,-5.4683,-5.5273,-5.5323,-5.5172,-5.5522,-5.5761,-5.588,-5.5986,-5.6066,-5.6197,-5.6197,-5.6132,-5.6066,-5.5736,-5.5472,-5.5032,-5.4412,-5.3954,-5.3861,-5.37,-5.3632,-5.3445,-5.2822,-5.2429,-5.2029,-5.0575,-4.9616,-4.9245,-4.8193,-4.7423,-4.7283,-4.7119,-4.6954,-4.6836,-4.6388,-4.6033,-4.5604,-4.5008,-4.4895,-4.5034,-4.4806,-4.4589,-4.4337,-4.3302,-4.2115,-4.1227,-4.051,-3.9981,-3.9389,-3.8914,-3.8786,-3.9061,-3.9226,-3.9392,-3.9722,-4.0125,-4.0345,-4.0363,-4.073,-4.1079,-4.1335,-4.1519,-4.1653,-4.1988,-4.2247,-4.2347,-4.237,-4.2102,-4.1933,-4.1452,-4.0084,-3.9148,-3.9059,-3.8667,-3.8203,-3.7773,-3.7258,-3.6819,-3.633,-3.5936,-3.5682,-3.5083,-3.4578,-3.4045,-3.339,-3.3283,-3.2983,-3.2531,-3.1973,-3.1352,-3.075,-2.97,-2.8688,-2.7983,-2.7403,-2.6818,-2.6279,-2.5742,-2.5195,-2.4555,-2.4199,-2.374,-2.3465,-2.3199,-2.2637,-2.2063,-2.1626,-2.1137,-5.5535,-5.541,-5.541,-5.541,-5.5464,-5.5708,-5.5691,-5.5672,-5.6185,-5.6391,-5.6316,-5.6547,-5.659,-5.659,-5.659,-5.659,-5.659,-5.659,-5.6554,-5.6544,-5.6359,-5.6225,-5.6153,-5.5601,-5.5132,-5.4599,-5.4335,-5.4241,-5.4039,-5.3725,-5.3197,-5.2948,-5.1753,-5.0937,-5.0379,-4.932,-4.8756,-4.8261,-4.8024,-4.7811,-4.7574,-4.7216,-4.6713,-4.6184,-4.5749,-4.5611,-4.5609,-4.5409,-4.5317,-4.5127,-4.4367,-4.3249,-4.2099,-4.123,-4.0527,-3.9911,-3.9491,-3.9277,-3.9491,-3.9703,-3.9923,-4.0125,-4.0675,-4.095,-4.1134,-4.1409,-4.1684,-4.1904,-4.2014,-4.2179,-4.2784,-4.3206,-4.3412,-4.3579,-4.3214,-4.2913,-4.2597,-4.135,-4.0417,-4.0377,-4.0064,-3.9576,-3.9207,-3.8942,-3.8307,-3.7454,-3.7233,-3.6963,-3.6506,-3.6015,-3.5772,-3.536,-3.5241,-3.4981,-3.4443,-3.3669,-3.2709,-3.1867,-3.0818,-2.9644,-2.8737,-2.8069,-2.7445,-2.6775,-2.6108,-2.5377,-2.4829,-2.4474,-2.4118,-2.3843,-2.3475,-2.3107,-2.2729,-2.2136,-2.1757,-5.6057,-5.5744,-5.5744,-5.5744,-5.5762,-5.6224,-5.6441,-5.6522,-5.6956,-5.7055,-5.7174,-5.7174,-5.7109,-5.7174,-5.7109,-5.7174,-5.7201,-5.7299,-5.7243,-5.705,-5.7064,-5.6927,-5.6836,-5.6536,-5.6138,-5.5345,-5.5128,-5.4967,-5.4899,-5.4525,-5.4253,-5.3551,-5.3181,-5.2605,-5.1574,-5.0983,-5.0413,-4.9646,-4.9285,-4.8994,-4.8634,-4.8223,-4.7575,-4.6757,-4.6463,-4.6241,-4.6033,-4.595,-4.5962,-4.5588,-4.5298,-4.4508,-4.3418,-4.2047,-4.121,-4.0804,-4.0302,-4.0024,-4.015,-4.0373,-4.0565,-4.0657,-4.1317,-4.1721,-4.1831,-4.1996,-4.2271,-4.2509,-4.2692,-4.3041,-4.3609,-4.3903,-4.4288,-4.4343,-4.3733,-4.3417,-4.3116,-4.2463,-4.186,-4.1297,-4.0956,-4.0585,-4.0276,-3.9995,-3.9276,-3.8718,-3.8511,-3.8224,-3.7809,-3.7551,-3.743,-3.7169,-3.6953,-3.652,-3.603,-3.5415,-3.4344,-3.3213,-3.2138,-3.087,-2.9733,-2.88,-2.8038,-2.7077,-2.6293,-2.5685,-2.5159,-2.4679,-2.4415,-2.4118,-2.3843,-2.3475,-2.3107,-2.2647,-2.2278,-5.7641,-5.735,-5.7323,-5.7131,-5.6875,-5.6984,-5.7011,-5.7065,-5.7119,-5.7174,-5.7174,-5.7174,-5.7174,-5.7174,-5.7174,-5.7201,-5.7336,-5.757,-5.7725,-5.7558,-5.7584,-5.755,-5.7272,-5.7102,-5.6771,-5.6615,-5.6399,-5.6425,-5.62,-5.6055,-5.5572,-5.5424,-5.4676,-5.3973,-5.3428,-5.274,-5.1681,-5.0906,-5.0417,-4.9924,-4.9508,-4.9033,-4.8322,-4.7313,-4.6995,-4.658,-4.6252,-4.6417,-4.6538,-4.6485,-4.655,-4.601,-4.5018,-4.3369,-4.2349,-4.1907,-4.1138,-4.0659,-4.0878,-4.0981,-4.12,-4.1482,-4.1922,-4.2161,-4.2216,-4.2326,-4.2747,-4.3298,-4.3793,-4.427,-4.4435,-4.4526,-4.4581,-4.4392,-4.4124,-4.3633,-4.3554,-4.3192,-4.2792,-4.226,-4.1812,-4.156,-4.1332,-4.1063,-4.0611,-4.0059,-3.9829,-3.9763,-3.9484,-3.9252,-3.9179,-3.895,-3.8675,-3.8096,-3.7439,-3.6803,-3.5986,-3.4794,-3.3608,-3.23,-3.1031,-2.9677,-2.865,-2.7856,-2.6955,-2.6272,-2.5719,-2.518,-2.4686,-2.4372,-2.4112,-2.3864,-2.3528,-2.319,-2.2667,-5.8135,-5.7688,-5.7688,-5.7496,-5.7265,-5.7174,-5.7174,-5.7174,-5.7174,-5.7174,-5.7174,-5.7174,-5.7174,-5.7174,-5.7174,-5.7336,-5.7662,-5.771,-5.7931,-5.8012,-5.8073,-5.8048,-5.7886,-5.773,-5.7686,-5.7791,-5.7948,-5.7582,-5.6876,-5.6591,-5.6583,-5.6132,-5.5504,-5.4986,-5.442,-5.3441,-5.2526,-5.1868,-5.1205,-5.0537,-5.0014,-4.964,-4.8919,-4.8186,-4.7723,-4.737,-4.6886,-4.6942,-4.7116,-4.7084,-4.6973,-4.6803,-4.6131,-4.5109,-4.3679,-4.2915,-4.1982,-4.153,-4.1602,-4.1553,-4.1555,-4.1959,-4.2362,-4.2692,-4.2913,-4.3151,-4.3463,-4.3995,-4.4306,-4.4765,-4.4948,-4.5003,-4.4926,-4.4786,-4.453,-4.4251,-4.3922,-4.3786,-4.3489,-4.3152,-4.3061,-4.2872,-4.2583,-4.2277,-4.18,-4.1518,-4.11,-4.0932,-4.0864,-4.0648,-4.0332,-4.0028,-3.9641,-3.9215,-3.8601,-3.8092,-3.7393,-3.6201,-3.5125,-3.3788,-3.2531,-3.1202,-2.9893,-2.8851,-2.8017,-2.7086,-2.6212,-2.5597,-2.5065,-2.4534,-2.4463,-2.4266,-2.4066,-2.3643,-2.3138,-5.8325,-5.7816,-5.7688,-5.7496,-5.7238,-5.7174,-5.7174,-5.7174,-5.7174,-5.7174,-5.7174,-5.7174,-5.7174,-5.7174,-5.7255,-5.7472,-5.7911,-5.7716,-5.8053,-5.8366,-5.8435,-5.8429,-5.8463,-5.8653,-5.8627,-5.8653,-5.9124,-5.8758,-5.7843,-5.7669,-5.7398,-5.7369,-5.6765,-5.6167,-5.5678,-5.5011,-5.3619,-5.2736,-5.1919,-5.1297,-5.0486,-5.0047,-4.9609,-4.8838,-4.8664,-4.8262,-4.7455,-4.7553,-4.7597,-4.7629,-4.7571,-4.7596,-4.7562,-4.6816,-4.5574,-4.4255,-4.3297,-4.2792,-4.249,-4.2352,-4.2334,-4.2564,-4.2913,-4.3298,-4.3701,-4.405,-4.4435,-4.4728,-4.4948,-4.5168,-4.5517,-4.546,-4.5285,-4.5137,-4.4963,-4.4693,-4.4296,-4.4114,-4.4043,-4.4008,-4.4145,-4.3948,-4.3518,-4.3122,-4.2692,-4.2289,-4.1968,-4.1448,-4.1362,-4.1198,-4.0933,-4.0796,-4.0474,-4.0122,-3.961,-3.9198,-3.8431,-3.7354,-3.6438,-3.5448,-3.4123,-3.2818,-3.1587,-3.0268,-2.8857,-2.7926,-2.7015,-2.6065,-2.5555,-2.5136,-2.4953,-2.4638,-2.4405,-2.4143,-2.3749,-5.8515,-5.8135,-5.7816,-5.7496,-5.7238,-5.7174,-5.7174,-5.7174,-5.7174,-5.7174,-5.7174,-5.7174,-5.7174,-5.7201,-5.7228,-5.7358,-5.7635,-5.8,-5.8224,-5.8504,-5.8718,-5.8745,-5.8627,-5.9072,-5.9202,-5.9333,-5.9856,-5.9699,-5.915,-5.9385,-5.962,-5.9351,-5.8932,-5.8852,-5.7881,-5.6799,-5.6397,-5.5335,-5.4236,-5.2907,-5.1493,-5.0857,-5.0011,-4.926,-4.8866,-4.865,-4.8113,-4.8199,-4.823,-4.8296,-4.8872,-4.9025,-4.8876,-4.8734,-4.8145,-4.6906,-4.5497,-4.3994,-4.3605,-4.3341,-4.319,-4.3331,-4.3646,-4.4105,-4.4453,-4.4838,-4.5132,-4.5205,-4.5498,-4.5771,-4.5969,-4.5925,-4.5682,-4.538,-4.4975,-4.4574,-4.4269,-4.4429,-4.4436,-4.4522,-4.4573,-4.4556,-4.4323,-4.394,-4.3474,-4.3186,-4.2827,-4.227,-4.1917,-4.1735,-4.1468,-4.1246,-4.0975,-4.0637,-4.0348,-3.9949,-3.939,-3.8497,-3.7745,-3.6967,-3.5637,-3.4307,-3.3229,-3.1864,-3.0433,-2.8933,-2.7973,-2.7083,-2.625,-2.5639,-2.5275,-2.501,-2.4786,-2.4471,-2.4272,-5.8198,-5.788,-5.7752,-5.7496,-5.7174,-5.7174,-5.7174,-5.7174,-5.7174,-5.7174,-5.7174,-5.7174,-5.7174,-5.7163,-5.7304,-5.7647,-5.8013,-5.8212,-5.8483,-5.8586,-5.8771,-5.8822,-5.9065,-5.9255,-5.9464,-5.996,-6.0378,-6.064,-6.0431,-6.0222,-6.0222,-6.0201,-5.9908,-5.9411,-5.9173,-5.7951,-5.6894,-5.5775,-5.4538,-5.338,-5.2484,-5.195,-5.1487,-5.0736,-5.0434,-4.9941,-4.9535,-4.9315,-4.9388,-4.9454,-4.989,-4.9919,-4.9719,-4.9485,-4.9103,-4.84,-4.7389,-4.6009,-4.4636,-4.4147,-4.403,-4.3991,-4.4196,-4.4563,-4.5003,-4.5388,-4.5755,-4.5975,-4.6103,-4.6302,-4.6343,-4.6145,-4.5655,-4.5248,-4.5102,-4.4759,-4.4467,-4.4759,-4.4882,-4.4933,-4.4967,-4.4882,-4.473,-4.4429,-4.401,-4.3707,-4.3417,-4.2978,-4.2673,-4.2555,-4.2099,-4.1627,-4.1341,-4.1055,-4.0928,-4.0606,-4.0273,-3.9531,-3.9029,-3.8179,-3.7042,-3.588,-3.4603,-3.3406,-3.2067,-3.067,-2.9224,-2.7839,-2.6827,-2.6101,-2.56,-2.5332,-2.5055,-2.4917,-2.4589,-5.788,-5.756,-5.756,-5.7431,-5.7201,-5.7174,-5.7174,-5.7174,-5.7174,-5.7174,-5.7174,-5.7109,-5.7044,-5.7115,-5.7246,-5.7545,-5.8093,-5.8133,-5.8533,-5.8692,-5.8743,-5.8908,-5.9228,-5.949,-5.9908,-6.0457,-6.1058,-6.1267,-6.1215,-6.111,-6.098,-6.0666,-6.0627,-6.0105,-5.9357,-5.853,-5.7487,-5.5836,-5.4729,-5.3743,-5.3174,-5.2901,-5.2593,-5.2275,-5.1943,-5.1541,-5.0999,-5.0667,-5.0402,-5.024,-5.0393,-5.0502,-5.0442,-5.04,-5.0098,-4.9575,-4.8802,-4.7735,-4.626,-4.5287,-4.4786,-4.4725,-4.4728,-4.515,-4.5407,-4.581,-4.6103,-4.6379,-4.658,-4.653,-4.6434,-4.6366,-4.5905,-4.5456,-4.5136,-4.4907,-4.481,-4.4916,-4.5036,-4.5036,-4.5053,-4.507,-4.4935,-4.4666,-4.4481,-4.4295,-4.3991,-4.367,-4.3365,-4.3076,-4.2636,-4.2163,-4.1949,-4.1559,-4.1166,-4.1007,-4.0721,-4.0431,-4.0023,-3.9376,-3.8225,-3.717,-3.5894,-3.4744,-3.3502,-3.2097,-3.067,-2.8933,-2.7324,-2.6759,-2.6197,-2.5625,-2.5356,-2.5196,-2.4843,-5.7496,-5.7238,-5.7238,-5.7238,-5.7174,-5.7174,-5.7174,-5.7174,-5.7174,-5.7201,-5.7109,-5.6942,-5.6747,-5.6804,-5.705,-5.7276,-5.7467,-5.7995,-5.8324,-5.8507,-5.8575,-5.8941,-5.9437,-5.9986,-6.0483,-6.1058,-6.1633,-6.1894,-6.2025,-6.2313,-6.213,-6.1921,-6.1793,-6.1316,-6.0558,-5.9537,-5.7903,-5.6383,-5.5315,-5.4624,-5.39,-5.3429,-5.3016,-5.2605,-5.2296,-5.1908,-5.1102,-5.1116,-5.1086,-5.0781,-5.1048,-5.1223,-5.1293,-5.1477,-5.1294,-5.0696,-5.0102,-4.902,-4.782,-4.6517,-4.5935,-4.5797,-4.5797,-4.5737,-4.5865,-4.6213,-4.6452,-4.6617,-4.6814,-4.6834,-4.6716,-4.6404,-4.5918,-4.5543,-4.5248,-4.5082,-4.495,-4.507,-4.5173,-4.5121,-4.5207,-4.5361,-4.5378,-4.5243,-4.4802,-4.4566,-4.4515,-4.4194,-4.3772,-4.3483,-4.306,-4.2738,-4.2652,-4.2152,-4.1474,-4.1198,-4.1087,-4.088,-4.0474,-4.0102,-3.9423,-3.8303,-3.7228,-3.6028,-3.4787,-3.3422,-3.1931,-3.0194,-2.8595,-2.7611,-2.6778,-2.6026,-2.5507,-2.5228,-2.483,-5.7496,-5.7174,-5.7174,-5.7174,-5.7174,-5.7174,-5.7174,-5.7174,-5.7174,-5.7044,-5.6942,-5.6747,-5.6739,-5.6943,-5.7143,-5.7456,-5.7805,-5.8202,-5.8429,-5.8646,-5.8862,-5.9333,-5.9908,-6.0483,-6.1084,-6.1659,-6.2182,-6.2496,-6.2548,-6.3071,-6.3201,-6.3045,-6.2992,-6.2482,-6.1684,-6.0333,-5.8531,-5.7238,-5.6385,-5.5964,-5.5178,-5.4898,-5.4541,-5.4079,-5.3729,-5.3565,-5.3176,-5.2619,-5.2503,-5.2429,-5.2375,-5.2312,-5.2249,-5.2474,-5.2218,-5.1678,-5.1099,-5.0353,-4.9052,-4.7625,-4.6333,-4.6094,-4.6088,-4.625,-4.6269,-4.6635,-4.6984,-4.7089,-4.7041,-4.7038,-4.6789,-4.6282,-4.5853,-4.5473,-4.534,-4.5156,-4.5224,-4.5327,-4.5447,-4.5464,-4.5669,-4.5875,-4.5875,-4.5858,-4.5311,-4.492,-4.4852,-4.4599,-4.4295,-4.389,-4.3585,-4.3178,-4.2974,-4.2566,-4.1799,-4.1633,-4.15,-4.123,-4.096,-4.0585,-4.0196,-3.9501,-3.8463,-3.7269,-3.5962,-3.4601,-3.2988,-3.1339,-2.9731,-2.8294,-2.7142,-2.6244,-2.5745,-2.5345,-2.4935,-5.7431,-5.7174,-5.7174,-5.7174,-5.7174,-5.7174,-5.7174,-5.7174,-5.7174,-5.6979,-5.6682,-5.6647,-5.6743,-5.6916,-5.7293,-5.7604,-5.7965,-5.8324,-5.862,-5.8862,-5.9202,-5.9803,-6.0405,-6.0953,-6.145,-6.213,-6.2574,-6.2835,-6.3097,-6.3646,-6.3829,-6.3933,-6.4064,-6.3545,-6.2194,-6.0767,-5.9016,-5.768,-5.729,-5.6851,-5.5969,-5.5817,-5.5725,-5.5297,-5.4956,-5.4706,-5.4432,-5.393,-5.358,-5.3502,-5.3337,-5.3145,-5.3232,-5.3234,-5.2975,-5.2429,-5.1959,-5.1453,-5.0145,-4.8274,-4.6858,-4.6502,-4.6345,-4.6584,-4.6727,-4.7039,-4.7387,-4.7589,-4.7263,-4.7005,-4.6711,-4.6276,-4.5757,-4.5323,-4.5428,-4.5395,-4.5498,-4.5601,-4.5738,-4.5858,-4.6046,-4.6149,-4.6132,-4.6063,-4.5841,-4.543,-4.5311,-4.5073,-4.47,-4.4397,-4.4194,-4.3687,-4.3178,-4.277,-4.2243,-4.1942,-4.1643,-4.1547,-4.1293,-4.1134,-4.0711,-4.0128,-3.9548,-3.847,-3.7129,-3.5721,-3.41,-3.2381,-3.0552,-2.8603,-2.7421,-2.6157,-2.5929,-2.5528,-2.5151,-5.7174,-5.7174,-5.7174,-5.7174,-5.7174,-5.7174,-5.7174,-5.7174,-5.7174,-5.6969,-5.6685,-5.6558,-5.6609,-5.6818,-5.7371,-5.78,-5.8114,-5.8392,-5.8862,-5.9307,-5.9647,-6.0195,-6.0744,-6.1319,-6.1868,-6.26,-6.3045,-6.3384,-6.3672,-6.4247,-6.4456,-6.4561,-6.4639,-6.4088,-6.2373,-6.0712,-5.904,-5.7645,-5.7467,-5.6847,-5.6306,-5.6161,-5.6115,-5.587,-5.5824,-5.5572,-5.5342,-5.4727,-5.4413,-5.4226,-5.3732,-5.3473,-5.3473,-5.3779,-5.3626,-5.3144,-5.2712,-5.2249,-5.152,-4.894,-4.7703,-4.7043,-4.6848,-4.68,-4.7094,-4.7424,-4.7601,-4.7667,-4.7437,-4.7121,-4.6711,-4.6246,-4.5677,-4.5478,-4.56,-4.5686,-4.5789,-4.5977,-4.6132,-4.6269,-4.6251,-4.6269,-4.6269,-4.6234,-4.608,-4.5875,-4.5704,-4.5498,-4.5157,-4.4818,-4.4515,-4.4093,-4.3585,-4.3076,-4.2566,-4.2157,-4.1888,-4.1722,-4.1611,-4.1452,-4.1144,-4.0589,-4.0006,-3.9411,-3.8088,-3.6448,-3.5023,-3.3587,-3.1277,-2.8978,-2.7214,-2.6058,-2.583,-2.5723,-2.5333,-5.7174,-5.7174,-5.7174,-5.7174,-5.7174,-5.7174,-5.7174,-5.7174,-5.6942,-5.6739,-5.6625,-5.6489,-5.6841,-5.724,-5.7616,-5.8078,-5.8732,-5.8889,-5.9385,-5.9934,-6.0274,-6.0666,-6.1241,-6.1921,-6.2443,-6.294,-6.3437,-6.3933,-6.4247,-6.4743,-6.5031,-6.5109,-6.4789,-6.3809,-6.2588,-6.1187,-5.9725,-5.8469,-5.7986,-5.7562,-5.7027,-5.6896,-5.6758,-5.6459,-5.6436,-5.6352,-5.6097,-5.55,-5.5184,-5.5062,-5.4564,-5.415,-5.4084,-5.4368,-5.4214,-5.3773,-5.3409,-5.2819,-5.184,-5.0032,-4.865,-4.7855,-4.7332,-4.7356,-4.7534,-4.7864,-4.7832,-4.7608,-4.7238,-4.6847,-4.6211,-4.5986,-4.5583,-4.5686,-4.5772,-4.5977,-4.6149,-4.6406,-4.6611,-4.6697,-4.6731,-4.6851,-4.6885,-4.6731,-4.656,-4.6286,-4.6097,-4.5772,-4.5498,-4.5123,-4.4818,-4.4414,-4.3991,-4.35,-4.3092,-4.2668,-4.2022,-4.1754,-4.1754,-4.1738,-4.143,-4.1005,-4.0536,-4.0022,-3.8629,-3.7177,-3.5365,-3.36,-3.1466,-2.9356,-2.7638,-2.6352,-2.5981,-2.5852,-2.5625,-5.7174,-5.7174,-5.7174,-5.7174,-5.7174,-5.7174,-5.7109,-5.6969,-5.6739,-5.6598,-5.6569,-5.6803,-5.7177,-5.7678,-5.8227,-5.8567,-5.9385,-5.962,-5.9986,-6.0561,-6.1136,-6.1502,-6.1999,-6.2626,-6.3201,-6.3541,-6.4038,-6.4587,-6.4822,-6.5162,-6.5396,-6.5286,-6.4904,-6.4246,-6.3027,-6.1669,-6.0075,-5.8955,-5.8251,-5.787,-5.755,-5.7378,-5.7263,-5.7056,-5.6965,-5.6965,-5.6793,-5.641,-5.5918,-5.5839,-5.5489,-5.4851,-5.4784,-5.4805,-5.4693,-5.447,-5.4127,-5.3485,-5.2333,-5.1229,-4.9872,-4.8862,-4.8335,-4.7931,-4.7981,-4.8102,-4.7915,-4.7609,-4.7136,-4.6705,-4.6171,-4.5958,-4.596,-4.5943,-4.6149,-4.6354,-4.6491,-4.6748,-4.6954,-4.7056,-4.7108,-4.7279,-4.7365,-4.7296,-4.7108,-4.6782,-4.6474,-4.6114,-4.5755,-4.5464,-4.5106,-4.4751,-4.443,-4.3906,-4.3585,-4.3178,-4.2636,-4.1888,-4.192,-4.2054,-4.1786,-4.1477,-4.1005,-4.052,-3.9405,-3.7854,-3.5564,-3.35,-3.1479,-2.9736,-2.8189,-2.708,-2.6374,-2.6024,-2.5916,-5.7174,-5.7174,-5.7174,-5.7174,-5.7201,-5.7125,-5.6931,-5.6697,-5.6545,-5.6542,-5.6633,-5.7371,-5.7756,-5.8044,-5.8908,-5.9385,-5.9647,-6.0065,-6.064,-6.1189,-6.179,-6.2234,-6.2809,-6.341,-6.3829,-6.4273,-6.4743,-6.5162,-6.5397,-6.5684,-6.5812,-6.556,-6.5406,-6.4627,-6.3343,-6.1823,-6.0254,-5.9342,-5.8592,-5.8115,-5.7786,-5.7584,-5.7516,-5.7378,-5.7332,-5.7401,-5.7274,-5.6996,-5.6607,-5.626,-5.5798,-5.5314,-5.507,-5.5155,-5.5329,-5.5256,-5.4904,-5.4161,-5.3292,-5.2256,-5.1316,-5.03,-4.9354,-4.8741,-4.8417,-4.8348,-4.7925,-4.769,-4.7232,-4.6887,-4.6537,-4.6388,-4.6234,-4.6406,-4.6594,-4.6748,-4.6834,-4.7022,-4.7228,-4.7313,-4.7296,-4.7365,-4.7365,-4.7347,-4.733,-4.7159,-4.6817,-4.6508,-4.6132,-4.5704,-4.5447,-4.514,-4.4802,-4.4312,-4.3991,-4.3703,-4.306,-4.2431,-4.2329,-4.2361,-4.2125,-4.177,-4.1414,-4.0825,-4.024,-3.8635,-3.5991,-3.37,-3.1491,-2.9939,-2.8608,-2.7536,-2.6591,-2.6393,-2.6175,-5.7174,-5.7174,-5.7174,-5.7044,-5.6866,-5.6783,-5.6611,-5.6531,-5.6516,-5.6803,-5.7397,-5.7573,-5.8175,-5.8889,-5.93,-5.9882,-6.0405,-6.0901,-6.1529,-6.2077,-6.2548,-6.294,-6.3463,-6.3985,-6.4351,-6.4796,-6.5266,-6.5763,-6.6076,-6.6312,-6.6114,-6.5852,-6.5614,-6.4639,-6.3334,-6.1788,-6.0748,-5.9876,-5.918,-5.8512,-5.8154,-5.7998,-5.786,-5.7699,-5.763,-5.7745,-5.7842,-5.7561,-5.7237,-5.6999,-5.6621,-5.6218,-5.5813,-5.5832,-5.5897,-5.5872,-5.5652,-5.5216,-5.435,-5.3838,-5.2942,-5.1617,-5.0454,-4.9614,-4.9058,-4.8576,-4.8071,-4.7705,-4.7415,-4.7204,-4.6818,-4.6579,-4.6577,-4.6731,-4.6919,-4.7056,-4.7125,-4.7193,-4.7365,-4.7365,-4.7365,-4.7365,-4.7365,-4.7365,-4.7347,-4.733,-4.7176,-4.6851,-4.6525,-4.6114,-4.5669,-4.5464,-4.5208,-4.4819,-4.4566,-4.4346,-4.3602,-4.2974,-4.2872,-4.2566,-4.2038,-4.177,-4.1627,-4.1021,-4.0108,-3.8314,-3.6104,-3.3914,-3.1894,-3.0392,-2.9049,-2.7998,-2.7054,-2.6653,-2.6412,-5.7174,-5.7174,-5.7044,-5.6854,-5.669,-5.6756,-5.6856,-5.6972,-5.6957,-5.7266,-5.773,-5.8227,-5.8706,-5.9333,-5.9882,-6.0588,-6.1398,-6.1764,-6.2313,-6.294,-6.3358,-6.3698,-6.4142,-6.4587,-6.5031,-6.5423,-6.5841,-6.6286,-6.6678,-6.6878,-6.6805,-6.6144,-6.5688,-6.4828,-6.3743,-6.2558,-6.1597,-6.064,-5.9812,-5.9024,-5.8641,-5.8526,-5.8296,-5.8113,-5.8044,-5.8227,-5.8457,-5.8151,-5.8002,-5.776,-5.7357,-5.6817,-5.6432,-5.6316,-5.6553,-5.657,-5.6441,-5.6057,-5.5447,-5.4675,-5.378,-5.2787,-5.168,-5.0815,-4.9846,-4.9244,-4.8389,-4.7761,-4.7669,-4.7574,-4.7114,-4.6748,-4.6885,-4.7022,-4.7176,-4.733,-4.7365,-4.7347,-4.7365,-4.7365,-4.7365,-4.7365,-4.7365,-4.7365,-4.7365,-4.7347,-4.733,-4.721,-4.6902,-4.6577,-4.6046,-4.5635,-4.5481,-4.526,-4.509,-4.4684,-4.3906,-4.3365,-4.3162,-4.2754,-4.2141,-4.1754,-4.1611,-4.074,-3.9683,-3.8024,-3.6346,-3.4341,-3.241,-3.0898,-2.9389,-2.819,-2.732,-2.688,-2.6627,-5.7174,-5.7136,-5.6801,-5.6597,-5.6595,-5.704,-5.7483,-5.773,-5.7782,-5.7887,-5.8122,-5.8889,-5.9385,-5.9882,-6.064,-6.1372,-6.2051,-6.2522,-6.3071,-6.375,-6.4064,-6.443,-6.4848,-6.5214,-6.5658,-6.6103,-6.6573,-6.6991,-6.725,-6.7338,-6.7234,-6.665,-6.6076,-6.5259,-6.4171,-6.2881,-6.1859,-6.1254,-6.021,-5.9238,-5.9123,-5.9054,-5.9031,-5.8939,-5.8916,-5.8962,-5.9031,-5.8965,-5.8899,-5.8365,-5.7963,-5.7491,-5.7012,-5.6823,-5.7055,-5.729,-5.7185,-5.7012,-5.6607,-5.5862,-5.5033,-5.4061,-5.3111,-5.2027,-5.101,-4.9696,-4.8679,-4.8033,-4.7956,-4.7633,-4.7165,-4.7127,-4.7159,-4.721,-4.7296,-4.7365,-4.7365,-4.7365,-4.7365,-4.7365,-4.7365,-4.7365,-4.7365,-4.7365,-4.7365,-4.7365,-4.7365,-4.7347,-4.7228,-4.6936,-4.6525,-4.5943,-4.5652,-4.5498,-4.5242,-4.4836,-4.4194,-4.3755,-4.3349,-4.2856,-4.2038,-4.1738,-4.1595,-4.0724,-3.9845,-3.8444,-3.6805,-3.4751,-3.2725,-3.0898,-2.9491,-2.8371,-2.7542,-2.7112,-2.6842,-5.7044,-5.6774,-5.6611,-5.6504,-5.6607,-5.7282,-5.7669,-5.7808,-5.8627,-5.8986,-5.9091,-5.9307,-5.9882,-6.064,-6.1372,-6.2077,-6.2652,-6.3227,-6.3776,-6.4195,-6.4587,-6.5136,-6.5684,-6.592,-6.6418,-6.6918,-6.7308,-6.7775,-6.8002,-6.7982,-6.7693,-6.7187,-6.6283,-6.5075,-6.4275,-6.295,-6.1992,-6.1635,-6.0838,-5.9949,-5.9743,-5.9536,-5.9421,-5.9192,-5.9077,-5.9306,-5.9398,-5.9582,-5.9452,-5.9295,-5.8908,-5.8221,-5.7393,-5.741,-5.7601,-5.7972,-5.7988,-5.7857,-5.763,-5.691,-5.6269,-5.5211,-5.4179,-5.3131,-5.1888,-5.0288,-4.9126,-4.851,-4.8016,-4.7705,-4.7441,-4.7367,-4.7365,-4.7365,-4.7365,-4.7365,-4.7365,-4.7365,-4.7365,-4.7365,-4.7365,-4.7365,-4.7365,-4.7365,-4.7365,-4.7365,-4.7365,-4.7365,-4.7365,-4.7176,-4.7005,-4.6474,-4.5892,-4.5652,-4.5379,-4.4921,-4.4193,-4.3585,-4.3162,-4.255,-4.1952,-4.177,-4.1557,-4.1021,-4.0054,-3.8681,-3.7036,-3.4965,-3.2965,-3.1125,-2.9682,-2.8473,-2.7758,-2.7236,-2.702,-5.6979,-5.6724,-5.6837,-5.6935,-5.7193,-5.773,-5.8052,-5.8209,-5.8993,-5.9516,-5.9777,-6.0039,-6.0535,-6.1293,-6.1947,-6.2652,-6.3227,-6.3803,-6.4351,-6.4796,-6.5188,-6.5684,-6.6155,-6.6573,-6.7046,-6.7465,-6.8067,-6.845,-6.8738,-6.8151,-6.762,-6.7248,-6.6051,-6.4874,-6.4142,-6.3058,-6.212,-6.1899,-6.1372,-6.0914,-6.0546,-6.0294,-5.9995,-5.9674,-5.972,-5.9858,-5.9995,-6.0225,-6.0341,-6.0204,-5.9879,-5.9345,-5.8715,-5.8407,-5.8329,-5.8504,-5.8635,-5.8598,-5.8413,-5.8063,-5.7355,-5.639,-5.5274,-5.4285,-5.2724,-5.1247,-4.9896,-4.9132,-4.8315,-4.786,-4.7456,-4.7347,-4.7365,-4.7365,-4.7365,-4.7365,-4.7365,-4.7365,-4.7365,-4.7365,-4.7365,-4.7365,-4.7365,-4.7365,-4.7365,-4.7365,-4.7365,-4.7365,-4.7365,-4.7365,-4.721,-4.6988,-4.6406,-4.5669,-4.5192,-4.4751,-4.4225,-4.3615,-4.2888,-4.2464,-4.1952,-4.1833,-4.162,-4.1116,-4.0194,-3.8878,-3.7141,-3.5246,-3.3219,-3.134,-2.9897,-2.8677,-2.7962,-2.736,-2.7042,-5.6904,-5.6754,-5.7074,-5.7387,-5.7782,-5.8261,-5.8549,-5.8706,-5.9228,-5.9803,-6.0431,-6.1058,-6.1293,-6.1711,-6.2391,-6.3149,-6.3829,-6.4378,-6.4953,-6.5501,-6.5946,-6.639,-6.6704,-6.7044,-6.7514,-6.8011,-6.8533,-6.8716,-6.8764,-6.8197,-6.7707,-6.718,-6.6103,-6.4881,-6.4424,-6.363,-6.2658,-6.2272,-6.1995,-6.1901,-6.158,-6.1166,-6.0822,-6.0684,-6.0661,-6.0752,-6.0822,-6.1006,-6.1281,-6.1049,-6.0767,-6.0113,-5.9572,-5.9123,-5.9066,-5.908,-5.9094,-5.913,-5.9069,-5.875,-5.8126,-5.7396,-5.6375,-5.5065,-5.3581,-5.21,-5.0755,-4.9505,-4.8579,-4.7982,-4.7682,-4.7365,-4.7365,-4.7365,-4.7365,-4.7365,-4.7365,-4.7365,-4.7365,-4.7365,-4.7365,-4.7365,-4.7365,-4.7365,-4.7365,-4.7365,-4.7365,-4.7365,-4.7365,-4.7365,-4.7296,-4.721,-4.6919,-4.6094,-4.5343,-4.4612,-4.4204,-4.3407,-4.2695,-4.2307,-4.1952,-4.1833,-4.1652,-4.1344,-4.0319,-3.9059,-3.7677,-3.5975,-3.3835,-3.1744,-3.0112,-2.888,-2.8167,-2.7565,-2.7155,-5.6688,-5.657,-5.6783,-5.7207,-5.7782,-5.8287,-5.8758,-5.9255,-5.9803,-6.0378,-6.1032,-6.1999,-6.2522,-6.2548,-6.3175,-6.3776,-6.4273,-6.49,-6.5554,-6.6129,-6.639,-6.6939,-6.741,-6.7671,-6.8141,-6.8533,-6.8795,-6.8847,-6.8915,-6.8415,-6.7886,-6.7542,-6.674,-6.5494,-6.4307,-6.3538,-6.3058,-6.2642,-6.2362,-6.2198,-6.2108,-6.1832,-6.1786,-6.1694,-6.1694,-6.1694,-6.174,-6.1786,-6.1832,-6.1692,-6.141,-6.0705,-6.0184,-5.9776,-5.9717,-5.9606,-5.9523,-5.9698,-5.9592,-5.9485,-5.8997,-5.8211,-5.7086,-5.5608,-5.4067,-5.2447,-5.0981,-4.9418,-4.8596,-4.7982,-4.7682,-4.747,-4.7365,-4.7365,-4.7365,-4.7365,-4.7365,-4.7365,-4.7365,-4.7365,-4.7365,-4.7365,-4.7365,-4.7365,-4.7365,-4.7365,-4.7365,-4.7365,-4.7365,-4.7365,-4.7365,-4.7313,-4.7245,-4.6723,-4.5897,-4.474,-4.4078,-4.3279,-4.257,-4.2118,-4.1952,-4.1849,-4.1636,-4.1423,-4.0654,-3.9419,-3.8015,-3.665,-3.47,-3.2684,-3.0603,-2.9197,-2.8507,-2.7847,-2.7307]}]]